<?xml version="1.0" encoding="UTF-8" standalone="no" ?>
<gpx xmlns="http://www.topografix.com/GPX/1/1" xmlns:xsi="http://www.w3.org/2001/XMLSchema-instance" xsi:schemaLocation="http://www.topografix.com/GPX/1/1 http://www.topografix.com/GPX/1/1/gpx.xsd" version="1.1" creator="VisuGPX - https://www.visugpx.com">
  <metadata>
    <name>20250909-Pont de l'Arche</name>
    <desc><![CDATA[Boucle A-R au départ du Parking du Camping]]></desc>
  </metadata>
  <trk>
    <name><![CDATA[SityTrail - 20250909-Pont de l'Arche]]></name>
    <desc><![CDATA[Boucle A-R au départ du Parking du Camping]]></desc>
    <trkseg>
      <trkpt lat="49.30571" lon="1.15755">
        <ele>6</ele>
        <time>2025-09-09T11:48:50.097Z</time>
      </trkpt>
      <trkpt lat="49.30571" lon="1.15755">
        <ele>6</ele>
        <time>2025-09-09T11:48:51.140Z</time>
      </trkpt>
      <trkpt lat="49.30571" lon="1.15754">
        <ele>6</ele>
        <time>2025-09-09T11:48:58.096Z</time>
      </trkpt>
      <trkpt lat="49.30571" lon="1.15755">
        <ele>6</ele>
        <time>2025-09-09T11:49:03.105Z</time>
      </trkpt>
      <trkpt lat="49.30557" lon="1.15725">
        <ele>12</ele>
        <time>2025-09-09T11:49:25.826Z</time>
      </trkpt>
      <trkpt lat="49.30556" lon="1.1572">
        <ele>12</ele>
        <time>2025-09-09T11:54:01.826Z</time>
      </trkpt>
      <trkpt lat="49.30555" lon="1.15731">
        <ele>12</ele>
        <time>2025-09-09T11:54:06.826Z</time>
      </trkpt>
      <trkpt lat="49.30556" lon="1.1574">
        <ele>11</ele>
        <time>2025-09-09T11:54:11.308Z</time>
      </trkpt>
      <trkpt lat="49.30556" lon="1.15748">
        <ele>11</ele>
        <time>2025-09-09T11:54:15.831Z</time>
      </trkpt>
      <trkpt lat="49.30555" lon="1.15757">
        <ele>11</ele>
        <time>2025-09-09T11:54:20.697Z</time>
      </trkpt>
      <trkpt lat="49.30556" lon="1.15764">
        <ele>9</ele>
        <time>2025-09-09T11:54:24.826Z</time>
      </trkpt>
      <trkpt lat="49.30556" lon="1.15773">
        <ele>9</ele>
        <time>2025-09-09T11:54:29.731Z</time>
      </trkpt>
      <trkpt lat="49.30556" lon="1.15779">
        <ele>9</ele>
        <time>2025-09-09T11:54:33.826Z</time>
      </trkpt>
      <trkpt lat="49.30555" lon="1.15788">
        <ele>9</ele>
        <time>2025-09-09T11:54:38.828Z</time>
      </trkpt>
      <trkpt lat="49.30555" lon="1.1579">
        <ele>9</ele>
        <time>2025-09-09T11:54:42.826Z</time>
      </trkpt>
      <trkpt lat="49.30557" lon="1.1579">
        <ele>9</ele>
        <time>2025-09-09T11:54:47.328Z</time>
      </trkpt>
      <trkpt lat="49.3056" lon="1.15797">
        <ele>9</ele>
        <time>2025-09-09T11:54:51.710Z</time>
      </trkpt>
      <trkpt lat="49.30559" lon="1.15807">
        <ele>9</ele>
        <time>2025-09-09T11:54:55.826Z</time>
      </trkpt>
      <trkpt lat="49.30558" lon="1.15816">
        <ele>9</ele>
        <time>2025-09-09T11:55:00.334Z</time>
      </trkpt>
      <trkpt lat="49.30556" lon="1.15824">
        <ele>9</ele>
        <time>2025-09-09T11:55:04.826Z</time>
      </trkpt>
      <trkpt lat="49.30555" lon="1.15833">
        <ele>9</ele>
        <time>2025-09-09T11:55:09.649Z</time>
      </trkpt>
      <trkpt lat="49.30554" lon="1.15841">
        <ele>9</ele>
        <time>2025-09-09T11:55:13.826Z</time>
      </trkpt>
      <trkpt lat="49.30554" lon="1.15849">
        <ele>7</ele>
        <time>2025-09-09T11:55:18.537Z</time>
      </trkpt>
      <trkpt lat="49.30553" lon="1.15856">
        <ele>7</ele>
        <time>2025-09-09T11:55:22.826Z</time>
      </trkpt>
      <trkpt lat="49.30552" lon="1.15864">
        <ele>7</ele>
        <time>2025-09-09T11:55:27.291Z</time>
      </trkpt>
      <trkpt lat="49.30552" lon="1.15872">
        <ele>7</ele>
        <time>2025-09-09T11:55:31.736Z</time>
      </trkpt>
      <trkpt lat="49.30551" lon="1.1588">
        <ele>6</ele>
        <time>2025-09-09T11:55:35.826Z</time>
      </trkpt>
      <trkpt lat="49.3055" lon="1.15889">
        <ele>6</ele>
        <time>2025-09-09T11:55:40.611Z</time>
      </trkpt>
      <trkpt lat="49.30549" lon="1.15896">
        <ele>6</ele>
        <time>2025-09-09T11:55:44.617Z</time>
      </trkpt>
      <trkpt lat="49.30548" lon="1.15903">
        <ele>6</ele>
        <time>2025-09-09T11:55:48.752Z</time>
      </trkpt>
      <trkpt lat="49.30551" lon="1.1591">
        <ele>6</ele>
        <time>2025-09-09T11:55:53.151Z</time>
      </trkpt>
      <trkpt lat="49.30549" lon="1.15917">
        <ele>6</ele>
        <time>2025-09-09T11:55:57.611Z</time>
      </trkpt>
      <trkpt lat="49.30547" lon="1.15925">
        <ele>6</ele>
        <time>2025-09-09T11:56:02.617Z</time>
      </trkpt>
      <trkpt lat="49.30546" lon="1.15931">
        <ele>5</ele>
        <time>2025-09-09T11:56:06.826Z</time>
      </trkpt>
      <trkpt lat="49.30546" lon="1.15938">
        <ele>5</ele>
        <time>2025-09-09T11:56:11.389Z</time>
      </trkpt>
      <trkpt lat="49.30544" lon="1.15944">
        <ele>5</ele>
        <time>2025-09-09T11:56:15.472Z</time>
      </trkpt>
      <trkpt lat="49.30542" lon="1.15951">
        <ele>5</ele>
        <time>2025-09-09T11:56:19.826Z</time>
      </trkpt>
      <trkpt lat="49.30539" lon="1.15958">
        <ele>9</ele>
        <time>2025-09-09T11:56:24.737Z</time>
      </trkpt>
      <trkpt lat="49.30536" lon="1.15966">
        <ele>9</ele>
        <time>2025-09-09T11:56:29.794Z</time>
      </trkpt>
      <trkpt lat="49.30534" lon="1.15974">
        <ele>9</ele>
        <time>2025-09-09T11:56:34.228Z</time>
      </trkpt>
      <trkpt lat="49.30532" lon="1.15981">
        <ele>9</ele>
        <time>2025-09-09T11:56:38.452Z</time>
      </trkpt>
      <trkpt lat="49.3053" lon="1.15988">
        <ele>9</ele>
        <time>2025-09-09T11:56:42.728Z</time>
      </trkpt>
      <trkpt lat="49.30529" lon="1.15995">
        <ele>9</ele>
        <time>2025-09-09T11:56:46.826Z</time>
      </trkpt>
      <trkpt lat="49.30529" lon="1.16002">
        <ele>9</ele>
        <time>2025-09-09T11:56:51.396Z</time>
      </trkpt>
      <trkpt lat="49.30527" lon="1.1601">
        <ele>9</ele>
        <time>2025-09-09T11:56:55.826Z</time>
      </trkpt>
      <trkpt lat="49.30525" lon="1.16017">
        <ele>10</ele>
        <time>2025-09-09T11:57:00.318Z</time>
      </trkpt>
      <trkpt lat="49.30523" lon="1.16025">
        <ele>10</ele>
        <time>2025-09-09T11:57:04.812Z</time>
      </trkpt>
      <trkpt lat="49.30522" lon="1.16031">
        <ele>10</ele>
        <time>2025-09-09T11:57:08.826Z</time>
      </trkpt>
      <trkpt lat="49.3052" lon="1.16039">
        <ele>10</ele>
        <time>2025-09-09T11:57:13.603Z</time>
      </trkpt>
      <trkpt lat="49.30518" lon="1.16048">
        <ele>11</ele>
        <time>2025-09-09T11:57:18.651Z</time>
      </trkpt>
      <trkpt lat="49.30516" lon="1.16055">
        <ele>11</ele>
        <time>2025-09-09T11:57:22.826Z</time>
      </trkpt>
      <trkpt lat="49.30515" lon="1.16063">
        <ele>11</ele>
        <time>2025-09-09T11:57:27.528Z</time>
      </trkpt>
      <trkpt lat="49.30513" lon="1.16071">
        <ele>13</ele>
        <time>2025-09-09T11:57:31.826Z</time>
      </trkpt>
      <trkpt lat="49.30512" lon="1.1608">
        <ele>13</ele>
        <time>2025-09-09T11:57:36.826Z</time>
      </trkpt>
      <trkpt lat="49.30511" lon="1.16088">
        <ele>13</ele>
        <time>2025-09-09T11:57:41.490Z</time>
      </trkpt>
      <trkpt lat="49.3051" lon="1.16097">
        <ele>13</ele>
        <time>2025-09-09T11:57:46.826Z</time>
      </trkpt>
      <trkpt lat="49.30506" lon="1.16103">
        <ele>12</ele>
        <time>2025-09-09T11:57:51.430Z</time>
      </trkpt>
      <trkpt lat="49.30504" lon="1.1611">
        <ele>12</ele>
        <time>2025-09-09T11:57:55.826Z</time>
      </trkpt>
      <trkpt lat="49.30504" lon="1.16119">
        <ele>12</ele>
        <time>2025-09-09T11:58:00.217Z</time>
      </trkpt>
      <trkpt lat="49.30503" lon="1.16127">
        <ele>11</ele>
        <time>2025-09-09T11:58:04.826Z</time>
      </trkpt>
      <trkpt lat="49.30503" lon="1.16134">
        <ele>11</ele>
        <time>2025-09-09T11:58:08.826Z</time>
      </trkpt>
      <trkpt lat="49.30502" lon="1.16142">
        <ele>11</ele>
        <time>2025-09-09T11:58:13.714Z</time>
      </trkpt>
      <trkpt lat="49.30501" lon="1.16149">
        <ele>11</ele>
        <time>2025-09-09T11:58:18.666Z</time>
      </trkpt>
      <trkpt lat="49.305" lon="1.16157">
        <ele>9</ele>
        <time>2025-09-09T11:58:22.826Z</time>
      </trkpt>
      <trkpt lat="49.30501" lon="1.16164">
        <ele>9</ele>
        <time>2025-09-09T11:58:27.314Z</time>
      </trkpt>
      <trkpt lat="49.30502" lon="1.16167">
        <ele>9</ele>
        <time>2025-09-09T11:58:31.826Z</time>
      </trkpt>
      <trkpt lat="49.30501" lon="1.16171">
        <ele>9</ele>
        <time>2025-09-09T11:58:36.826Z</time>
      </trkpt>
      <trkpt lat="49.30498" lon="1.1618">
        <ele>9</ele>
        <time>2025-09-09T11:58:41.188Z</time>
      </trkpt>
      <trkpt lat="49.30496" lon="1.16188">
        <ele>8</ele>
        <time>2025-09-09T11:58:45.826Z</time>
      </trkpt>
      <trkpt lat="49.30494" lon="1.16195">
        <ele>8</ele>
        <time>2025-09-09T11:58:49.826Z</time>
      </trkpt>
      <trkpt lat="49.30493" lon="1.16205">
        <ele>8</ele>
        <time>2025-09-09T11:58:54.570Z</time>
      </trkpt>
      <trkpt lat="49.30492" lon="1.16211">
        <ele>9</ele>
        <time>2025-09-09T11:58:58.826Z</time>
      </trkpt>
      <trkpt lat="49.30491" lon="1.16219">
        <ele>9</ele>
        <time>2025-09-09T11:59:03.571Z</time>
      </trkpt>
      <trkpt lat="49.3049" lon="1.16225">
        <ele>9</ele>
        <time>2025-09-09T11:59:07.826Z</time>
      </trkpt>
      <trkpt lat="49.30488" lon="1.16233">
        <ele>9</ele>
        <time>2025-09-09T11:59:12.572Z</time>
      </trkpt>
      <trkpt lat="49.30487" lon="1.1624">
        <ele>11</ele>
        <time>2025-09-09T11:59:16.826Z</time>
      </trkpt>
      <trkpt lat="49.30485" lon="1.16246">
        <ele>16</ele>
        <time>2025-09-09T11:59:21.308Z</time>
      </trkpt>
      <trkpt lat="49.30482" lon="1.16253">
        <ele>16</ele>
        <time>2025-09-09T11:59:25.826Z</time>
      </trkpt>
      <trkpt lat="49.30481" lon="1.1626">
        <ele>16</ele>
        <time>2025-09-09T11:59:29.826Z</time>
      </trkpt>
      <trkpt lat="49.30479" lon="1.16269">
        <ele>17</ele>
        <time>2025-09-09T11:59:34.826Z</time>
      </trkpt>
      <trkpt lat="49.30478" lon="1.16279">
        <ele>17</ele>
        <time>2025-09-09T11:59:39.695Z</time>
      </trkpt>
      <trkpt lat="49.30477" lon="1.16287">
        <ele>17</ele>
        <time>2025-09-09T11:59:43.826Z</time>
      </trkpt>
      <trkpt lat="49.30477" lon="1.16295">
        <ele>14</ele>
        <time>2025-09-09T11:59:47.826Z</time>
      </trkpt>
      <trkpt lat="49.30476" lon="1.16304">
        <ele>14</ele>
        <time>2025-09-09T11:59:52.611Z</time>
      </trkpt>
      <trkpt lat="49.30474" lon="1.16311">
        <ele>14</ele>
        <time>2025-09-09T11:59:56.826Z</time>
      </trkpt>
      <trkpt lat="49.30473" lon="1.16319">
        <ele>14</ele>
        <time>2025-09-09T12:00:00.826Z</time>
      </trkpt>
      <trkpt lat="49.30472" lon="1.16328">
        <ele>11</ele>
        <time>2025-09-09T12:00:05.826Z</time>
      </trkpt>
      <trkpt lat="49.30471" lon="1.16337">
        <ele>11</ele>
        <time>2025-09-09T12:00:10.375Z</time>
      </trkpt>
      <trkpt lat="49.3047" lon="1.16345">
        <ele>11</ele>
        <time>2025-09-09T12:00:14.826Z</time>
      </trkpt>
      <trkpt lat="49.30468" lon="1.16353">
        <ele>9</ele>
        <time>2025-09-09T12:00:19.191Z</time>
      </trkpt>
      <trkpt lat="49.30466" lon="1.16361">
        <ele>9</ele>
        <time>2025-09-09T12:00:23.634Z</time>
      </trkpt>
      <trkpt lat="49.30464" lon="1.16369">
        <ele>9</ele>
        <time>2025-09-09T12:00:27.826Z</time>
      </trkpt>
      <trkpt lat="49.30463" lon="1.16377">
        <ele>7</ele>
        <time>2025-09-09T12:00:31.826Z</time>
      </trkpt>
      <trkpt lat="49.30461" lon="1.16385">
        <ele>7</ele>
        <time>2025-09-09T12:00:36.826Z</time>
      </trkpt>
      <trkpt lat="49.30459" lon="1.16393">
        <ele>7</ele>
        <time>2025-09-09T12:00:41.309Z</time>
      </trkpt>
      <trkpt lat="49.30457" lon="1.16402">
        <ele>12</ele>
        <time>2025-09-09T12:00:45.826Z</time>
      </trkpt>
      <trkpt lat="49.30456" lon="1.16411">
        <ele>12</ele>
        <time>2025-09-09T12:00:50.477Z</time>
      </trkpt>
      <trkpt lat="49.30454" lon="1.1642">
        <ele>12</ele>
        <time>2025-09-09T12:00:54.826Z</time>
      </trkpt>
      <trkpt lat="49.30455" lon="1.16429">
        <ele>12</ele>
        <time>2025-09-09T12:00:59.826Z</time>
      </trkpt>
      <trkpt lat="49.30453" lon="1.16437">
        <ele>11</ele>
        <time>2025-09-09T12:01:04.354Z</time>
      </trkpt>
      <trkpt lat="49.30452" lon="1.16445">
        <ele>11</ele>
        <time>2025-09-09T12:01:08.377Z</time>
      </trkpt>
      <trkpt lat="49.30451" lon="1.16453">
        <ele>11</ele>
        <time>2025-09-09T12:01:12.838Z</time>
      </trkpt>
      <trkpt lat="49.30449" lon="1.16461">
        <ele>10</ele>
        <time>2025-09-09T12:01:17.315Z</time>
      </trkpt>
      <trkpt lat="49.30447" lon="1.1647">
        <ele>10</ele>
        <time>2025-09-09T12:01:21.731Z</time>
      </trkpt>
      <trkpt lat="49.30446" lon="1.16478">
        <ele>10</ele>
        <time>2025-09-09T12:01:25.826Z</time>
      </trkpt>
      <trkpt lat="49.30445" lon="1.16487">
        <ele>10</ele>
        <time>2025-09-09T12:01:30.557Z</time>
      </trkpt>
      <trkpt lat="49.30444" lon="1.16495">
        <ele>10</ele>
        <time>2025-09-09T12:01:34.826Z</time>
      </trkpt>
      <trkpt lat="49.30443" lon="1.16504">
        <ele>10</ele>
        <time>2025-09-09T12:01:39.750Z</time>
      </trkpt>
      <trkpt lat="49.30443" lon="1.16511">
        <ele>10</ele>
        <time>2025-09-09T12:01:43.826Z</time>
      </trkpt>
      <trkpt lat="49.30443" lon="1.16519">
        <ele>10</ele>
        <time>2025-09-09T12:01:48.311Z</time>
      </trkpt>
      <trkpt lat="49.30443" lon="1.16527">
        <ele>10</ele>
        <time>2025-09-09T12:01:52.826Z</time>
      </trkpt>
      <trkpt lat="49.30442" lon="1.16535">
        <ele>10</ele>
        <time>2025-09-09T12:01:57.653Z</time>
      </trkpt>
      <trkpt lat="49.3044" lon="1.16542">
        <ele>11</ele>
        <time>2025-09-09T12:02:01.710Z</time>
      </trkpt>
      <trkpt lat="49.30439" lon="1.16549">
        <ele>11</ele>
        <time>2025-09-09T12:02:05.826Z</time>
      </trkpt>
      <trkpt lat="49.30437" lon="1.16558">
        <ele>11</ele>
        <time>2025-09-09T12:02:10.692Z</time>
      </trkpt>
      <trkpt lat="49.30436" lon="1.16566">
        <ele>11</ele>
        <time>2025-09-09T12:02:14.748Z</time>
      </trkpt>
      <trkpt lat="49.30435" lon="1.16571">
        <ele>10</ele>
        <time>2025-09-09T12:02:18.826Z</time>
      </trkpt>
      <trkpt lat="49.30434" lon="1.16579">
        <ele>10</ele>
        <time>2025-09-09T12:02:23.826Z</time>
      </trkpt>
      <trkpt lat="49.30432" lon="1.16587">
        <ele>10</ele>
        <time>2025-09-09T12:02:28.552Z</time>
      </trkpt>
      <trkpt lat="49.3043" lon="1.16597">
        <ele>12</ele>
        <time>2025-09-09T12:02:33.452Z</time>
      </trkpt>
      <trkpt lat="49.30429" lon="1.16605">
        <ele>12</ele>
        <time>2025-09-09T12:02:37.574Z</time>
      </trkpt>
      <trkpt lat="49.30428" lon="1.16613">
        <ele>12</ele>
        <time>2025-09-09T12:02:41.826Z</time>
      </trkpt>
      <trkpt lat="49.30427" lon="1.16621">
        <ele>12</ele>
        <time>2025-09-09T12:02:45.826Z</time>
      </trkpt>
      <trkpt lat="49.30426" lon="1.16631">
        <ele>10</ele>
        <time>2025-09-09T12:02:50.826Z</time>
      </trkpt>
      <trkpt lat="49.30425" lon="1.16639">
        <ele>10</ele>
        <time>2025-09-09T12:02:55.574Z</time>
      </trkpt>
      <trkpt lat="49.30424" lon="1.16647">
        <ele>10</ele>
        <time>2025-09-09T12:02:59.632Z</time>
      </trkpt>
      <trkpt lat="49.30423" lon="1.16655">
        <ele>10</ele>
        <time>2025-09-09T12:03:03.826Z</time>
      </trkpt>
      <trkpt lat="49.30422" lon="1.16665">
        <ele>10</ele>
        <time>2025-09-09T12:03:08.430Z</time>
      </trkpt>
      <trkpt lat="49.30421" lon="1.16673">
        <ele>10</ele>
        <time>2025-09-09T12:03:12.826Z</time>
      </trkpt>
      <trkpt lat="49.3042" lon="1.16682">
        <ele>10</ele>
        <time>2025-09-09T12:03:17.492Z</time>
      </trkpt>
      <trkpt lat="49.30419" lon="1.1669">
        <ele>10</ele>
        <time>2025-09-09T12:03:21.549Z</time>
      </trkpt>
      <trkpt lat="49.30418" lon="1.16698">
        <ele>10</ele>
        <time>2025-09-09T12:03:25.826Z</time>
      </trkpt>
      <trkpt lat="49.30416" lon="1.16706">
        <ele>10</ele>
        <time>2025-09-09T12:03:30.329Z</time>
      </trkpt>
      <trkpt lat="49.30414" lon="1.16715">
        <ele>9</ele>
        <time>2025-09-09T12:03:34.826Z</time>
      </trkpt>
      <trkpt lat="49.30413" lon="1.16722">
        <ele>9</ele>
        <time>2025-09-09T12:03:39.269Z</time>
      </trkpt>
      <trkpt lat="49.30412" lon="1.1673">
        <ele>9</ele>
        <time>2025-09-09T12:03:43.833Z</time>
      </trkpt>
      <trkpt lat="49.30411" lon="1.1674">
        <ele>8</ele>
        <time>2025-09-09T12:03:48.826Z</time>
      </trkpt>
      <trkpt lat="49.3041" lon="1.16749">
        <ele>8</ele>
        <time>2025-09-09T12:03:53.431Z</time>
      </trkpt>
      <trkpt lat="49.30408" lon="1.16757">
        <ele>8</ele>
        <time>2025-09-09T12:03:57.812Z</time>
      </trkpt>
      <trkpt lat="49.30406" lon="1.16766">
        <ele>7</ele>
        <time>2025-09-09T12:04:02.495Z</time>
      </trkpt>
      <trkpt lat="49.30404" lon="1.16776">
        <ele>7</ele>
        <time>2025-09-09T12:04:06.826Z</time>
      </trkpt>
      <trkpt lat="49.30403" lon="1.16784">
        <ele>7</ele>
        <time>2025-09-09T12:04:11.352Z</time>
      </trkpt>
      <trkpt lat="49.30401" lon="1.16791">
        <ele>11</ele>
        <time>2025-09-09T12:04:15.435Z</time>
      </trkpt>
      <trkpt lat="49.30401" lon="1.168">
        <ele>9</ele>
        <time>2025-09-09T12:04:19.826Z</time>
      </trkpt>
      <trkpt lat="49.304" lon="1.16807">
        <ele>9</ele>
        <time>2025-09-09T12:04:24.365Z</time>
      </trkpt>
      <trkpt lat="49.30398" lon="1.16816">
        <ele>9</ele>
        <time>2025-09-09T12:04:28.790Z</time>
      </trkpt>
      <trkpt lat="49.30396" lon="1.16822">
        <ele>9</ele>
        <time>2025-09-09T12:04:33.215Z</time>
      </trkpt>
      <trkpt lat="49.30394" lon="1.1683">
        <ele>9</ele>
        <time>2025-09-09T12:04:37.434Z</time>
      </trkpt>
      <trkpt lat="49.30393" lon="1.16837">
        <ele>9</ele>
        <time>2025-09-09T12:04:41.569Z</time>
      </trkpt>
      <trkpt lat="49.30392" lon="1.16846">
        <ele>9</ele>
        <time>2025-09-09T12:04:45.826Z</time>
      </trkpt>
      <trkpt lat="49.30391" lon="1.16854">
        <ele>9</ele>
        <time>2025-09-09T12:04:50.491Z</time>
      </trkpt>
      <trkpt lat="49.30391" lon="1.16864">
        <ele>9</ele>
        <time>2025-09-09T12:04:54.826Z</time>
      </trkpt>
      <trkpt lat="49.30391" lon="1.16872">
        <ele>9</ele>
        <time>2025-09-09T12:04:59.288Z</time>
      </trkpt>
      <trkpt lat="49.3039" lon="1.1688">
        <ele>9</ele>
        <time>2025-09-09T12:05:03.670Z</time>
      </trkpt>
      <trkpt lat="49.3039" lon="1.16888">
        <ele>9</ele>
        <time>2025-09-09T12:05:07.826Z</time>
      </trkpt>
      <trkpt lat="49.30389" lon="1.16897">
        <ele>9</ele>
        <time>2025-09-09T12:05:12.826Z</time>
      </trkpt>
      <trkpt lat="49.30388" lon="1.16906">
        <ele>9</ele>
        <time>2025-09-09T12:05:17.826Z</time>
      </trkpt>
      <trkpt lat="49.30385" lon="1.16912">
        <ele>9</ele>
        <time>2025-09-09T12:05:22.549Z</time>
      </trkpt>
      <trkpt lat="49.30381" lon="1.16919">
        <ele>9</ele>
        <time>2025-09-09T12:05:26.826Z</time>
      </trkpt>
      <trkpt lat="49.3038" lon="1.16927">
        <ele>9</ele>
        <time>2025-09-09T12:05:31.610Z</time>
      </trkpt>
      <trkpt lat="49.30377" lon="1.16932">
        <ele>9</ele>
        <time>2025-09-09T12:05:36.115Z</time>
      </trkpt>
      <trkpt lat="49.30371" lon="1.16934">
        <ele>15</ele>
        <time>2025-09-09T12:05:40.513Z</time>
      </trkpt>
      <trkpt lat="49.30365" lon="1.16928">
        <ele>15</ele>
        <time>2025-09-09T12:05:45.516Z</time>
      </trkpt>
      <trkpt lat="49.30362" lon="1.16922">
        <ele>15</ele>
        <time>2025-09-09T12:05:49.826Z</time>
      </trkpt>
      <trkpt lat="49.3036" lon="1.16916">
        <ele>15</ele>
        <time>2025-09-09T12:05:54.369Z</time>
      </trkpt>
      <trkpt lat="49.30358" lon="1.16911">
        <ele>15</ele>
        <time>2025-09-09T12:05:58.373Z</time>
      </trkpt>
      <trkpt lat="49.30356" lon="1.16905">
        <ele>15</ele>
        <time>2025-09-09T12:06:02.457Z</time>
      </trkpt>
      <trkpt lat="49.30354" lon="1.169">
        <ele>15</ele>
        <time>2025-09-09T12:06:06.826Z</time>
      </trkpt>
      <trkpt lat="49.30352" lon="1.16894">
        <ele>15</ele>
        <time>2025-09-09T12:06:11.791Z</time>
      </trkpt>
      <trkpt lat="49.3035" lon="1.16889">
        <ele>15</ele>
        <time>2025-09-09T12:06:15.826Z</time>
      </trkpt>
      <trkpt lat="49.30349" lon="1.16883">
        <ele>15</ele>
        <time>2025-09-09T12:06:20.588Z</time>
      </trkpt>
      <trkpt lat="49.30348" lon="1.16879">
        <ele>15</ele>
        <time>2025-09-09T12:06:25.234Z</time>
      </trkpt>
      <trkpt lat="49.30347" lon="1.16874">
        <ele>20</ele>
        <time>2025-09-09T12:06:29.599Z</time>
      </trkpt>
      <trkpt lat="49.30345" lon="1.1687">
        <ele>20</ele>
        <time>2025-09-09T12:06:33.826Z</time>
      </trkpt>
      <trkpt lat="49.30342" lon="1.16864">
        <ele>20</ele>
        <time>2025-09-09T12:09:08.826Z</time>
      </trkpt>
      <trkpt lat="49.30343" lon="1.16862">
        <ele>20</ele>
        <time>2025-09-09T12:09:13.826Z</time>
      </trkpt>
      <trkpt lat="49.30342" lon="1.16856">
        <ele>20</ele>
        <time>2025-09-09T12:09:17.826Z</time>
      </trkpt>
      <trkpt lat="49.30342" lon="1.1685">
        <ele>20</ele>
        <time>2025-09-09T12:09:21.826Z</time>
      </trkpt>
      <trkpt lat="49.30343" lon="1.16841">
        <ele>20</ele>
        <time>2025-09-09T12:09:26.651Z</time>
      </trkpt>
      <trkpt lat="49.30344" lon="1.16834">
        <ele>20</ele>
        <time>2025-09-09T12:09:31.488Z</time>
      </trkpt>
      <trkpt lat="49.30345" lon="1.16826">
        <ele>20</ele>
        <time>2025-09-09T12:09:36.310Z</time>
      </trkpt>
      <trkpt lat="49.30345" lon="1.1682">
        <ele>20</ele>
        <time>2025-09-09T12:09:40.826Z</time>
      </trkpt>
      <trkpt lat="49.30345" lon="1.16813">
        <ele>20</ele>
        <time>2025-09-09T12:09:45.309Z</time>
      </trkpt>
      <trkpt lat="49.30346" lon="1.16807">
        <ele>20</ele>
        <time>2025-09-09T12:09:49.826Z</time>
      </trkpt>
      <trkpt lat="49.30347" lon="1.16801">
        <ele>20</ele>
        <time>2025-09-09T12:09:53.931Z</time>
      </trkpt>
      <trkpt lat="49.30348" lon="1.16792">
        <ele>15</ele>
        <time>2025-09-09T12:09:58.550Z</time>
      </trkpt>
      <trkpt lat="49.30348" lon="1.16785">
        <ele>17</ele>
        <time>2025-09-09T12:10:02.826Z</time>
      </trkpt>
      <trkpt lat="49.30349" lon="1.16779">
        <ele>17</ele>
        <time>2025-09-09T12:10:07.826Z</time>
      </trkpt>
      <trkpt lat="49.3035" lon="1.16771">
        <ele>17</ele>
        <time>2025-09-09T12:10:12.592Z</time>
      </trkpt>
      <trkpt lat="49.30351" lon="1.16764">
        <ele>18</ele>
        <time>2025-09-09T12:10:16.752Z</time>
      </trkpt>
      <trkpt lat="49.30353" lon="1.16755">
        <ele>18</ele>
        <time>2025-09-09T12:10:21.449Z</time>
      </trkpt>
      <trkpt lat="49.30353" lon="1.16747">
        <ele>18</ele>
        <time>2025-09-09T12:10:25.826Z</time>
      </trkpt>
      <trkpt lat="49.30354" lon="1.16738">
        <ele>18</ele>
        <time>2025-09-09T12:10:30.826Z</time>
      </trkpt>
      <trkpt lat="49.30356" lon="1.1673">
        <ele>19</ele>
        <time>2025-09-09T12:10:35.455Z</time>
      </trkpt>
      <trkpt lat="49.30357" lon="1.16723">
        <ele>19</ele>
        <time>2025-09-09T12:10:39.826Z</time>
      </trkpt>
      <trkpt lat="49.30357" lon="1.16716">
        <ele>19</ele>
        <time>2025-09-09T12:10:43.826Z</time>
      </trkpt>
      <trkpt lat="49.30357" lon="1.16709">
        <ele>19</ele>
        <time>2025-09-09T12:10:48.713Z</time>
      </trkpt>
      <trkpt lat="49.30357" lon="1.16702">
        <ele>20</ele>
        <time>2025-09-09T12:10:52.826Z</time>
      </trkpt>
      <trkpt lat="49.30357" lon="1.16696">
        <ele>20</ele>
        <time>2025-09-09T12:10:56.826Z</time>
      </trkpt>
      <trkpt lat="49.30358" lon="1.16687">
        <ele>20</ele>
        <time>2025-09-09T12:11:01.668Z</time>
      </trkpt>
      <trkpt lat="49.30359" lon="1.16678">
        <ele>20</ele>
        <time>2025-09-09T12:11:05.826Z</time>
      </trkpt>
      <trkpt lat="49.30359" lon="1.16671">
        <ele>20</ele>
        <time>2025-09-09T12:11:09.915Z</time>
      </trkpt>
      <trkpt lat="49.30358" lon="1.16661">
        <ele>20</ele>
        <time>2025-09-09T12:11:14.826Z</time>
      </trkpt>
      <trkpt lat="49.30359" lon="1.16652">
        <ele>20</ele>
        <time>2025-09-09T12:11:19.494Z</time>
      </trkpt>
      <trkpt lat="49.30358" lon="1.16646">
        <ele>20</ele>
        <time>2025-09-09T12:11:23.826Z</time>
      </trkpt>
      <trkpt lat="49.30358" lon="1.16637">
        <ele>20</ele>
        <time>2025-09-09T12:11:28.513Z</time>
      </trkpt>
      <trkpt lat="49.30358" lon="1.16629">
        <ele>20</ele>
        <time>2025-09-09T12:11:32.826Z</time>
      </trkpt>
      <trkpt lat="49.30358" lon="1.16621">
        <ele>19</ele>
        <time>2025-09-09T12:11:37.310Z</time>
      </trkpt>
      <trkpt lat="49.30357" lon="1.16613">
        <ele>19</ele>
        <time>2025-09-09T12:11:41.815Z</time>
      </trkpt>
      <trkpt lat="49.30357" lon="1.16606">
        <ele>19</ele>
        <time>2025-09-09T12:11:46.231Z</time>
      </trkpt>
      <trkpt lat="49.30356" lon="1.16597">
        <ele>19</ele>
        <time>2025-09-09T12:11:50.826Z</time>
      </trkpt>
      <trkpt lat="49.30355" lon="1.1659">
        <ele>18</ele>
        <time>2025-09-09T12:11:55.013Z</time>
      </trkpt>
      <trkpt lat="49.30354" lon="1.16581">
        <ele>18</ele>
        <time>2025-09-09T12:11:59.826Z</time>
      </trkpt>
      <trkpt lat="49.30353" lon="1.16575">
        <ele>18</ele>
        <time>2025-09-09T12:12:03.826Z</time>
      </trkpt>
      <trkpt lat="49.30352" lon="1.16566">
        <ele>17</ele>
        <time>2025-09-09T12:12:08.826Z</time>
      </trkpt>
      <trkpt lat="49.3035" lon="1.16557">
        <ele>17</ele>
        <time>2025-09-09T12:12:13.517Z</time>
      </trkpt>
      <trkpt lat="49.30348" lon="1.16549">
        <ele>17</ele>
        <time>2025-09-09T12:12:18.826Z</time>
      </trkpt>
      <trkpt lat="49.30346" lon="1.16539">
        <ele>19</ele>
        <time>2025-09-09T12:12:23.469Z</time>
      </trkpt>
      <trkpt lat="49.30344" lon="1.16531">
        <ele>19</ele>
        <time>2025-09-09T12:12:27.754Z</time>
      </trkpt>
      <trkpt lat="49.30343" lon="1.16524">
        <ele>19</ele>
        <time>2025-09-09T12:12:31.826Z</time>
      </trkpt>
      <trkpt lat="49.30342" lon="1.16515">
        <ele>19</ele>
        <time>2025-09-09T12:12:36.789Z</time>
      </trkpt>
      <trkpt lat="49.30341" lon="1.16508">
        <ele>18</ele>
        <time>2025-09-09T12:12:40.826Z</time>
      </trkpt>
      <trkpt lat="49.30341" lon="1.16501">
        <ele>18</ele>
        <time>2025-09-09T12:12:44.826Z</time>
      </trkpt>
      <trkpt lat="49.3034" lon="1.16492">
        <ele>18</ele>
        <time>2025-09-09T12:12:49.826Z</time>
      </trkpt>
      <trkpt lat="49.30339" lon="1.16484">
        <ele>17</ele>
        <time>2025-09-09T12:12:54.517Z</time>
      </trkpt>
      <trkpt lat="49.30337" lon="1.16477">
        <ele>17</ele>
        <time>2025-09-09T12:12:58.950Z</time>
      </trkpt>
      <trkpt lat="49.30334" lon="1.16473">
        <ele>17</ele>
        <time>2025-09-09T12:13:03.826Z</time>
      </trkpt>
      <trkpt lat="49.30332" lon="1.16465">
        <ele>17</ele>
        <time>2025-09-09T12:13:08.697Z</time>
      </trkpt>
      <trkpt lat="49.30329" lon="1.16458">
        <ele>17</ele>
        <time>2025-09-09T12:13:12.826Z</time>
      </trkpt>
      <trkpt lat="49.30323" lon="1.16455">
        <ele>17</ele>
        <time>2025-09-09T12:13:17.815Z</time>
      </trkpt>
      <trkpt lat="49.30318" lon="1.16452">
        <ele>17</ele>
        <time>2025-09-09T12:13:21.826Z</time>
      </trkpt>
      <trkpt lat="49.30313" lon="1.16448">
        <ele>17</ele>
        <time>2025-09-09T12:13:26.826Z</time>
      </trkpt>
      <trkpt lat="49.30307" lon="1.16444">
        <ele>17</ele>
        <time>2025-09-09T12:13:31.530Z</time>
      </trkpt>
      <trkpt lat="49.30302" lon="1.16441">
        <ele>17</ele>
        <time>2025-09-09T12:13:35.826Z</time>
      </trkpt>
      <trkpt lat="49.30298" lon="1.16438">
        <ele>17</ele>
        <time>2025-09-09T12:13:39.826Z</time>
      </trkpt>
      <trkpt lat="49.30293" lon="1.16436">
        <ele>17</ele>
        <time>2025-09-09T12:13:43.826Z</time>
      </trkpt>
      <trkpt lat="49.30288" lon="1.16433">
        <ele>16</ele>
        <time>2025-09-09T12:13:48.451Z</time>
      </trkpt>
      <trkpt lat="49.30283" lon="1.16429">
        <ele>16</ele>
        <time>2025-09-09T12:13:52.826Z</time>
      </trkpt>
      <trkpt lat="49.30277" lon="1.16425">
        <ele>16</ele>
        <time>2025-09-09T12:13:57.731Z</time>
      </trkpt>
      <trkpt lat="49.30273" lon="1.16422">
        <ele>16</ele>
        <time>2025-09-09T12:14:01.826Z</time>
      </trkpt>
      <trkpt lat="49.30268" lon="1.16419">
        <ele>16</ele>
        <time>2025-09-09T12:14:06.108Z</time>
      </trkpt>
      <trkpt lat="49.30263" lon="1.16415">
        <ele>17</ele>
        <time>2025-09-09T12:14:10.517Z</time>
      </trkpt>
      <trkpt lat="49.30259" lon="1.16412">
        <ele>17</ele>
        <time>2025-09-09T12:14:14.826Z</time>
      </trkpt>
      <trkpt lat="49.30255" lon="1.16409">
        <ele>17</ele>
        <time>2025-09-09T12:14:19.491Z</time>
      </trkpt>
      <trkpt lat="49.3025" lon="1.16405">
        <ele>17</ele>
        <time>2025-09-09T12:14:23.826Z</time>
      </trkpt>
      <trkpt lat="49.30245" lon="1.16402">
        <ele>16</ele>
        <time>2025-09-09T12:14:28.428Z</time>
      </trkpt>
      <trkpt lat="49.30241" lon="1.16398">
        <ele>16</ele>
        <time>2025-09-09T12:14:32.573Z</time>
      </trkpt>
      <trkpt lat="49.30236" lon="1.16395">
        <ele>17</ele>
        <time>2025-09-09T12:14:37.132Z</time>
      </trkpt>
      <trkpt lat="49.30231" lon="1.16392">
        <ele>17</ele>
        <time>2025-09-09T12:14:41.572Z</time>
      </trkpt>
      <trkpt lat="49.30226" lon="1.16389">
        <ele>17</ele>
        <time>2025-09-09T12:14:45.826Z</time>
      </trkpt>
      <trkpt lat="49.30221" lon="1.16386">
        <ele>17</ele>
        <time>2025-09-09T12:14:50.275Z</time>
      </trkpt>
      <trkpt lat="49.30216" lon="1.16382">
        <ele>17</ele>
        <time>2025-09-09T12:14:54.690Z</time>
      </trkpt>
      <trkpt lat="49.30211" lon="1.16379">
        <ele>17</ele>
        <time>2025-09-09T12:14:59.370Z</time>
      </trkpt>
      <trkpt lat="49.30206" lon="1.16379">
        <ele>19</ele>
        <time>2025-09-09T12:15:03.826Z</time>
      </trkpt>
      <trkpt lat="49.30202" lon="1.16379">
        <ele>19</ele>
        <time>2025-09-09T12:15:08.826Z</time>
      </trkpt>
      <trkpt lat="49.30197" lon="1.16379">
        <ele>19</ele>
        <time>2025-09-09T12:15:13.349Z</time>
      </trkpt>
      <trkpt lat="49.30193" lon="1.16379">
        <ele>19</ele>
        <time>2025-09-09T12:15:17.826Z</time>
      </trkpt>
      <trkpt lat="49.30189" lon="1.16379">
        <ele>19</ele>
        <time>2025-09-09T12:15:22.573Z</time>
      </trkpt>
      <trkpt lat="49.30185" lon="1.16382">
        <ele>19</ele>
        <time>2025-09-09T12:15:26.826Z</time>
      </trkpt>
      <trkpt lat="49.30182" lon="1.16383">
        <ele>19</ele>
        <time>2025-09-09T12:15:30.826Z</time>
      </trkpt>
      <trkpt lat="49.30179" lon="1.1638">
        <ele>21</ele>
        <time>2025-09-09T12:15:35.425Z</time>
      </trkpt>
      <trkpt lat="49.3018" lon="1.16371">
        <ele>20</ele>
        <time>2025-09-09T12:15:39.612Z</time>
      </trkpt>
      <trkpt lat="49.30177" lon="1.16363">
        <ele>20</ele>
        <time>2025-09-09T12:15:44.170Z</time>
      </trkpt>
      <trkpt lat="49.30173" lon="1.16357">
        <ele>20</ele>
        <time>2025-09-09T12:15:48.252Z</time>
      </trkpt>
      <trkpt lat="49.30171" lon="1.1635">
        <ele>20</ele>
        <time>2025-09-09T12:15:52.826Z</time>
      </trkpt>
      <trkpt lat="49.30174" lon="1.16341">
        <ele>20</ele>
        <time>2025-09-09T12:15:57.826Z</time>
      </trkpt>
      <trkpt lat="49.30176" lon="1.16332">
        <ele>20</ele>
        <time>2025-09-09T12:16:02.591Z</time>
      </trkpt>
      <trkpt lat="49.3017" lon="1.16326">
        <ele>20</ele>
        <time>2025-09-09T12:16:18.826Z</time>
      </trkpt>
      <trkpt lat="49.3017" lon="1.16327">
        <ele>20</ele>
        <time>2025-09-09T12:16:23.826Z</time>
      </trkpt>
      <trkpt lat="49.30169" lon="1.16328">
        <ele>20</ele>
        <time>2025-09-09T12:16:28.811Z</time>
      </trkpt>
      <trkpt lat="49.30164" lon="1.16322">
        <ele>20</ele>
        <time>2025-09-09T12:16:32.826Z</time>
      </trkpt>
      <trkpt lat="49.30159" lon="1.16317">
        <ele>20</ele>
        <time>2025-09-09T12:16:37.826Z</time>
      </trkpt>
      <trkpt lat="49.30155" lon="1.16313">
        <ele>20</ele>
        <time>2025-09-09T12:16:42.413Z</time>
      </trkpt>
      <trkpt lat="49.3015" lon="1.1631">
        <ele>20</ele>
        <time>2025-09-09T12:16:46.826Z</time>
      </trkpt>
      <trkpt lat="49.30145" lon="1.16306">
        <ele>20</ele>
        <time>2025-09-09T12:16:51.571Z</time>
      </trkpt>
      <trkpt lat="49.30142" lon="1.16301">
        <ele>20</ele>
        <time>2025-09-09T12:16:55.826Z</time>
      </trkpt>
      <trkpt lat="49.30138" lon="1.16297">
        <ele>20</ele>
        <time>2025-09-09T12:17:00.494Z</time>
      </trkpt>
      <trkpt lat="49.30133" lon="1.16293">
        <ele>20</ele>
        <time>2025-09-09T12:17:05.269Z</time>
      </trkpt>
      <trkpt lat="49.30128" lon="1.16288">
        <ele>21</ele>
        <time>2025-09-09T12:17:09.826Z</time>
      </trkpt>
      <trkpt lat="49.30123" lon="1.16284">
        <ele>21</ele>
        <time>2025-09-09T12:17:13.826Z</time>
      </trkpt>
      <trkpt lat="49.30119" lon="1.16281">
        <ele>21</ele>
        <time>2025-09-09T12:17:18.276Z</time>
      </trkpt>
      <trkpt lat="49.30114" lon="1.16277">
        <ele>21</ele>
        <time>2025-09-09T12:17:22.392Z</time>
      </trkpt>
      <trkpt lat="49.3011" lon="1.16274">
        <ele>21</ele>
        <time>2025-09-09T12:17:26.826Z</time>
      </trkpt>
      <trkpt lat="49.30106" lon="1.1627">
        <ele>21</ele>
        <time>2025-09-09T12:17:31.826Z</time>
      </trkpt>
      <trkpt lat="49.30107" lon="1.16271">
        <ele>21</ele>
        <time>2025-09-09T12:18:16.826Z</time>
      </trkpt>
      <trkpt lat="49.30107" lon="1.16271">
        <ele>21</ele>
        <time>2025-09-09T12:18:28.826Z</time>
      </trkpt>
      <trkpt lat="49.30107" lon="1.16271">
        <ele>21</ele>
        <time>2025-09-09T12:18:33.826Z</time>
      </trkpt>
      <trkpt lat="49.30105" lon="1.16266">
        <ele>21</ele>
        <time>2025-09-09T12:18:38.694Z</time>
      </trkpt>
      <trkpt lat="49.30098" lon="1.16264">
        <ele>21</ele>
        <time>2025-09-09T12:18:43.348Z</time>
      </trkpt>
      <trkpt lat="49.30093" lon="1.1626">
        <ele>20</ele>
        <time>2025-09-09T12:18:47.826Z</time>
      </trkpt>
      <trkpt lat="49.30089" lon="1.16257">
        <ele>20</ele>
        <time>2025-09-09T12:18:52.111Z</time>
      </trkpt>
      <trkpt lat="49.30085" lon="1.16254">
        <ele>20</ele>
        <time>2025-09-09T12:18:56.352Z</time>
      </trkpt>
      <trkpt lat="49.30081" lon="1.1625">
        <ele>20</ele>
        <time>2025-09-09T12:19:00.654Z</time>
      </trkpt>
      <trkpt lat="49.30077" lon="1.16246">
        <ele>20</ele>
        <time>2025-09-09T12:19:05.291Z</time>
      </trkpt>
      <trkpt lat="49.30072" lon="1.16242">
        <ele>20</ele>
        <time>2025-09-09T12:19:09.826Z</time>
      </trkpt>
      <trkpt lat="49.30067" lon="1.16238">
        <ele>20</ele>
        <time>2025-09-09T12:19:14.089Z</time>
      </trkpt>
      <trkpt lat="49.30062" lon="1.16235">
        <ele>19</ele>
        <time>2025-09-09T12:19:18.330Z</time>
      </trkpt>
      <trkpt lat="49.30058" lon="1.16233">
        <ele>19</ele>
        <time>2025-09-09T12:19:22.512Z</time>
      </trkpt>
      <trkpt lat="49.30054" lon="1.1623">
        <ele>19</ele>
        <time>2025-09-09T12:19:26.826Z</time>
      </trkpt>
      <trkpt lat="49.30048" lon="1.16225">
        <ele>19</ele>
        <time>2025-09-09T12:19:31.149Z</time>
      </trkpt>
      <trkpt lat="49.30044" lon="1.16221">
        <ele>19</ele>
        <time>2025-09-09T12:19:35.513Z</time>
      </trkpt>
      <trkpt lat="49.3004" lon="1.16217">
        <ele>20</ele>
        <time>2025-09-09T12:19:39.534Z</time>
      </trkpt>
      <trkpt lat="49.30036" lon="1.16213">
        <ele>20</ele>
        <time>2025-09-09T12:19:43.777Z</time>
      </trkpt>
      <trkpt lat="49.30032" lon="1.1621">
        <ele>20</ele>
        <time>2025-09-09T12:19:48.175Z</time>
      </trkpt>
      <trkpt lat="49.30027" lon="1.16206">
        <ele>20</ele>
        <time>2025-09-09T12:19:52.292Z</time>
      </trkpt>
      <trkpt lat="49.30023" lon="1.16203">
        <ele>20</ele>
        <time>2025-09-09T12:19:56.411Z</time>
      </trkpt>
      <trkpt lat="49.30019" lon="1.16199">
        <ele>20</ele>
        <time>2025-09-09T12:20:00.749Z</time>
      </trkpt>
      <trkpt lat="49.30015" lon="1.16197">
        <ele>20</ele>
        <time>2025-09-09T12:20:04.928Z</time>
      </trkpt>
      <trkpt lat="49.3001" lon="1.16193">
        <ele>22</ele>
        <time>2025-09-09T12:20:09.389Z</time>
      </trkpt>
      <trkpt lat="49.30005" lon="1.16189">
        <ele>22</ele>
        <time>2025-09-09T12:20:13.826Z</time>
      </trkpt>
      <trkpt lat="49.30001" lon="1.16186">
        <ele>22</ele>
        <time>2025-09-09T12:20:18.213Z</time>
      </trkpt>
      <trkpt lat="49.29996" lon="1.16181">
        <ele>22</ele>
        <time>2025-09-09T12:20:22.612Z</time>
      </trkpt>
      <trkpt lat="49.29992" lon="1.16178">
        <ele>21</ele>
        <time>2025-09-09T12:20:26.826Z</time>
      </trkpt>
      <trkpt lat="49.29987" lon="1.16172">
        <ele>21</ele>
        <time>2025-09-09T12:20:31.349Z</time>
      </trkpt>
      <trkpt lat="49.29983" lon="1.16168">
        <ele>22</ele>
        <time>2025-09-09T12:20:35.826Z</time>
      </trkpt>
      <trkpt lat="49.29978" lon="1.16162">
        <ele>22</ele>
        <time>2025-09-09T12:20:40.519Z</time>
      </trkpt>
      <trkpt lat="49.29974" lon="1.16159">
        <ele>22</ele>
        <time>2025-09-09T12:20:44.617Z</time>
      </trkpt>
      <trkpt lat="49.2997" lon="1.16156">
        <ele>22</ele>
        <time>2025-09-09T12:20:48.826Z</time>
      </trkpt>
      <trkpt lat="49.29967" lon="1.16152">
        <ele>21</ele>
        <time>2025-09-09T12:20:53.309Z</time>
      </trkpt>
      <trkpt lat="49.29963" lon="1.16148">
        <ele>21</ele>
        <time>2025-09-09T12:20:57.672Z</time>
      </trkpt>
      <trkpt lat="49.29959" lon="1.16143">
        <ele>21</ele>
        <time>2025-09-09T12:21:01.694Z</time>
      </trkpt>
      <trkpt lat="49.29955" lon="1.16138">
        <ele>23</ele>
        <time>2025-09-09T12:21:06.312Z</time>
      </trkpt>
      <trkpt lat="49.2995" lon="1.16133">
        <ele>23</ele>
        <time>2025-09-09T12:21:10.650Z</time>
      </trkpt>
      <trkpt lat="49.29945" lon="1.16128">
        <ele>23</ele>
        <time>2025-09-09T12:21:15.330Z</time>
      </trkpt>
      <trkpt lat="49.29941" lon="1.16124">
        <ele>22</ele>
        <time>2025-09-09T12:21:19.492Z</time>
      </trkpt>
      <trkpt lat="49.29937" lon="1.1612">
        <ele>22</ele>
        <time>2025-09-09T12:21:23.507Z</time>
      </trkpt>
      <trkpt lat="49.29932" lon="1.16115">
        <ele>22</ele>
        <time>2025-09-09T12:21:27.826Z</time>
      </trkpt>
      <trkpt lat="49.29928" lon="1.16111">
        <ele>24</ele>
        <time>2025-09-09T12:21:32.232Z</time>
      </trkpt>
      <trkpt lat="49.29922" lon="1.16107">
        <ele>24</ele>
        <time>2025-09-09T12:21:36.790Z</time>
      </trkpt>
      <trkpt lat="49.29918" lon="1.16103">
        <ele>24</ele>
        <time>2025-09-09T12:21:41.312Z</time>
      </trkpt>
      <trkpt lat="49.29913" lon="1.16099">
        <ele>24</ele>
        <time>2025-09-09T12:21:45.826Z</time>
      </trkpt>
      <trkpt lat="49.29907" lon="1.16095">
        <ele>23</ele>
        <time>2025-09-09T12:21:50.826Z</time>
      </trkpt>
      <trkpt lat="49.29903" lon="1.16091">
        <ele>29</ele>
        <time>2025-09-09T12:21:55.518Z</time>
      </trkpt>
      <trkpt lat="49.29899" lon="1.16088">
        <ele>29</ele>
        <time>2025-09-09T12:21:59.610Z</time>
      </trkpt>
      <trkpt lat="49.29894" lon="1.16084">
        <ele>29</ele>
        <time>2025-09-09T12:22:03.632Z</time>
      </trkpt>
      <trkpt lat="49.2989" lon="1.16079">
        <ele>29</ele>
        <time>2025-09-09T12:22:08.277Z</time>
      </trkpt>
      <trkpt lat="49.29886" lon="1.16075">
        <ele>29</ele>
        <time>2025-09-09T12:22:12.368Z</time>
      </trkpt>
      <trkpt lat="49.29882" lon="1.16071">
        <ele>29</ele>
        <time>2025-09-09T12:22:16.826Z</time>
      </trkpt>
      <trkpt lat="49.29878" lon="1.16065">
        <ele>28</ele>
        <time>2025-09-09T12:22:21.511Z</time>
      </trkpt>
      <trkpt lat="49.29875" lon="1.16061">
        <ele>35</ele>
        <time>2025-09-09T12:22:26.092Z</time>
      </trkpt>
      <trkpt lat="49.29872" lon="1.16054">
        <ele>35</ele>
        <time>2025-09-09T12:22:30.350Z</time>
      </trkpt>
      <trkpt lat="49.2987" lon="1.16046">
        <ele>35</ele>
        <time>2025-09-09T12:22:34.557Z</time>
      </trkpt>
      <trkpt lat="49.29868" lon="1.16038">
        <ele>33</ele>
        <time>2025-09-09T12:22:38.826Z</time>
      </trkpt>
      <trkpt lat="49.29866" lon="1.16029">
        <ele>33</ele>
        <time>2025-09-09T12:22:43.826Z</time>
      </trkpt>
      <trkpt lat="49.29865" lon="1.16021">
        <ele>33</ele>
        <time>2025-09-09T12:22:48.368Z</time>
      </trkpt>
      <trkpt lat="49.29863" lon="1.16013">
        <ele>30</ele>
        <time>2025-09-09T12:22:52.530Z</time>
      </trkpt>
      <trkpt lat="49.29861" lon="1.16007">
        <ele>30</ele>
        <time>2025-09-09T12:22:56.826Z</time>
      </trkpt>
      <trkpt lat="49.29858" lon="1.16002">
        <ele>30</ele>
        <time>2025-09-09T12:23:01.163Z</time>
      </trkpt>
      <trkpt lat="49.29853" lon="1.15996">
        <ele>30</ele>
        <time>2025-09-09T12:23:05.826Z</time>
      </trkpt>
      <trkpt lat="49.29848" lon="1.15992">
        <ele>30</ele>
        <time>2025-09-09T12:23:10.469Z</time>
      </trkpt>
      <trkpt lat="49.29843" lon="1.1599">
        <ele>33</ele>
        <time>2025-09-09T12:23:14.826Z</time>
      </trkpt>
      <trkpt lat="49.29838" lon="1.15989">
        <ele>33</ele>
        <time>2025-09-09T12:23:19.328Z</time>
      </trkpt>
      <trkpt lat="49.29832" lon="1.15989">
        <ele>33</ele>
        <time>2025-09-09T12:23:23.826Z</time>
      </trkpt>
      <trkpt lat="49.29826" lon="1.15988">
        <ele>33</ele>
        <time>2025-09-09T12:23:28.433Z</time>
      </trkpt>
      <trkpt lat="49.29821" lon="1.15989">
        <ele>33</ele>
        <time>2025-09-09T12:23:32.826Z</time>
      </trkpt>
      <trkpt lat="49.29816" lon="1.1599">
        <ele>34</ele>
        <time>2025-09-09T12:23:37.013Z</time>
      </trkpt>
      <trkpt lat="49.29809" lon="1.15991">
        <ele>34</ele>
        <time>2025-09-09T12:23:41.411Z</time>
      </trkpt>
      <trkpt lat="49.29803" lon="1.15992">
        <ele>34</ele>
        <time>2025-09-09T12:23:45.733Z</time>
      </trkpt>
      <trkpt lat="49.29799" lon="1.15992">
        <ele>34</ele>
        <time>2025-09-09T12:23:49.826Z</time>
      </trkpt>
      <trkpt lat="49.29794" lon="1.1599">
        <ele>34</ele>
        <time>2025-09-09T12:23:54.591Z</time>
      </trkpt>
      <trkpt lat="49.2979" lon="1.15989">
        <ele>35</ele>
        <time>2025-09-09T12:23:58.826Z</time>
      </trkpt>
      <trkpt lat="49.29785" lon="1.15989">
        <ele>35</ele>
        <time>2025-09-09T12:24:02.826Z</time>
      </trkpt>
      <trkpt lat="49.2978" lon="1.15989">
        <ele>35</ele>
        <time>2025-09-09T12:24:07.393Z</time>
      </trkpt>
      <trkpt lat="49.29775" lon="1.15988">
        <ele>35</ele>
        <time>2025-09-09T12:24:11.651Z</time>
      </trkpt>
      <trkpt lat="49.29771" lon="1.15989">
        <ele>35</ele>
        <time>2025-09-09T12:24:15.826Z</time>
      </trkpt>
      <trkpt lat="49.29769" lon="1.15997">
        <ele>35</ele>
        <time>2025-09-09T12:24:20.151Z</time>
      </trkpt>
      <trkpt lat="49.29768" lon="1.16003">
        <ele>35</ele>
        <time>2025-09-09T12:24:24.313Z</time>
      </trkpt>
      <trkpt lat="49.29769" lon="1.16009">
        <ele>35</ele>
        <time>2025-09-09T12:24:28.471Z</time>
      </trkpt>
      <trkpt lat="49.2977" lon="1.16018">
        <ele>38</ele>
        <time>2025-09-09T12:24:32.531Z</time>
      </trkpt>
      <trkpt lat="49.29772" lon="1.16028">
        <ele>38</ele>
        <time>2025-09-09T12:24:36.553Z</time>
      </trkpt>
      <trkpt lat="49.29774" lon="1.16032">
        <ele>38</ele>
        <time>2025-09-09T12:24:40.715Z</time>
      </trkpt>
      <trkpt lat="49.29775" lon="1.16037">
        <ele>38</ele>
        <time>2025-09-09T12:24:45.333Z</time>
      </trkpt>
      <trkpt lat="49.29775" lon="1.16043">
        <ele>42</ele>
        <time>2025-09-09T12:24:49.750Z</time>
      </trkpt>
      <trkpt lat="49.29774" lon="1.16051">
        <ele>42</ele>
        <time>2025-09-09T12:24:53.826Z</time>
      </trkpt>
      <trkpt lat="49.29771" lon="1.16066">
        <ele>42</ele>
        <time>2025-09-09T12:24:58.328Z</time>
      </trkpt>
      <trkpt lat="49.29767" lon="1.16071">
        <ele>45</ele>
        <time>2025-09-09T12:25:02.429Z</time>
      </trkpt>
      <trkpt lat="49.29762" lon="1.16072">
        <ele>47</ele>
        <time>2025-09-09T12:25:06.826Z</time>
      </trkpt>
      <trkpt lat="49.29757" lon="1.1607">
        <ele>47</ele>
        <time>2025-09-09T12:25:11.473Z</time>
      </trkpt>
      <trkpt lat="49.29752" lon="1.16069">
        <ele>43</ele>
        <time>2025-09-09T12:25:15.714Z</time>
      </trkpt>
      <trkpt lat="49.29747" lon="1.16068">
        <ele>43</ele>
        <time>2025-09-09T12:25:19.989Z</time>
      </trkpt>
      <trkpt lat="49.29742" lon="1.16068">
        <ele>43</ele>
        <time>2025-09-09T12:25:24.513Z</time>
      </trkpt>
      <trkpt lat="49.29739" lon="1.1607">
        <ele>47</ele>
        <time>2025-09-09T12:25:28.691Z</time>
      </trkpt>
      <trkpt lat="49.29735" lon="1.16074">
        <ele>46</ele>
        <time>2025-09-09T12:25:33.213Z</time>
      </trkpt>
      <trkpt lat="49.29733" lon="1.16081">
        <ele>46</ele>
        <time>2025-09-09T12:25:37.551Z</time>
      </trkpt>
      <trkpt lat="49.29733" lon="1.16088">
        <ele>46</ele>
        <time>2025-09-09T12:25:42.353Z</time>
      </trkpt>
      <trkpt lat="49.29735" lon="1.16098">
        <ele>50</ele>
        <time>2025-09-09T12:25:46.826Z</time>
      </trkpt>
      <trkpt lat="49.29741" lon="1.16108">
        <ele>49</ele>
        <time>2025-09-09T12:25:51.635Z</time>
      </trkpt>
      <trkpt lat="49.29745" lon="1.16111">
        <ele>49</ele>
        <time>2025-09-09T12:25:55.752Z</time>
      </trkpt>
      <trkpt lat="49.29745" lon="1.16114">
        <ele>49</ele>
        <time>2025-09-09T12:25:59.791Z</time>
      </trkpt>
      <trkpt lat="49.29731" lon="1.16132">
        <ele>52</ele>
        <time>2025-09-09T12:27:07.826Z</time>
      </trkpt>
      <trkpt lat="49.29731" lon="1.16132">
        <ele>52</ele>
        <time>2025-09-09T12:27:12.826Z</time>
      </trkpt>
      <trkpt lat="49.29731" lon="1.16132">
        <ele>52</ele>
        <time>2025-09-09T12:27:16.826Z</time>
      </trkpt>
      <trkpt lat="49.29731" lon="1.16132">
        <ele>52</ele>
        <time>2025-09-09T12:27:21.826Z</time>
      </trkpt>
      <trkpt lat="49.29731" lon="1.16132">
        <ele>52</ele>
        <time>2025-09-09T12:27:28.826Z</time>
      </trkpt>
      <trkpt lat="49.29731" lon="1.16132">
        <ele>52</ele>
        <time>2025-09-09T12:28:27.826Z</time>
      </trkpt>
      <trkpt lat="49.2973" lon="1.16132">
        <ele>52</ele>
        <time>2025-09-09T12:28:37.826Z</time>
      </trkpt>
      <trkpt lat="49.29726" lon="1.16133">
        <ele>52</ele>
        <time>2025-09-09T12:28:42.826Z</time>
      </trkpt>
      <trkpt lat="49.29722" lon="1.16131">
        <ele>52</ele>
        <time>2025-09-09T12:28:46.833Z</time>
      </trkpt>
      <trkpt lat="49.29718" lon="1.16129">
        <ele>52</ele>
        <time>2025-09-09T12:28:51.302Z</time>
      </trkpt>
      <trkpt lat="49.29714" lon="1.16128">
        <ele>52</ele>
        <time>2025-09-09T12:28:55.826Z</time>
      </trkpt>
      <trkpt lat="49.29711" lon="1.16131">
        <ele>52</ele>
        <time>2025-09-09T12:29:00.275Z</time>
      </trkpt>
      <trkpt lat="49.29704" lon="1.16141">
        <ele>51</ele>
        <time>2025-09-09T12:29:04.826Z</time>
      </trkpt>
      <trkpt lat="49.29702" lon="1.16147">
        <ele>51</ele>
        <time>2025-09-09T12:29:09.742Z</time>
      </trkpt>
      <trkpt lat="49.29695" lon="1.16152">
        <ele>51</ele>
        <time>2025-09-09T12:29:14.826Z</time>
      </trkpt>
      <trkpt lat="49.2969" lon="1.16154">
        <ele>53</ele>
        <time>2025-09-09T12:29:19.057Z</time>
      </trkpt>
      <trkpt lat="49.2969" lon="1.1616">
        <ele>53</ele>
        <time>2025-09-09T12:29:23.473Z</time>
      </trkpt>
      <trkpt lat="49.29688" lon="1.16165">
        <ele>53</ele>
        <time>2025-09-09T12:29:27.826Z</time>
      </trkpt>
      <trkpt lat="49.29688" lon="1.16169">
        <ele>53</ele>
        <time>2025-09-09T12:29:32.351Z</time>
      </trkpt>
      <trkpt lat="49.2969" lon="1.16169">
        <ele>53</ele>
        <time>2025-09-09T12:29:36.312Z</time>
      </trkpt>
      <trkpt lat="49.29689" lon="1.16173">
        <ele>53</ele>
        <time>2025-09-09T12:29:40.569Z</time>
      </trkpt>
      <trkpt lat="49.29685" lon="1.16176">
        <ele>53</ele>
        <time>2025-09-09T12:29:45.278Z</time>
      </trkpt>
      <trkpt lat="49.29681" lon="1.16181">
        <ele>55</ele>
        <time>2025-09-09T12:29:49.351Z</time>
      </trkpt>
      <trkpt lat="49.29678" lon="1.16188">
        <ele>53</ele>
        <time>2025-09-09T12:29:53.826Z</time>
      </trkpt>
      <trkpt lat="49.29675" lon="1.16193">
        <ele>53</ele>
        <time>2025-09-09T12:29:57.826Z</time>
      </trkpt>
      <trkpt lat="49.29673" lon="1.16199">
        <ele>53</ele>
        <time>2025-09-09T12:30:02.057Z</time>
      </trkpt>
      <trkpt lat="49.29669" lon="1.16204">
        <ele>53</ele>
        <time>2025-09-09T12:30:06.447Z</time>
      </trkpt>
      <trkpt lat="49.29665" lon="1.16211">
        <ele>56</ele>
        <time>2025-09-09T12:30:10.731Z</time>
      </trkpt>
      <trkpt lat="49.29662" lon="1.16216">
        <ele>56</ele>
        <time>2025-09-09T12:30:15.192Z</time>
      </trkpt>
      <trkpt lat="49.29658" lon="1.16224">
        <ele>56</ele>
        <time>2025-09-09T12:30:19.775Z</time>
      </trkpt>
      <trkpt lat="49.29654" lon="1.16229">
        <ele>56</ele>
        <time>2025-09-09T12:30:24.631Z</time>
      </trkpt>
      <trkpt lat="49.29652" lon="1.16232">
        <ele>54</ele>
        <time>2025-09-09T12:30:32.826Z</time>
      </trkpt>
      <trkpt lat="49.29652" lon="1.1623">
        <ele>54</ele>
        <time>2025-09-09T12:30:37.011Z</time>
      </trkpt>
      <trkpt lat="49.29651" lon="1.16236">
        <ele>54</ele>
        <time>2025-09-09T12:30:41.491Z</time>
      </trkpt>
      <trkpt lat="49.29648" lon="1.16242">
        <ele>56</ele>
        <time>2025-09-09T12:30:45.826Z</time>
      </trkpt>
      <trkpt lat="49.29646" lon="1.16246">
        <ele>56</ele>
        <time>2025-09-09T12:30:50.517Z</time>
      </trkpt>
      <trkpt lat="49.29642" lon="1.16251">
        <ele>56</ele>
        <time>2025-09-09T12:30:55.022Z</time>
      </trkpt>
      <trkpt lat="49.29637" lon="1.16258">
        <ele>56</ele>
        <time>2025-09-09T12:30:59.674Z</time>
      </trkpt>
      <trkpt lat="49.29634" lon="1.16262">
        <ele>56</ele>
        <time>2025-09-09T12:31:04.793Z</time>
      </trkpt>
      <trkpt lat="49.29629" lon="1.16269">
        <ele>59</ele>
        <time>2025-09-09T12:31:09.597Z</time>
      </trkpt>
      <trkpt lat="49.29625" lon="1.16272">
        <ele>59</ele>
        <time>2025-09-09T12:31:13.995Z</time>
      </trkpt>
      <trkpt lat="49.29621" lon="1.16277">
        <ele>59</ele>
        <time>2025-09-09T12:31:18.069Z</time>
      </trkpt>
      <trkpt lat="49.29617" lon="1.1628">
        <ele>59</ele>
        <time>2025-09-09T12:31:22.468Z</time>
      </trkpt>
      <trkpt lat="49.29614" lon="1.16284">
        <ele>59</ele>
        <time>2025-09-09T12:31:26.552Z</time>
      </trkpt>
      <trkpt lat="49.29608" lon="1.16292">
        <ele>61</ele>
        <time>2025-09-09T12:31:31.793Z</time>
      </trkpt>
      <trkpt lat="49.29603" lon="1.16295">
        <ele>61</ele>
        <time>2025-09-09T12:31:36.826Z</time>
      </trkpt>
      <trkpt lat="49.29599" lon="1.16299">
        <ele>61</ele>
        <time>2025-09-09T12:31:41.328Z</time>
      </trkpt>
      <trkpt lat="49.29597" lon="1.163">
        <ele>62</ele>
        <time>2025-09-09T12:31:45.394Z</time>
      </trkpt>
      <trkpt lat="49.29593" lon="1.16303">
        <ele>62</ele>
        <time>2025-09-09T12:31:49.826Z</time>
      </trkpt>
      <trkpt lat="49.29587" lon="1.16308">
        <ele>62</ele>
        <time>2025-09-09T12:31:54.271Z</time>
      </trkpt>
      <trkpt lat="49.2958" lon="1.16313">
        <ele>62</ele>
        <time>2025-09-09T12:31:58.794Z</time>
      </trkpt>
      <trkpt lat="49.29575" lon="1.16316">
        <ele>62</ele>
        <time>2025-09-09T12:32:02.826Z</time>
      </trkpt>
      <trkpt lat="49.29571" lon="1.1632">
        <ele>63</ele>
        <time>2025-09-09T12:32:07.591Z</time>
      </trkpt>
      <trkpt lat="49.29569" lon="1.16324">
        <ele>65</ele>
        <time>2025-09-09T12:32:11.612Z</time>
      </trkpt>
      <trkpt lat="49.29567" lon="1.16328">
        <ele>65</ele>
        <time>2025-09-09T12:32:16.697Z</time>
      </trkpt>
      <trkpt lat="49.29564" lon="1.16333">
        <ele>65</ele>
        <time>2025-09-09T12:32:20.798Z</time>
      </trkpt>
      <trkpt lat="49.29561" lon="1.16337">
        <ele>65</ele>
        <time>2025-09-09T12:32:25.212Z</time>
      </trkpt>
      <trkpt lat="49.29557" lon="1.16341">
        <ele>65</ele>
        <time>2025-09-09T12:32:29.313Z</time>
      </trkpt>
      <trkpt lat="49.29554" lon="1.16344">
        <ele>65</ele>
        <time>2025-09-09T12:32:33.334Z</time>
      </trkpt>
      <trkpt lat="49.2955" lon="1.16348">
        <ele>66</ele>
        <time>2025-09-09T12:32:37.359Z</time>
      </trkpt>
      <trkpt lat="49.29547" lon="1.16353">
        <ele>66</ele>
        <time>2025-09-09T12:32:41.729Z</time>
      </trkpt>
      <trkpt lat="49.29544" lon="1.16358">
        <ele>66</ele>
        <time>2025-09-09T12:32:46.033Z</time>
      </trkpt>
      <trkpt lat="49.2954" lon="1.16362">
        <ele>67</ele>
        <time>2025-09-09T12:32:50.395Z</time>
      </trkpt>
      <trkpt lat="49.29537" lon="1.16366">
        <ele>67</ele>
        <time>2025-09-09T12:32:54.826Z</time>
      </trkpt>
      <trkpt lat="49.29534" lon="1.16372">
        <ele>67</ele>
        <time>2025-09-09T12:32:59.509Z</time>
      </trkpt>
      <trkpt lat="49.29531" lon="1.16378">
        <ele>68</ele>
        <time>2025-09-09T12:33:03.826Z</time>
      </trkpt>
      <trkpt lat="49.2953" lon="1.16384">
        <ele>68</ele>
        <time>2025-09-09T12:33:07.930Z</time>
      </trkpt>
      <trkpt lat="49.29528" lon="1.16391">
        <ele>68</ele>
        <time>2025-09-09T12:33:12.109Z</time>
      </trkpt>
      <trkpt lat="49.29525" lon="1.16397">
        <ele>68</ele>
        <time>2025-09-09T12:33:16.553Z</time>
      </trkpt>
      <trkpt lat="49.29522" lon="1.16402">
        <ele>68</ele>
        <time>2025-09-09T12:33:20.559Z</time>
      </trkpt>
      <trkpt lat="49.29518" lon="1.16407">
        <ele>67</ele>
        <time>2025-09-09T12:33:24.826Z</time>
      </trkpt>
      <trkpt lat="49.29515" lon="1.16413">
        <ele>67</ele>
        <time>2025-09-09T12:33:29.066Z</time>
      </trkpt>
      <trkpt lat="49.29512" lon="1.16419">
        <ele>71</ele>
        <time>2025-09-09T12:33:33.472Z</time>
      </trkpt>
      <trkpt lat="49.2951" lon="1.16425">
        <ele>71</ele>
        <time>2025-09-09T12:33:37.826Z</time>
      </trkpt>
      <trkpt lat="49.29508" lon="1.16434">
        <ele>71</ele>
        <time>2025-09-09T12:33:42.826Z</time>
      </trkpt>
      <trkpt lat="49.29508" lon="1.16443">
        <ele>71</ele>
        <time>2025-09-09T12:33:47.670Z</time>
      </trkpt>
      <trkpt lat="49.29508" lon="1.1645">
        <ele>71</ele>
        <time>2025-09-09T12:33:51.826Z</time>
      </trkpt>
      <trkpt lat="49.2951" lon="1.16458">
        <ele>71</ele>
        <time>2025-09-09T12:33:56.826Z</time>
      </trkpt>
      <trkpt lat="49.29512" lon="1.16464">
        <ele>71</ele>
        <time>2025-09-09T12:34:00.877Z</time>
      </trkpt>
      <trkpt lat="49.29516" lon="1.1647">
        <ele>67</ele>
        <time>2025-09-09T12:34:05.521Z</time>
      </trkpt>
      <trkpt lat="49.2952" lon="1.16475">
        <ele>67</ele>
        <time>2025-09-09T12:34:09.826Z</time>
      </trkpt>
      <trkpt lat="49.29523" lon="1.1648">
        <ele>67</ele>
        <time>2025-09-09T12:34:13.914Z</time>
      </trkpt>
      <trkpt lat="49.29527" lon="1.16487">
        <ele>66</ele>
        <time>2025-09-09T12:34:18.472Z</time>
      </trkpt>
      <trkpt lat="49.2953" lon="1.16493">
        <ele>66</ele>
        <time>2025-09-09T12:34:22.774Z</time>
      </trkpt>
      <trkpt lat="49.29532" lon="1.165">
        <ele>66</ele>
        <time>2025-09-09T12:34:26.826Z</time>
      </trkpt>
      <trkpt lat="49.29533" lon="1.16508">
        <ele>66</ele>
        <time>2025-09-09T12:34:31.334Z</time>
      </trkpt>
      <trkpt lat="49.29531" lon="1.16516">
        <ele>64</ele>
        <time>2025-09-09T12:34:35.830Z</time>
      </trkpt>
      <trkpt lat="49.29528" lon="1.16522">
        <ele>64</ele>
        <time>2025-09-09T12:34:39.826Z</time>
      </trkpt>
      <trkpt lat="49.29522" lon="1.16521">
        <ele>64</ele>
        <time>2025-09-09T12:36:15.826Z</time>
      </trkpt>
      <trkpt lat="49.29522" lon="1.1652">
        <ele>64</ele>
        <time>2025-09-09T12:36:20.826Z</time>
      </trkpt>
      <trkpt lat="49.29521" lon="1.16519">
        <ele>64</ele>
        <time>2025-09-09T12:36:25.826Z</time>
      </trkpt>
      <trkpt lat="49.29521" lon="1.16519">
        <ele>64</ele>
        <time>2025-09-09T12:36:30.826Z</time>
      </trkpt>
      <trkpt lat="49.29516" lon="1.16519">
        <ele>64</ele>
        <time>2025-09-09T12:36:35.617Z</time>
      </trkpt>
      <trkpt lat="49.2951" lon="1.1652">
        <ele>67</ele>
        <time>2025-09-09T12:36:40.172Z</time>
      </trkpt>
      <trkpt lat="49.29505" lon="1.16521">
        <ele>67</ele>
        <time>2025-09-09T12:36:44.471Z</time>
      </trkpt>
      <trkpt lat="49.29499" lon="1.16521">
        <ele>67</ele>
        <time>2025-09-09T12:36:48.826Z</time>
      </trkpt>
      <trkpt lat="49.29494" lon="1.16524">
        <ele>67</ele>
        <time>2025-09-09T12:36:53.352Z</time>
      </trkpt>
      <trkpt lat="49.29488" lon="1.16524">
        <ele>67</ele>
        <time>2025-09-09T12:36:57.830Z</time>
      </trkpt>
      <trkpt lat="49.29483" lon="1.16524">
        <ele>70</ele>
        <time>2025-09-09T12:37:02.449Z</time>
      </trkpt>
      <trkpt lat="49.29478" lon="1.16525">
        <ele>70</ele>
        <time>2025-09-09T12:37:06.672Z</time>
      </trkpt>
      <trkpt lat="49.29473" lon="1.16526">
        <ele>70</ele>
        <time>2025-09-09T12:37:10.789Z</time>
      </trkpt>
      <trkpt lat="49.29467" lon="1.16527">
        <ele>70</ele>
        <time>2025-09-09T12:37:15.031Z</time>
      </trkpt>
      <trkpt lat="49.29462" lon="1.16528">
        <ele>70</ele>
        <time>2025-09-09T12:37:19.492Z</time>
      </trkpt>
      <trkpt lat="49.29456" lon="1.16531">
        <ele>70</ele>
        <time>2025-09-09T12:37:23.794Z</time>
      </trkpt>
      <trkpt lat="49.29452" lon="1.16532">
        <ele>70</ele>
        <time>2025-09-09T12:37:27.826Z</time>
      </trkpt>
      <trkpt lat="49.29446" lon="1.16533">
        <ele>70</ele>
        <time>2025-09-09T12:37:32.826Z</time>
      </trkpt>
      <trkpt lat="49.2944" lon="1.16534">
        <ele>70</ele>
        <time>2025-09-09T12:37:37.826Z</time>
      </trkpt>
      <trkpt lat="49.29435" lon="1.16534">
        <ele>70</ele>
        <time>2025-09-09T12:37:41.826Z</time>
      </trkpt>
      <trkpt lat="49.2943" lon="1.16535">
        <ele>70</ele>
        <time>2025-09-09T12:37:46.318Z</time>
      </trkpt>
      <trkpt lat="49.29425" lon="1.16536">
        <ele>70</ele>
        <time>2025-09-09T12:37:50.355Z</time>
      </trkpt>
      <trkpt lat="49.2942" lon="1.16537">
        <ele>70</ele>
        <time>2025-09-09T12:37:54.428Z</time>
      </trkpt>
      <trkpt lat="49.29414" lon="1.16537">
        <ele>70</ele>
        <time>2025-09-09T12:37:59.574Z</time>
      </trkpt>
      <trkpt lat="49.29409" lon="1.16538">
        <ele>70</ele>
        <time>2025-09-09T12:38:03.826Z</time>
      </trkpt>
      <trkpt lat="49.29403" lon="1.16539">
        <ele>70</ele>
        <time>2025-09-09T12:38:08.749Z</time>
      </trkpt>
      <trkpt lat="49.29398" lon="1.16539">
        <ele>71</ele>
        <time>2025-09-09T12:38:12.826Z</time>
      </trkpt>
      <trkpt lat="49.29392" lon="1.16539">
        <ele>71</ele>
        <time>2025-09-09T12:38:17.777Z</time>
      </trkpt>
      <trkpt lat="49.29386" lon="1.1654">
        <ele>71</ele>
        <time>2025-09-09T12:38:22.597Z</time>
      </trkpt>
      <trkpt lat="49.29381" lon="1.16541">
        <ele>71</ele>
        <time>2025-09-09T12:38:27.250Z</time>
      </trkpt>
      <trkpt lat="49.29376" lon="1.16542">
        <ele>71</ele>
        <time>2025-09-09T12:38:31.826Z</time>
      </trkpt>
      <trkpt lat="49.2937" lon="1.16543">
        <ele>71</ele>
        <time>2025-09-09T12:38:36.575Z</time>
      </trkpt>
      <trkpt lat="49.29365" lon="1.16544">
        <ele>71</ele>
        <time>2025-09-09T12:38:41.254Z</time>
      </trkpt>
      <trkpt lat="49.29359" lon="1.16545">
        <ele>71</ele>
        <time>2025-09-09T12:38:45.826Z</time>
      </trkpt>
      <trkpt lat="49.29354" lon="1.16546">
        <ele>71</ele>
        <time>2025-09-09T12:38:50.571Z</time>
      </trkpt>
      <trkpt lat="49.29348" lon="1.16546">
        <ele>71</ele>
        <time>2025-09-09T12:38:55.190Z</time>
      </trkpt>
      <trkpt lat="49.29343" lon="1.16547">
        <ele>71</ele>
        <time>2025-09-09T12:38:59.695Z</time>
      </trkpt>
      <trkpt lat="49.2934" lon="1.16546">
        <ele>71</ele>
        <time>2025-09-09T12:39:03.873Z</time>
      </trkpt>
      <trkpt lat="49.29335" lon="1.16547">
        <ele>71</ele>
        <time>2025-09-09T12:39:08.493Z</time>
      </trkpt>
      <trkpt lat="49.2933" lon="1.16548">
        <ele>71</ele>
        <time>2025-09-09T12:39:12.826Z</time>
      </trkpt>
      <trkpt lat="49.29325" lon="1.16549">
        <ele>71</ele>
        <time>2025-09-09T12:39:17.430Z</time>
      </trkpt>
      <trkpt lat="49.2932" lon="1.1655">
        <ele>71</ele>
        <time>2025-09-09T12:39:21.826Z</time>
      </trkpt>
      <trkpt lat="49.29314" lon="1.16551">
        <ele>70</ele>
        <time>2025-09-09T12:39:26.755Z</time>
      </trkpt>
      <trkpt lat="49.29309" lon="1.16552">
        <ele>70</ele>
        <time>2025-09-09T12:39:30.826Z</time>
      </trkpt>
      <trkpt lat="49.29305" lon="1.16554">
        <ele>70</ele>
        <time>2025-09-09T12:39:35.614Z</time>
      </trkpt>
      <trkpt lat="49.29301" lon="1.16555">
        <ele>70</ele>
        <time>2025-09-09T12:39:39.734Z</time>
      </trkpt>
      <trkpt lat="49.29296" lon="1.16555">
        <ele>70</ele>
        <time>2025-09-09T12:39:43.826Z</time>
      </trkpt>
      <trkpt lat="49.29291" lon="1.16557">
        <ele>71</ele>
        <time>2025-09-09T12:39:48.390Z</time>
      </trkpt>
      <trkpt lat="49.29286" lon="1.16558">
        <ele>71</ele>
        <time>2025-09-09T12:39:52.826Z</time>
      </trkpt>
      <trkpt lat="49.29281" lon="1.16558">
        <ele>71</ele>
        <time>2025-09-09T12:39:57.532Z</time>
      </trkpt>
      <trkpt lat="49.29276" lon="1.16558">
        <ele>71</ele>
        <time>2025-09-09T12:40:02.317Z</time>
      </trkpt>
      <trkpt lat="49.2927" lon="1.1656">
        <ele>71</ele>
        <time>2025-09-09T12:40:06.826Z</time>
      </trkpt>
      <trkpt lat="49.29264" lon="1.16561">
        <ele>71</ele>
        <time>2025-09-09T12:40:11.694Z</time>
      </trkpt>
      <trkpt lat="49.29259" lon="1.16561">
        <ele>71</ele>
        <time>2025-09-09T12:40:16.717Z</time>
      </trkpt>
      <trkpt lat="49.29254" lon="1.16561">
        <ele>71</ele>
        <time>2025-09-09T12:40:20.826Z</time>
      </trkpt>
      <trkpt lat="49.29247" lon="1.16562">
        <ele>71</ele>
        <time>2025-09-09T12:40:25.797Z</time>
      </trkpt>
      <trkpt lat="49.29243" lon="1.16562">
        <ele>71</ele>
        <time>2025-09-09T12:40:29.826Z</time>
      </trkpt>
      <trkpt lat="49.29238" lon="1.16564">
        <ele>71</ele>
        <time>2025-09-09T12:40:33.826Z</time>
      </trkpt>
      <trkpt lat="49.29234" lon="1.16565">
        <ele>72</ele>
        <time>2025-09-09T12:40:37.895Z</time>
      </trkpt>
      <trkpt lat="49.29229" lon="1.16565">
        <ele>72</ele>
        <time>2025-09-09T12:40:42.496Z</time>
      </trkpt>
      <trkpt lat="49.29224" lon="1.16566">
        <ele>72</ele>
        <time>2025-09-09T12:40:46.790Z</time>
      </trkpt>
      <trkpt lat="49.2922" lon="1.16567">
        <ele>72</ele>
        <time>2025-09-09T12:40:50.826Z</time>
      </trkpt>
      <trkpt lat="49.29216" lon="1.16568">
        <ele>72</ele>
        <time>2025-09-09T12:40:54.826Z</time>
      </trkpt>
      <trkpt lat="49.29215" lon="1.16568">
        <ele>72</ele>
        <time>2025-09-09T12:40:59.714Z</time>
      </trkpt>
      <trkpt lat="49.29214" lon="1.16569">
        <ele>72</ele>
        <time>2025-09-09T12:41:03.826Z</time>
      </trkpt>
      <trkpt lat="49.2921" lon="1.16575">
        <ele>72</ele>
        <time>2025-09-09T12:41:08.826Z</time>
      </trkpt>
      <trkpt lat="49.29208" lon="1.16583">
        <ele>74</ele>
        <time>2025-09-09T12:41:13.574Z</time>
      </trkpt>
      <trkpt lat="49.2921" lon="1.1659">
        <ele>72</ele>
        <time>2025-09-09T12:41:17.826Z</time>
      </trkpt>
      <trkpt lat="49.29209" lon="1.16595">
        <ele>72</ele>
        <time>2025-09-09T12:41:21.826Z</time>
      </trkpt>
      <trkpt lat="49.29209" lon="1.16596">
        <ele>72</ele>
        <time>2025-09-09T12:41:26.412Z</time>
      </trkpt>
      <trkpt lat="49.29212" lon="1.16606">
        <ele>73</ele>
        <time>2025-09-09T12:41:30.715Z</time>
      </trkpt>
      <trkpt lat="49.29214" lon="1.16614">
        <ele>73</ele>
        <time>2025-09-09T12:41:35.413Z</time>
      </trkpt>
      <trkpt lat="49.29215" lon="1.16621">
        <ele>73</ele>
        <time>2025-09-09T12:41:39.826Z</time>
      </trkpt>
      <trkpt lat="49.29215" lon="1.16628">
        <ele>74</ele>
        <time>2025-09-09T12:41:44.826Z</time>
      </trkpt>
      <trkpt lat="49.29214" lon="1.16636">
        <ele>74</ele>
        <time>2025-09-09T12:41:49.654Z</time>
      </trkpt>
      <trkpt lat="49.29213" lon="1.16645">
        <ele>74</ele>
        <time>2025-09-09T12:41:54.633Z</time>
      </trkpt>
      <trkpt lat="49.29214" lon="1.16652">
        <ele>74</ele>
        <time>2025-09-09T12:41:58.826Z</time>
      </trkpt>
      <trkpt lat="49.29214" lon="1.1666">
        <ele>74</ele>
        <time>2025-09-09T12:42:03.668Z</time>
      </trkpt>
      <trkpt lat="49.29215" lon="1.16667">
        <ele>74</ele>
        <time>2025-09-09T12:42:07.826Z</time>
      </trkpt>
      <trkpt lat="49.29216" lon="1.16675">
        <ele>74</ele>
        <time>2025-09-09T12:42:11.826Z</time>
      </trkpt>
      <trkpt lat="49.29218" lon="1.1668">
        <ele>74</ele>
        <time>2025-09-09T12:42:15.826Z</time>
      </trkpt>
      <trkpt lat="49.29219" lon="1.16686">
        <ele>74</ele>
        <time>2025-09-09T12:42:20.027Z</time>
      </trkpt>
      <trkpt lat="49.29219" lon="1.16696">
        <ele>74</ele>
        <time>2025-09-09T12:42:24.826Z</time>
      </trkpt>
      <trkpt lat="49.29218" lon="1.16704">
        <ele>74</ele>
        <time>2025-09-09T12:42:29.826Z</time>
      </trkpt>
      <trkpt lat="49.29218" lon="1.16712">
        <ele>74</ele>
        <time>2025-09-09T12:42:34.498Z</time>
      </trkpt>
      <trkpt lat="49.29218" lon="1.16721">
        <ele>74</ele>
        <time>2025-09-09T12:42:39.193Z</time>
      </trkpt>
      <trkpt lat="49.29219" lon="1.16727">
        <ele>74</ele>
        <time>2025-09-09T12:42:43.549Z</time>
      </trkpt>
      <trkpt lat="49.2922" lon="1.16733">
        <ele>74</ele>
        <time>2025-09-09T12:42:47.826Z</time>
      </trkpt>
      <trkpt lat="49.29221" lon="1.16741">
        <ele>74</ele>
        <time>2025-09-09T12:42:52.276Z</time>
      </trkpt>
      <trkpt lat="49.29221" lon="1.16749">
        <ele>74</ele>
        <time>2025-09-09T12:42:56.826Z</time>
      </trkpt>
      <trkpt lat="49.29221" lon="1.16757">
        <ele>74</ele>
        <time>2025-09-09T12:43:01.674Z</time>
      </trkpt>
      <trkpt lat="49.29221" lon="1.16764">
        <ele>74</ele>
        <time>2025-09-09T12:43:06.317Z</time>
      </trkpt>
      <trkpt lat="49.29222" lon="1.16772">
        <ele>74</ele>
        <time>2025-09-09T12:43:10.826Z</time>
      </trkpt>
      <trkpt lat="49.29222" lon="1.16782">
        <ele>74</ele>
        <time>2025-09-09T12:43:15.677Z</time>
      </trkpt>
      <trkpt lat="49.29222" lon="1.16788">
        <ele>74</ele>
        <time>2025-09-09T12:43:20.086Z</time>
      </trkpt>
      <trkpt lat="49.29223" lon="1.16797">
        <ele>74</ele>
        <time>2025-09-09T12:43:24.826Z</time>
      </trkpt>
      <trkpt lat="49.29223" lon="1.16806">
        <ele>74</ele>
        <time>2025-09-09T12:43:29.813Z</time>
      </trkpt>
      <trkpt lat="49.29224" lon="1.16813">
        <ele>74</ele>
        <time>2025-09-09T12:43:33.826Z</time>
      </trkpt>
      <trkpt lat="49.29225" lon="1.1682">
        <ele>74</ele>
        <time>2025-09-09T12:43:37.826Z</time>
      </trkpt>
      <trkpt lat="49.29225" lon="1.16829">
        <ele>74</ele>
        <time>2025-09-09T12:43:42.826Z</time>
      </trkpt>
      <trkpt lat="49.29226" lon="1.16838">
        <ele>74</ele>
        <time>2025-09-09T12:43:47.594Z</time>
      </trkpt>
      <trkpt lat="49.29226" lon="1.16846">
        <ele>74</ele>
        <time>2025-09-09T12:43:51.826Z</time>
      </trkpt>
      <trkpt lat="49.29229" lon="1.16851">
        <ele>74</ele>
        <time>2025-09-09T12:43:56.550Z</time>
      </trkpt>
      <trkpt lat="49.29229" lon="1.16859">
        <ele>74</ele>
        <time>2025-09-09T12:44:00.791Z</time>
      </trkpt>
      <trkpt lat="49.2923" lon="1.16868">
        <ele>74</ele>
        <time>2025-09-09T12:44:05.489Z</time>
      </trkpt>
      <trkpt lat="49.2923" lon="1.16876">
        <ele>74</ele>
        <time>2025-09-09T12:44:09.826Z</time>
      </trkpt>
      <trkpt lat="49.2923" lon="1.16885">
        <ele>74</ele>
        <time>2025-09-09T12:44:14.826Z</time>
      </trkpt>
      <trkpt lat="49.2923" lon="1.16892">
        <ele>74</ele>
        <time>2025-09-09T12:44:18.826Z</time>
      </trkpt>
      <trkpt lat="49.29232" lon="1.169">
        <ele>74</ele>
        <time>2025-09-09T12:44:23.270Z</time>
      </trkpt>
      <trkpt lat="49.29233" lon="1.16908">
        <ele>74</ele>
        <time>2025-09-09T12:44:27.521Z</time>
      </trkpt>
      <trkpt lat="49.29233" lon="1.16915">
        <ele>74</ele>
        <time>2025-09-09T12:44:31.826Z</time>
      </trkpt>
      <trkpt lat="49.29233" lon="1.16923">
        <ele>74</ele>
        <time>2025-09-09T12:44:35.826Z</time>
      </trkpt>
      <trkpt lat="49.29234" lon="1.1693">
        <ele>74</ele>
        <time>2025-09-09T12:44:40.166Z</time>
      </trkpt>
      <trkpt lat="49.29235" lon="1.16938">
        <ele>74</ele>
        <time>2025-09-09T12:44:44.826Z</time>
      </trkpt>
      <trkpt lat="49.29234" lon="1.16947">
        <ele>74</ele>
        <time>2025-09-09T12:44:49.630Z</time>
      </trkpt>
      <trkpt lat="49.29238" lon="1.16958">
        <ele>72</ele>
        <time>2025-09-09T12:45:03.826Z</time>
      </trkpt>
      <trkpt lat="49.29239" lon="1.16958">
        <ele>72</ele>
        <time>2025-09-09T12:45:08.826Z</time>
      </trkpt>
      <trkpt lat="49.29239" lon="1.16958">
        <ele>72</ele>
        <time>2025-09-09T12:45:13.531Z</time>
      </trkpt>
      <trkpt lat="49.29238" lon="1.16963">
        <ele>72</ele>
        <time>2025-09-09T12:45:17.826Z</time>
      </trkpt>
      <trkpt lat="49.29236" lon="1.16972">
        <ele>72</ele>
        <time>2025-09-09T12:45:22.718Z</time>
      </trkpt>
      <trkpt lat="49.29236" lon="1.1698">
        <ele>74</ele>
        <time>2025-09-09T12:45:27.475Z</time>
      </trkpt>
      <trkpt lat="49.29237" lon="1.16987">
        <ele>73</ele>
        <time>2025-09-09T12:45:31.826Z</time>
      </trkpt>
      <trkpt lat="49.29239" lon="1.16994">
        <ele>73</ele>
        <time>2025-09-09T12:45:36.809Z</time>
      </trkpt>
      <trkpt lat="49.2924" lon="1.17002">
        <ele>73</ele>
        <time>2025-09-09T12:45:41.411Z</time>
      </trkpt>
      <trkpt lat="49.2924" lon="1.17009">
        <ele>73</ele>
        <time>2025-09-09T12:45:45.826Z</time>
      </trkpt>
      <trkpt lat="49.29241" lon="1.17015">
        <ele>73</ele>
        <time>2025-09-09T12:45:49.826Z</time>
      </trkpt>
      <trkpt lat="49.29241" lon="1.17024">
        <ele>73</ele>
        <time>2025-09-09T12:45:54.529Z</time>
      </trkpt>
      <trkpt lat="49.29241" lon="1.17032">
        <ele>73</ele>
        <time>2025-09-09T12:45:59.174Z</time>
      </trkpt>
      <trkpt lat="49.29241" lon="1.1704">
        <ele>73</ele>
        <time>2025-09-09T12:46:03.826Z</time>
      </trkpt>
      <trkpt lat="49.29239" lon="1.17047">
        <ele>73</ele>
        <time>2025-09-09T12:46:07.826Z</time>
      </trkpt>
      <trkpt lat="49.29236" lon="1.17048">
        <ele>73</ele>
        <time>2025-09-09T12:46:12.530Z</time>
      </trkpt>
      <trkpt lat="49.29231" lon="1.17051">
        <ele>73</ele>
        <time>2025-09-09T12:46:16.710Z</time>
      </trkpt>
      <trkpt lat="49.29227" lon="1.17051">
        <ele>73</ele>
        <time>2025-09-09T12:46:20.826Z</time>
      </trkpt>
      <trkpt lat="49.29222" lon="1.17051">
        <ele>73</ele>
        <time>2025-09-09T12:46:25.430Z</time>
      </trkpt>
      <trkpt lat="49.29222" lon="1.17056">
        <ele>73</ele>
        <time>2025-09-09T12:46:29.826Z</time>
      </trkpt>
      <trkpt lat="49.29217" lon="1.17055">
        <ele>73</ele>
        <time>2025-09-09T12:46:34.315Z</time>
      </trkpt>
      <trkpt lat="49.29211" lon="1.17055">
        <ele>73</ele>
        <time>2025-09-09T12:46:38.810Z</time>
      </trkpt>
      <trkpt lat="49.29206" lon="1.17052">
        <ele>74</ele>
        <time>2025-09-09T12:46:43.569Z</time>
      </trkpt>
      <trkpt lat="49.29202" lon="1.17049">
        <ele>74</ele>
        <time>2025-09-09T12:46:48.391Z</time>
      </trkpt>
      <trkpt lat="49.29197" lon="1.17047">
        <ele>74</ele>
        <time>2025-09-09T12:46:52.826Z</time>
      </trkpt>
      <trkpt lat="49.29191" lon="1.17044">
        <ele>74</ele>
        <time>2025-09-09T12:46:57.826Z</time>
      </trkpt>
      <trkpt lat="49.29185" lon="1.17042">
        <ele>74</ele>
        <time>2025-09-09T12:47:02.538Z</time>
      </trkpt>
      <trkpt lat="49.2918" lon="1.17041">
        <ele>75</ele>
        <time>2025-09-09T12:47:07.234Z</time>
      </trkpt>
      <trkpt lat="49.29174" lon="1.1704">
        <ele>75</ele>
        <time>2025-09-09T12:47:11.826Z</time>
      </trkpt>
      <trkpt lat="49.29169" lon="1.17038">
        <ele>75</ele>
        <time>2025-09-09T12:47:16.077Z</time>
      </trkpt>
      <trkpt lat="49.29164" lon="1.17037">
        <ele>75</ele>
        <time>2025-09-09T12:47:20.355Z</time>
      </trkpt>
      <trkpt lat="49.29159" lon="1.17035">
        <ele>75</ele>
        <time>2025-09-09T12:47:24.610Z</time>
      </trkpt>
      <trkpt lat="49.29153" lon="1.17033">
        <ele>75</ele>
        <time>2025-09-09T12:47:29.228Z</time>
      </trkpt>
      <trkpt lat="49.29148" lon="1.17032">
        <ele>76</ele>
        <time>2025-09-09T12:47:33.437Z</time>
      </trkpt>
      <trkpt lat="49.29143" lon="1.17031">
        <ele>76</ele>
        <time>2025-09-09T12:47:37.826Z</time>
      </trkpt>
      <trkpt lat="49.29138" lon="1.17029">
        <ele>76</ele>
        <time>2025-09-09T12:47:42.270Z</time>
      </trkpt>
      <trkpt lat="49.29133" lon="1.17027">
        <ele>76</ele>
        <time>2025-09-09T12:47:46.712Z</time>
      </trkpt>
      <trkpt lat="49.29128" lon="1.17025">
        <ele>76</ele>
        <time>2025-09-09T12:47:50.826Z</time>
      </trkpt>
      <trkpt lat="49.29123" lon="1.17024">
        <ele>77</ele>
        <time>2025-09-09T12:47:55.518Z</time>
      </trkpt>
      <trkpt lat="49.29118" lon="1.17022">
        <ele>77</ele>
        <time>2025-09-09T12:47:59.550Z</time>
      </trkpt>
      <trkpt lat="49.29112" lon="1.1702">
        <ele>77</ele>
        <time>2025-09-09T12:48:04.554Z</time>
      </trkpt>
      <trkpt lat="49.29107" lon="1.17019">
        <ele>77</ele>
        <time>2025-09-09T12:48:08.812Z</time>
      </trkpt>
      <trkpt lat="49.29102" lon="1.17019">
        <ele>77</ele>
        <time>2025-09-09T12:48:13.290Z</time>
      </trkpt>
      <trkpt lat="49.29097" lon="1.17019">
        <ele>77</ele>
        <time>2025-09-09T12:48:17.826Z</time>
      </trkpt>
      <trkpt lat="49.29096" lon="1.17028">
        <ele>77</ele>
        <time>2025-09-09T12:48:22.826Z</time>
      </trkpt>
      <trkpt lat="49.29097" lon="1.17036">
        <ele>77</ele>
        <time>2025-09-09T12:48:27.577Z</time>
      </trkpt>
      <trkpt lat="49.29097" lon="1.17043">
        <ele>75</ele>
        <time>2025-09-09T12:48:31.826Z</time>
      </trkpt>
      <trkpt lat="49.29097" lon="1.17051">
        <ele>76</ele>
        <time>2025-09-09T12:48:35.988Z</time>
      </trkpt>
      <trkpt lat="49.29096" lon="1.17058">
        <ele>76</ele>
        <time>2025-09-09T12:48:40.291Z</time>
      </trkpt>
      <trkpt lat="49.29097" lon="1.17064">
        <ele>76</ele>
        <time>2025-09-09T12:48:44.826Z</time>
      </trkpt>
      <trkpt lat="49.29096" lon="1.17069">
        <ele>76</ele>
        <time>2025-09-09T12:48:48.826Z</time>
      </trkpt>
      <trkpt lat="49.29096" lon="1.17078">
        <ele>75</ele>
        <time>2025-09-09T12:48:53.615Z</time>
      </trkpt>
      <trkpt lat="49.29094" lon="1.17086">
        <ele>75</ele>
        <time>2025-09-09T12:48:57.826Z</time>
      </trkpt>
      <trkpt lat="49.29091" lon="1.17095">
        <ele>75</ele>
        <time>2025-09-09T12:49:02.827Z</time>
      </trkpt>
      <trkpt lat="49.29088" lon="1.17101">
        <ele>74</ele>
        <time>2025-09-09T12:49:06.827Z</time>
      </trkpt>
      <trkpt lat="49.29087" lon="1.17109">
        <ele>74</ele>
        <time>2025-09-09T12:49:11.809Z</time>
      </trkpt>
      <trkpt lat="49.29087" lon="1.17116">
        <ele>74</ele>
        <time>2025-09-09T12:49:15.827Z</time>
      </trkpt>
      <trkpt lat="49.29085" lon="1.17123">
        <ele>74</ele>
        <time>2025-09-09T12:49:20.221Z</time>
      </trkpt>
      <trkpt lat="49.29085" lon="1.17131">
        <ele>74</ele>
        <time>2025-09-09T12:49:24.357Z</time>
      </trkpt>
      <trkpt lat="49.29083" lon="1.17138">
        <ele>74</ele>
        <time>2025-09-09T12:49:28.827Z</time>
      </trkpt>
      <trkpt lat="49.29085" lon="1.17145">
        <ele>74</ele>
        <time>2025-09-09T12:49:33.825Z</time>
      </trkpt>
      <trkpt lat="49.29083" lon="1.17153">
        <ele>74</ele>
        <time>2025-09-09T12:49:37.827Z</time>
      </trkpt>
      <trkpt lat="49.29082" lon="1.17161">
        <ele>74</ele>
        <time>2025-09-09T12:49:42.827Z</time>
      </trkpt>
      <trkpt lat="49.29081" lon="1.17167">
        <ele>74</ele>
        <time>2025-09-09T12:49:47.069Z</time>
      </trkpt>
      <trkpt lat="49.29081" lon="1.17174">
        <ele>74</ele>
        <time>2025-09-09T12:49:51.827Z</time>
      </trkpt>
      <trkpt lat="49.29078" lon="1.17182">
        <ele>74</ele>
        <time>2025-09-09T12:49:55.827Z</time>
      </trkpt>
      <trkpt lat="49.29076" lon="1.17191">
        <ele>74</ele>
        <time>2025-09-09T12:50:00.791Z</time>
      </trkpt>
      <trkpt lat="49.29075" lon="1.17197">
        <ele>74</ele>
        <time>2025-09-09T12:50:04.827Z</time>
      </trkpt>
      <trkpt lat="49.29075" lon="1.17204">
        <ele>74</ele>
        <time>2025-09-09T12:50:08.827Z</time>
      </trkpt>
      <trkpt lat="49.29075" lon="1.17212">
        <ele>74</ele>
        <time>2025-09-09T12:50:13.490Z</time>
      </trkpt>
      <trkpt lat="49.29074" lon="1.1722">
        <ele>74</ele>
        <time>2025-09-09T12:50:17.827Z</time>
      </trkpt>
      <trkpt lat="49.29073" lon="1.17229">
        <ele>74</ele>
        <time>2025-09-09T12:50:22.635Z</time>
      </trkpt>
      <trkpt lat="49.29073" lon="1.17237">
        <ele>73</ele>
        <time>2025-09-09T12:50:27.254Z</time>
      </trkpt>
      <trkpt lat="49.29071" lon="1.17245">
        <ele>73</ele>
        <time>2025-09-09T12:50:31.827Z</time>
      </trkpt>
      <trkpt lat="49.29071" lon="1.17253">
        <ele>73</ele>
        <time>2025-09-09T12:50:36.334Z</time>
      </trkpt>
      <trkpt lat="49.2907" lon="1.17262">
        <ele>73</ele>
        <time>2025-09-09T12:50:40.827Z</time>
      </trkpt>
      <trkpt lat="49.2907" lon="1.17269">
        <ele>72</ele>
        <time>2025-09-09T12:50:45.269Z</time>
      </trkpt>
      <trkpt lat="49.29068" lon="1.17266">
        <ele>74</ele>
        <time>2025-09-09T12:50:49.827Z</time>
      </trkpt>
      <trkpt lat="49.29069" lon="1.17267">
        <ele>74</ele>
        <time>2025-09-09T12:50:53.994Z</time>
      </trkpt>
      <trkpt lat="49.29071" lon="1.17274">
        <ele>72</ele>
        <time>2025-09-09T12:50:58.809Z</time>
      </trkpt>
      <trkpt lat="49.29073" lon="1.17286">
        <ele>72</ele>
        <time>2025-09-09T12:51:03.533Z</time>
      </trkpt>
      <trkpt lat="49.29071" lon="1.17296">
        <ele>72</ele>
        <time>2025-09-09T12:51:08.231Z</time>
      </trkpt>
      <trkpt lat="49.29069" lon="1.17304">
        <ele>74</ele>
        <time>2025-09-09T12:51:12.411Z</time>
      </trkpt>
      <trkpt lat="49.29067" lon="1.17312">
        <ele>74</ele>
        <time>2025-09-09T12:51:16.432Z</time>
      </trkpt>
      <trkpt lat="49.29065" lon="1.17318">
        <ele>74</ele>
        <time>2025-09-09T12:51:20.827Z</time>
      </trkpt>
      <trkpt lat="49.29063" lon="1.17328">
        <ele>75</ele>
        <time>2025-09-09T12:51:25.827Z</time>
      </trkpt>
      <trkpt lat="49.29062" lon="1.17336">
        <ele>75</ele>
        <time>2025-09-09T12:51:30.827Z</time>
      </trkpt>
      <trkpt lat="49.29061" lon="1.17345">
        <ele>75</ele>
        <time>2025-09-09T12:51:35.751Z</time>
      </trkpt>
      <trkpt lat="49.29059" lon="1.17352">
        <ele>75</ele>
        <time>2025-09-09T12:51:39.827Z</time>
      </trkpt>
      <trkpt lat="49.29058" lon="1.17361">
        <ele>75</ele>
        <time>2025-09-09T12:51:44.827Z</time>
      </trkpt>
      <trkpt lat="49.29058" lon="1.1737">
        <ele>75</ele>
        <time>2025-09-09T12:51:49.772Z</time>
      </trkpt>
      <trkpt lat="49.29057" lon="1.17377">
        <ele>76</ele>
        <time>2025-09-09T12:51:53.827Z</time>
      </trkpt>
      <trkpt lat="49.29056" lon="1.17385">
        <ele>76</ele>
        <time>2025-09-09T12:51:58.496Z</time>
      </trkpt>
      <trkpt lat="49.29054" lon="1.17392">
        <ele>76</ele>
        <time>2025-09-09T12:52:02.827Z</time>
      </trkpt>
      <trkpt lat="49.29051" lon="1.174">
        <ele>76</ele>
        <time>2025-09-09T12:52:07.827Z</time>
      </trkpt>
      <trkpt lat="49.29049" lon="1.17406">
        <ele>76</ele>
        <time>2025-09-09T12:52:12.531Z</time>
      </trkpt>
      <trkpt lat="49.29047" lon="1.17414">
        <ele>76</ele>
        <time>2025-09-09T12:52:17.254Z</time>
      </trkpt>
      <trkpt lat="49.29047" lon="1.17422">
        <ele>76</ele>
        <time>2025-09-09T12:52:21.276Z</time>
      </trkpt>
      <trkpt lat="49.29044" lon="1.17426">
        <ele>76</ele>
        <time>2025-09-09T12:52:25.596Z</time>
      </trkpt>
      <trkpt lat="49.29042" lon="1.17427">
        <ele>76</ele>
        <time>2025-09-09T12:52:29.827Z</time>
      </trkpt>
      <trkpt lat="49.29039" lon="1.17425">
        <ele>76</ele>
        <time>2025-09-09T12:52:34.460Z</time>
      </trkpt>
      <trkpt lat="49.29033" lon="1.17423">
        <ele>76</ele>
        <time>2025-09-09T12:52:38.827Z</time>
      </trkpt>
      <trkpt lat="49.29028" lon="1.17423">
        <ele>76</ele>
        <time>2025-09-09T12:52:43.827Z</time>
      </trkpt>
      <trkpt lat="49.29024" lon="1.17421">
        <ele>76</ele>
        <time>2025-09-09T12:52:47.827Z</time>
      </trkpt>
      <trkpt lat="49.29019" lon="1.17421">
        <ele>76</ele>
        <time>2025-09-09T12:52:52.827Z</time>
      </trkpt>
      <trkpt lat="49.29014" lon="1.17421">
        <ele>76</ele>
        <time>2025-09-09T12:52:56.826Z</time>
      </trkpt>
      <trkpt lat="49.29009" lon="1.17421">
        <ele>77</ele>
        <time>2025-09-09T12:53:01.827Z</time>
      </trkpt>
      <trkpt lat="49.29003" lon="1.1742">
        <ele>77</ele>
        <time>2025-09-09T12:53:06.826Z</time>
      </trkpt>
      <trkpt lat="49.28997" lon="1.1742">
        <ele>77</ele>
        <time>2025-09-09T12:53:11.555Z</time>
      </trkpt>
      <trkpt lat="49.28993" lon="1.1742">
        <ele>77</ele>
        <time>2025-09-09T12:53:15.555Z</time>
      </trkpt>
      <trkpt lat="49.28989" lon="1.1742">
        <ele>77</ele>
        <time>2025-09-09T12:53:19.779Z</time>
      </trkpt>
      <trkpt lat="49.28984" lon="1.1742">
        <ele>79</ele>
        <time>2025-09-09T12:53:23.827Z</time>
      </trkpt>
      <trkpt lat="49.28978" lon="1.17421">
        <ele>79</ele>
        <time>2025-09-09T12:53:28.560Z</time>
      </trkpt>
      <trkpt lat="49.28973" lon="1.1742">
        <ele>79</ele>
        <time>2025-09-09T12:53:33.696Z</time>
      </trkpt>
      <trkpt lat="49.28968" lon="1.1742">
        <ele>79</ele>
        <time>2025-09-09T12:53:37.827Z</time>
      </trkpt>
      <trkpt lat="49.28962" lon="1.17418">
        <ele>79</ele>
        <time>2025-09-09T12:53:42.827Z</time>
      </trkpt>
      <trkpt lat="49.28956" lon="1.17418">
        <ele>79</ele>
        <time>2025-09-09T12:53:47.456Z</time>
      </trkpt>
      <trkpt lat="49.2895" lon="1.17418">
        <ele>79</ele>
        <time>2025-09-09T12:53:51.827Z</time>
      </trkpt>
      <trkpt lat="49.28945" lon="1.17418">
        <ele>79</ele>
        <time>2025-09-09T12:53:56.294Z</time>
      </trkpt>
      <trkpt lat="49.28939" lon="1.17418">
        <ele>79</ele>
        <time>2025-09-09T12:54:00.827Z</time>
      </trkpt>
      <trkpt lat="49.28934" lon="1.17417">
        <ele>79</ele>
        <time>2025-09-09T12:54:05.827Z</time>
      </trkpt>
      <trkpt lat="49.2893" lon="1.17416">
        <ele>79</ele>
        <time>2025-09-09T12:54:09.827Z</time>
      </trkpt>
      <trkpt lat="49.28925" lon="1.17416">
        <ele>79</ele>
        <time>2025-09-09T12:54:14.614Z</time>
      </trkpt>
      <trkpt lat="49.2892" lon="1.17415">
        <ele>79</ele>
        <time>2025-09-09T12:54:18.827Z</time>
      </trkpt>
      <trkpt lat="49.28914" lon="1.17415">
        <ele>79</ele>
        <time>2025-09-09T12:54:23.827Z</time>
      </trkpt>
      <trkpt lat="49.28909" lon="1.17414">
        <ele>79</ele>
        <time>2025-09-09T12:54:28.827Z</time>
      </trkpt>
      <trkpt lat="49.28904" lon="1.17414">
        <ele>79</ele>
        <time>2025-09-09T12:54:33.673Z</time>
      </trkpt>
      <trkpt lat="49.28899" lon="1.17413">
        <ele>78</ele>
        <time>2025-09-09T12:54:37.827Z</time>
      </trkpt>
      <trkpt lat="49.28894" lon="1.17413">
        <ele>78</ele>
        <time>2025-09-09T12:54:41.970Z</time>
      </trkpt>
      <trkpt lat="49.28889" lon="1.17413">
        <ele>78</ele>
        <time>2025-09-09T12:54:46.295Z</time>
      </trkpt>
      <trkpt lat="49.28885" lon="1.17412">
        <ele>78</ele>
        <time>2025-09-09T12:54:50.537Z</time>
      </trkpt>
      <trkpt lat="49.28879" lon="1.17411">
        <ele>78</ele>
        <time>2025-09-09T12:54:55.656Z</time>
      </trkpt>
      <trkpt lat="49.28874" lon="1.17412">
        <ele>78</ele>
        <time>2025-09-09T12:55:00.539Z</time>
      </trkpt>
      <trkpt lat="49.28869" lon="1.17411">
        <ele>78</ele>
        <time>2025-09-09T12:55:04.827Z</time>
      </trkpt>
      <trkpt lat="49.28864" lon="1.1741">
        <ele>78</ele>
        <time>2025-09-09T12:55:09.558Z</time>
      </trkpt>
      <trkpt lat="49.28859" lon="1.1741">
        <ele>78</ele>
        <time>2025-09-09T12:55:13.827Z</time>
      </trkpt>
      <trkpt lat="49.28853" lon="1.1741">
        <ele>78</ele>
        <time>2025-09-09T12:55:18.827Z</time>
      </trkpt>
      <trkpt lat="49.28847" lon="1.1741">
        <ele>78</ele>
        <time>2025-09-09T12:55:23.830Z</time>
      </trkpt>
      <trkpt lat="49.28843" lon="1.17411">
        <ele>77</ele>
        <time>2025-09-09T12:55:28.826Z</time>
      </trkpt>
      <trkpt lat="49.28838" lon="1.17409">
        <ele>77</ele>
        <time>2025-09-09T12:55:32.826Z</time>
      </trkpt>
      <trkpt lat="49.28833" lon="1.17407">
        <ele>77</ele>
        <time>2025-09-09T12:55:37.371Z</time>
      </trkpt>
      <trkpt lat="49.28829" lon="1.17406">
        <ele>77</ele>
        <time>2025-09-09T12:55:41.471Z</time>
      </trkpt>
      <trkpt lat="49.28825" lon="1.17403">
        <ele>77</ele>
        <time>2025-09-09T12:55:45.667Z</time>
      </trkpt>
      <trkpt lat="49.28821" lon="1.17403">
        <ele>77</ele>
        <time>2025-09-09T12:55:49.677Z</time>
      </trkpt>
      <trkpt lat="49.28817" lon="1.17405">
        <ele>78</ele>
        <time>2025-09-09T12:55:53.827Z</time>
      </trkpt>
      <trkpt lat="49.28812" lon="1.17405">
        <ele>78</ele>
        <time>2025-09-09T12:55:58.827Z</time>
      </trkpt>
      <trkpt lat="49.28806" lon="1.17405">
        <ele>78</ele>
        <time>2025-09-09T12:56:03.594Z</time>
      </trkpt>
      <trkpt lat="49.288" lon="1.17405">
        <ele>78</ele>
        <time>2025-09-09T12:56:08.336Z</time>
      </trkpt>
      <trkpt lat="49.28795" lon="1.17405">
        <ele>78</ele>
        <time>2025-09-09T12:56:12.826Z</time>
      </trkpt>
      <trkpt lat="49.2879" lon="1.17405">
        <ele>79</ele>
        <time>2025-09-09T12:56:16.994Z</time>
      </trkpt>
      <trkpt lat="49.28785" lon="1.17405">
        <ele>79</ele>
        <time>2025-09-09T12:56:21.296Z</time>
      </trkpt>
      <trkpt lat="49.2878" lon="1.17404">
        <ele>79</ele>
        <time>2025-09-09T12:56:25.827Z</time>
      </trkpt>
      <trkpt lat="49.28774" lon="1.17403">
        <ele>79</ele>
        <time>2025-09-09T12:56:30.675Z</time>
      </trkpt>
      <trkpt lat="49.28768" lon="1.17403">
        <ele>79</ele>
        <time>2025-09-09T12:56:35.390Z</time>
      </trkpt>
      <trkpt lat="49.28764" lon="1.17404">
        <ele>79</ele>
        <time>2025-09-09T12:56:39.428Z</time>
      </trkpt>
      <trkpt lat="49.28764" lon="1.174">
        <ele>78</ele>
        <time>2025-09-09T12:56:43.827Z</time>
      </trkpt>
      <trkpt lat="49.28765" lon="1.17398">
        <ele>77</ele>
        <time>2025-09-09T12:56:48.836Z</time>
      </trkpt>
      <trkpt lat="49.2876" lon="1.17396">
        <ele>78</ele>
        <time>2025-09-09T12:56:53.329Z</time>
      </trkpt>
      <trkpt lat="49.28753" lon="1.17404">
        <ele>79</ele>
        <time>2025-09-09T12:56:57.827Z</time>
      </trkpt>
      <trkpt lat="49.28748" lon="1.1741">
        <ele>79</ele>
        <time>2025-09-09T12:57:02.689Z</time>
      </trkpt>
      <trkpt lat="49.28744" lon="1.17412">
        <ele>79</ele>
        <time>2025-09-09T12:57:06.827Z</time>
      </trkpt>
      <trkpt lat="49.28741" lon="1.17415">
        <ele>79</ele>
        <time>2025-09-09T12:57:11.373Z</time>
      </trkpt>
      <trkpt lat="49.28741" lon="1.17421">
        <ele>79</ele>
        <time>2025-09-09T12:57:15.471Z</time>
      </trkpt>
      <trkpt lat="49.28738" lon="1.17441">
        <ele>80</ele>
        <time>2025-09-09T12:57:36.827Z</time>
      </trkpt>
      <trkpt lat="49.28737" lon="1.17441">
        <ele>80</ele>
        <time>2025-09-09T12:57:40.827Z</time>
      </trkpt>
      <trkpt lat="49.28737" lon="1.17442">
        <ele>80</ele>
        <time>2025-09-09T12:57:45.432Z</time>
      </trkpt>
      <trkpt lat="49.28738" lon="1.17443">
        <ele>80</ele>
        <time>2025-09-09T12:57:49.827Z</time>
      </trkpt>
      <trkpt lat="49.28738" lon="1.17444">
        <ele>80</ele>
        <time>2025-09-09T12:57:56.826Z</time>
      </trkpt>
      <trkpt lat="49.28737" lon="1.17464">
        <ele>81</ele>
        <time>2025-09-09T13:03:30.826Z</time>
      </trkpt>
      <trkpt lat="49.28737" lon="1.17464">
        <ele>81</ele>
        <time>2025-09-09T13:03:35.415Z</time>
      </trkpt>
      <trkpt lat="49.28735" lon="1.17472">
        <ele>81</ele>
        <time>2025-09-09T13:03:39.612Z</time>
      </trkpt>
      <trkpt lat="49.28733" lon="1.17481">
        <ele>81</ele>
        <time>2025-09-09T13:03:43.748Z</time>
      </trkpt>
      <trkpt lat="49.28732" lon="1.17489">
        <ele>81</ele>
        <time>2025-09-09T13:03:47.827Z</time>
      </trkpt>
      <trkpt lat="49.28732" lon="1.17499">
        <ele>81</ele>
        <time>2025-09-09T13:03:52.794Z</time>
      </trkpt>
      <trkpt lat="49.28731" lon="1.17501">
        <ele>81</ele>
        <time>2025-09-09T13:03:56.826Z</time>
      </trkpt>
      <trkpt lat="49.2873" lon="1.17509">
        <ele>81</ele>
        <time>2025-09-09T13:04:01.608Z</time>
      </trkpt>
      <trkpt lat="49.2873" lon="1.17517">
        <ele>82</ele>
        <time>2025-09-09T13:04:06.288Z</time>
      </trkpt>
      <trkpt lat="49.28729" lon="1.17525">
        <ele>82</ele>
        <time>2025-09-09T13:04:10.827Z</time>
      </trkpt>
      <trkpt lat="49.28729" lon="1.17531">
        <ele>82</ele>
        <time>2025-09-09T13:04:15Z</time>
      </trkpt>
      <trkpt lat="49.28729" lon="1.17538">
        <ele>82</ele>
        <time>2025-09-09T13:04:19.653Z</time>
      </trkpt>
      <trkpt lat="49.28728" lon="1.17545">
        <ele>81</ele>
        <time>2025-09-09T13:04:23.827Z</time>
      </trkpt>
      <trkpt lat="49.28726" lon="1.17552">
        <ele>81</ele>
        <time>2025-09-09T13:04:28.433Z</time>
      </trkpt>
      <trkpt lat="49.28725" lon="1.17561">
        <ele>81</ele>
        <time>2025-09-09T13:04:32.827Z</time>
      </trkpt>
      <trkpt lat="49.28724" lon="1.1757">
        <ele>81</ele>
        <time>2025-09-09T13:04:37.530Z</time>
      </trkpt>
      <trkpt lat="49.28724" lon="1.17578">
        <ele>81</ele>
        <time>2025-09-09T13:04:41.825Z</time>
      </trkpt>
      <trkpt lat="49.28723" lon="1.17586">
        <ele>81</ele>
        <time>2025-09-09T13:04:46.826Z</time>
      </trkpt>
      <trkpt lat="49.28722" lon="1.17595">
        <ele>81</ele>
        <time>2025-09-09T13:04:51.553Z</time>
      </trkpt>
      <trkpt lat="49.28721" lon="1.17602">
        <ele>81</ele>
        <time>2025-09-09T13:04:55.827Z</time>
      </trkpt>
      <trkpt lat="49.28721" lon="1.17611">
        <ele>81</ele>
        <time>2025-09-09T13:05:00.694Z</time>
      </trkpt>
      <trkpt lat="49.2872" lon="1.17618">
        <ele>81</ele>
        <time>2025-09-09T13:05:05.051Z</time>
      </trkpt>
      <trkpt lat="49.2872" lon="1.17627">
        <ele>83</ele>
        <time>2025-09-09T13:05:09.827Z</time>
      </trkpt>
      <trkpt lat="49.28719" lon="1.17636">
        <ele>83</ele>
        <time>2025-09-09T13:05:14.770Z</time>
      </trkpt>
      <trkpt lat="49.28718" lon="1.17643">
        <ele>83</ele>
        <time>2025-09-09T13:05:18.825Z</time>
      </trkpt>
      <trkpt lat="49.28717" lon="1.17652">
        <ele>83</ele>
        <time>2025-09-09T13:05:23.630Z</time>
      </trkpt>
      <trkpt lat="49.28716" lon="1.1766">
        <ele>84</ele>
        <time>2025-09-09T13:05:28.213Z</time>
      </trkpt>
      <trkpt lat="49.28715" lon="1.17669">
        <ele>84</ele>
        <time>2025-09-09T13:05:32.827Z</time>
      </trkpt>
      <trkpt lat="49.28714" lon="1.17677">
        <ele>84</ele>
        <time>2025-09-09T13:05:37.468Z</time>
      </trkpt>
      <trkpt lat="49.28713" lon="1.17685">
        <ele>85</ele>
        <time>2025-09-09T13:05:41.826Z</time>
      </trkpt>
      <trkpt lat="49.28712" lon="1.17694">
        <ele>85</ele>
        <time>2025-09-09T13:05:46.749Z</time>
      </trkpt>
      <trkpt lat="49.28714" lon="1.17703">
        <ele>85</ele>
        <time>2025-09-09T13:05:51.711Z</time>
      </trkpt>
      <trkpt lat="49.2872" lon="1.17705">
        <ele>85</ele>
        <time>2025-09-09T13:05:55.827Z</time>
      </trkpt>
      <trkpt lat="49.28725" lon="1.17704">
        <ele>85</ele>
        <time>2025-09-09T13:06:00.825Z</time>
      </trkpt>
      <trkpt lat="49.28729" lon="1.17703">
        <ele>85</ele>
        <time>2025-09-09T13:06:05.215Z</time>
      </trkpt>
      <trkpt lat="49.28732" lon="1.17704">
        <ele>85</ele>
        <time>2025-09-09T13:06:09.827Z</time>
      </trkpt>
      <trkpt lat="49.28737" lon="1.17705">
        <ele>84</ele>
        <time>2025-09-09T13:06:14.488Z</time>
      </trkpt>
      <trkpt lat="49.28741" lon="1.17708">
        <ele>84</ele>
        <time>2025-09-09T13:06:18.826Z</time>
      </trkpt>
      <trkpt lat="49.28746" lon="1.1771">
        <ele>83</ele>
        <time>2025-09-09T13:06:23.827Z</time>
      </trkpt>
      <trkpt lat="49.28751" lon="1.17712">
        <ele>83</ele>
        <time>2025-09-09T13:06:28.793Z</time>
      </trkpt>
      <trkpt lat="49.28755" lon="1.17713">
        <ele>83</ele>
        <time>2025-09-09T13:06:32.825Z</time>
      </trkpt>
      <trkpt lat="49.2876" lon="1.17715">
        <ele>83</ele>
        <time>2025-09-09T13:06:37.824Z</time>
      </trkpt>
      <trkpt lat="49.28765" lon="1.17716">
        <ele>81</ele>
        <time>2025-09-09T13:06:41.827Z</time>
      </trkpt>
      <trkpt lat="49.28769" lon="1.17717">
        <ele>81</ele>
        <time>2025-09-09T13:06:46.293Z</time>
      </trkpt>
      <trkpt lat="49.28774" lon="1.17718">
        <ele>81</ele>
        <time>2025-09-09T13:06:50.595Z</time>
      </trkpt>
      <trkpt lat="49.2878" lon="1.17719">
        <ele>81</ele>
        <time>2025-09-09T13:06:55.557Z</time>
      </trkpt>
      <trkpt lat="49.28784" lon="1.1772">
        <ele>81</ele>
        <time>2025-09-09T13:06:59.827Z</time>
      </trkpt>
      <trkpt lat="49.28789" lon="1.17722">
        <ele>81</ele>
        <time>2025-09-09T13:07:04.469Z</time>
      </trkpt>
      <trkpt lat="49.28794" lon="1.17724">
        <ele>80</ele>
        <time>2025-09-09T13:07:08.825Z</time>
      </trkpt>
      <trkpt lat="49.288" lon="1.17725">
        <ele>80</ele>
        <time>2025-09-09T13:07:13.530Z</time>
      </trkpt>
      <trkpt lat="49.28805" lon="1.17725">
        <ele>80</ele>
        <time>2025-09-09T13:07:17.825Z</time>
      </trkpt>
      <trkpt lat="49.2881" lon="1.17726">
        <ele>80</ele>
        <time>2025-09-09T13:07:22.823Z</time>
      </trkpt>
      <trkpt lat="49.28815" lon="1.17727">
        <ele>80</ele>
        <time>2025-09-09T13:07:26.825Z</time>
      </trkpt>
      <trkpt lat="49.2882" lon="1.1773">
        <ele>79</ele>
        <time>2025-09-09T13:07:31.824Z</time>
      </trkpt>
      <trkpt lat="49.28826" lon="1.17732">
        <ele>79</ele>
        <time>2025-09-09T13:07:36.822Z</time>
      </trkpt>
      <trkpt lat="49.28831" lon="1.17733">
        <ele>79</ele>
        <time>2025-09-09T13:07:41.532Z</time>
      </trkpt>
      <trkpt lat="49.28836" lon="1.17735">
        <ele>79</ele>
        <time>2025-09-09T13:07:45.808Z</time>
      </trkpt>
      <trkpt lat="49.28841" lon="1.17736">
        <ele>79</ele>
        <time>2025-09-09T13:07:50.797Z</time>
      </trkpt>
      <trkpt lat="49.28845" lon="1.17736">
        <ele>79</ele>
        <time>2025-09-09T13:07:54.822Z</time>
      </trkpt>
      <trkpt lat="49.2885" lon="1.17737">
        <ele>80</ele>
        <time>2025-09-09T13:07:59.827Z</time>
      </trkpt>
      <trkpt lat="49.28855" lon="1.17737">
        <ele>80</ele>
        <time>2025-09-09T13:08:04.529Z</time>
      </trkpt>
      <trkpt lat="49.2886" lon="1.17739">
        <ele>80</ele>
        <time>2025-09-09T13:08:08.827Z</time>
      </trkpt>
      <trkpt lat="49.28864" lon="1.17741">
        <ele>80</ele>
        <time>2025-09-09T13:08:13.135Z</time>
      </trkpt>
      <trkpt lat="49.28868" lon="1.17742">
        <ele>80</ele>
        <time>2025-09-09T13:08:17.630Z</time>
      </trkpt>
      <trkpt lat="49.28873" lon="1.17744">
        <ele>80</ele>
        <time>2025-09-09T13:08:21.748Z</time>
      </trkpt>
      <trkpt lat="49.28877" lon="1.17744">
        <ele>80</ele>
        <time>2025-09-09T13:08:26.393Z</time>
      </trkpt>
      <trkpt lat="49.28882" lon="1.17747">
        <ele>80</ele>
        <time>2025-09-09T13:08:30.825Z</time>
      </trkpt>
      <trkpt lat="49.28887" lon="1.17748">
        <ele>80</ele>
        <time>2025-09-09T13:08:35.711Z</time>
      </trkpt>
      <trkpt lat="49.28892" lon="1.17748">
        <ele>80</ele>
        <time>2025-09-09T13:08:40.776Z</time>
      </trkpt>
      <trkpt lat="49.28896" lon="1.1775">
        <ele>80</ele>
        <time>2025-09-09T13:08:44.826Z</time>
      </trkpt>
      <trkpt lat="49.28901" lon="1.17752">
        <ele>80</ele>
        <time>2025-09-09T13:08:48.825Z</time>
      </trkpt>
      <trkpt lat="49.28905" lon="1.17753">
        <ele>78</ele>
        <time>2025-09-09T13:08:53.281Z</time>
      </trkpt>
      <trkpt lat="49.28909" lon="1.17752">
        <ele>78</ele>
        <time>2025-09-09T13:08:57.372Z</time>
      </trkpt>
      <trkpt lat="49.28914" lon="1.17754">
        <ele>78</ele>
        <time>2025-09-09T13:09:01.827Z</time>
      </trkpt>
      <trkpt lat="49.2892" lon="1.17756">
        <ele>78</ele>
        <time>2025-09-09T13:09:06.531Z</time>
      </trkpt>
      <trkpt lat="49.28925" lon="1.17758">
        <ele>78</ele>
        <time>2025-09-09T13:09:11.536Z</time>
      </trkpt>
      <trkpt lat="49.28929" lon="1.17759">
        <ele>78</ele>
        <time>2025-09-09T13:09:15.827Z</time>
      </trkpt>
      <trkpt lat="49.28934" lon="1.1776">
        <ele>77</ele>
        <time>2025-09-09T13:09:20.827Z</time>
      </trkpt>
      <trkpt lat="49.28938" lon="1.17762">
        <ele>77</ele>
        <time>2025-09-09T13:09:25.550Z</time>
      </trkpt>
      <trkpt lat="49.28942" lon="1.17763">
        <ele>77</ele>
        <time>2025-09-09T13:09:29.554Z</time>
      </trkpt>
      <trkpt lat="49.28947" lon="1.17765">
        <ele>77</ele>
        <time>2025-09-09T13:09:33.811Z</time>
      </trkpt>
      <trkpt lat="49.28951" lon="1.17766">
        <ele>77</ele>
        <time>2025-09-09T13:09:37.827Z</time>
      </trkpt>
      <trkpt lat="49.28956" lon="1.17768">
        <ele>77</ele>
        <time>2025-09-09T13:09:42.416Z</time>
      </trkpt>
      <trkpt lat="49.2896" lon="1.17768">
        <ele>78</ele>
        <time>2025-09-09T13:09:46.825Z</time>
      </trkpt>
      <trkpt lat="49.28965" lon="1.17769">
        <ele>78</ele>
        <time>2025-09-09T13:09:51.776Z</time>
      </trkpt>
      <trkpt lat="49.28969" lon="1.1777">
        <ele>78</ele>
        <time>2025-09-09T13:09:55.825Z</time>
      </trkpt>
      <trkpt lat="49.28974" lon="1.1777">
        <ele>78</ele>
        <time>2025-09-09T13:10:00.827Z</time>
      </trkpt>
      <trkpt lat="49.2898" lon="1.1777">
        <ele>78</ele>
        <time>2025-09-09T13:10:05.790Z</time>
      </trkpt>
      <trkpt lat="49.28984" lon="1.17772">
        <ele>78</ele>
        <time>2025-09-09T13:10:09.826Z</time>
      </trkpt>
      <trkpt lat="49.28989" lon="1.17774">
        <ele>77</ele>
        <time>2025-09-09T13:10:14.827Z</time>
      </trkpt>
      <trkpt lat="49.28995" lon="1.17774">
        <ele>77</ele>
        <time>2025-09-09T13:10:19.825Z</time>
      </trkpt>
      <trkpt lat="49.29" lon="1.17776">
        <ele>77</ele>
        <time>2025-09-09T13:10:24.291Z</time>
      </trkpt>
      <trkpt lat="49.29004" lon="1.17778">
        <ele>77</ele>
        <time>2025-09-09T13:10:28.428Z</time>
      </trkpt>
      <trkpt lat="49.29009" lon="1.17779">
        <ele>77</ele>
        <time>2025-09-09T13:10:32.475Z</time>
      </trkpt>
      <trkpt lat="49.29014" lon="1.1778">
        <ele>77</ele>
        <time>2025-09-09T13:10:36.777Z</time>
      </trkpt>
      <trkpt lat="49.29019" lon="1.17781">
        <ele>75</ele>
        <time>2025-09-09T13:10:40.827Z</time>
      </trkpt>
      <trkpt lat="49.29025" lon="1.17783">
        <ele>75</ele>
        <time>2025-09-09T13:10:45.824Z</time>
      </trkpt>
      <trkpt lat="49.2903" lon="1.17785">
        <ele>75</ele>
        <time>2025-09-09T13:10:50.826Z</time>
      </trkpt>
      <trkpt lat="49.29035" lon="1.17787">
        <ele>75</ele>
        <time>2025-09-09T13:10:55.268Z</time>
      </trkpt>
      <trkpt lat="49.29039" lon="1.17787">
        <ele>75</ele>
        <time>2025-09-09T13:10:59.827Z</time>
      </trkpt>
      <trkpt lat="49.29045" lon="1.17788">
        <ele>73</ele>
        <time>2025-09-09T13:11:04.716Z</time>
      </trkpt>
      <trkpt lat="49.29049" lon="1.17789">
        <ele>73</ele>
        <time>2025-09-09T13:11:08.827Z</time>
      </trkpt>
      <trkpt lat="49.29053" lon="1.1779">
        <ele>73</ele>
        <time>2025-09-09T13:11:12.827Z</time>
      </trkpt>
      <trkpt lat="49.29058" lon="1.17792">
        <ele>73</ele>
        <time>2025-09-09T13:11:17.431Z</time>
      </trkpt>
      <trkpt lat="49.29063" lon="1.17794">
        <ele>73</ele>
        <time>2025-09-09T13:11:21.827Z</time>
      </trkpt>
      <trkpt lat="49.29068" lon="1.17796">
        <ele>73</ele>
        <time>2025-09-09T13:11:26.827Z</time>
      </trkpt>
      <trkpt lat="49.29073" lon="1.17798">
        <ele>73</ele>
        <time>2025-09-09T13:11:31.453Z</time>
      </trkpt>
      <trkpt lat="49.29078" lon="1.17799">
        <ele>73</ele>
        <time>2025-09-09T13:11:35.826Z</time>
      </trkpt>
      <trkpt lat="49.29081" lon="1.17801">
        <ele>73</ele>
        <time>2025-09-09T13:11:40.356Z</time>
      </trkpt>
      <trkpt lat="49.29083" lon="1.17806">
        <ele>73</ele>
        <time>2025-09-09T13:11:44.827Z</time>
      </trkpt>
      <trkpt lat="49.29088" lon="1.1781">
        <ele>73</ele>
        <time>2025-09-09T13:11:49.827Z</time>
      </trkpt>
      <trkpt lat="49.29093" lon="1.17811">
        <ele>73</ele>
        <time>2025-09-09T13:11:54.827Z</time>
      </trkpt>
      <trkpt lat="49.29097" lon="1.1781">
        <ele>73</ele>
        <time>2025-09-09T13:11:59.826Z</time>
      </trkpt>
      <trkpt lat="49.29097" lon="1.17809">
        <ele>73</ele>
        <time>2025-09-09T13:12:03.827Z</time>
      </trkpt>
      <trkpt lat="49.29097" lon="1.17809">
        <ele>73</ele>
        <time>2025-09-09T13:12:08.826Z</time>
      </trkpt>
      <trkpt lat="49.29097" lon="1.17808">
        <ele>73</ele>
        <time>2025-09-09T13:12:13.573Z</time>
      </trkpt>
      <trkpt lat="49.29102" lon="1.17807">
        <ele>73</ele>
        <time>2025-09-09T13:12:18.077Z</time>
      </trkpt>
      <trkpt lat="49.29107" lon="1.17807">
        <ele>73</ele>
        <time>2025-09-09T13:12:22.775Z</time>
      </trkpt>
      <trkpt lat="49.29112" lon="1.17807">
        <ele>73</ele>
        <time>2025-09-09T13:12:26.825Z</time>
      </trkpt>
      <trkpt lat="49.29117" lon="1.17808">
        <ele>73</ele>
        <time>2025-09-09T13:12:31.589Z</time>
      </trkpt>
      <trkpt lat="49.29121" lon="1.17813">
        <ele>73</ele>
        <time>2025-09-09T13:12:36.520Z</time>
      </trkpt>
      <trkpt lat="49.29122" lon="1.17814">
        <ele>73</ele>
        <time>2025-09-09T13:12:40.827Z</time>
      </trkpt>
      <trkpt lat="49.29121" lon="1.17815">
        <ele>73</ele>
        <time>2025-09-09T13:13:02.825Z</time>
      </trkpt>
      <trkpt lat="49.29122" lon="1.17818">
        <ele>73</ele>
        <time>2025-09-09T13:13:06.827Z</time>
      </trkpt>
      <trkpt lat="49.29123" lon="1.1782">
        <ele>73</ele>
        <time>2025-09-09T13:13:11.827Z</time>
      </trkpt>
      <trkpt lat="49.29122" lon="1.17825">
        <ele>73</ele>
        <time>2025-09-09T13:13:16.293Z</time>
      </trkpt>
      <trkpt lat="49.29121" lon="1.17834">
        <ele>73</ele>
        <time>2025-09-09T13:13:20.735Z</time>
      </trkpt>
      <trkpt lat="49.29121" lon="1.17841">
        <ele>73</ele>
        <time>2025-09-09T13:13:24.826Z</time>
      </trkpt>
      <trkpt lat="49.2912" lon="1.17847">
        <ele>73</ele>
        <time>2025-09-09T13:13:28.825Z</time>
      </trkpt>
      <trkpt lat="49.29118" lon="1.17856">
        <ele>73</ele>
        <time>2025-09-09T13:13:33.635Z</time>
      </trkpt>
      <trkpt lat="49.29117" lon="1.17862">
        <ele>73</ele>
        <time>2025-09-09T13:13:37.826Z</time>
      </trkpt>
      <trkpt lat="49.29116" lon="1.17871">
        <ele>73</ele>
        <time>2025-09-09T13:13:42.750Z</time>
      </trkpt>
      <trkpt lat="49.29115" lon="1.17878">
        <ele>72</ele>
        <time>2025-09-09T13:13:46.827Z</time>
      </trkpt>
      <trkpt lat="49.29115" lon="1.17886">
        <ele>72</ele>
        <time>2025-09-09T13:13:51.689Z</time>
      </trkpt>
      <trkpt lat="49.29116" lon="1.17889">
        <ele>72</ele>
        <time>2025-09-09T13:13:55.823Z</time>
      </trkpt>
      <trkpt lat="49.29117" lon="1.17894">
        <ele>72</ele>
        <time>2025-09-09T13:14:00.827Z</time>
      </trkpt>
      <trkpt lat="49.29123" lon="1.17897">
        <ele>72</ele>
        <time>2025-09-09T13:14:05.822Z</time>
      </trkpt>
      <trkpt lat="49.29127" lon="1.179">
        <ele>72</ele>
        <time>2025-09-09T13:14:10.536Z</time>
      </trkpt>
      <trkpt lat="49.29132" lon="1.17902">
        <ele>72</ele>
        <time>2025-09-09T13:14:14.571Z</time>
      </trkpt>
      <trkpt lat="49.29138" lon="1.17901">
        <ele>72</ele>
        <time>2025-09-09T13:14:18.751Z</time>
      </trkpt>
      <trkpt lat="49.29142" lon="1.17901">
        <ele>72</ele>
        <time>2025-09-09T13:14:23.240Z</time>
      </trkpt>
      <trkpt lat="49.29147" lon="1.17902">
        <ele>72</ele>
        <time>2025-09-09T13:14:27.826Z</time>
      </trkpt>
      <trkpt lat="49.29152" lon="1.17902">
        <ele>72</ele>
        <time>2025-09-09T13:14:32.388Z</time>
      </trkpt>
      <trkpt lat="49.29155" lon="1.17903">
        <ele>71</ele>
        <time>2025-09-09T13:14:36.691Z</time>
      </trkpt>
      <trkpt lat="49.2916" lon="1.17904">
        <ele>70</ele>
        <time>2025-09-09T13:14:40.825Z</time>
      </trkpt>
      <trkpt lat="49.29166" lon="1.17907">
        <ele>70</ele>
        <time>2025-09-09T13:14:45.824Z</time>
      </trkpt>
      <trkpt lat="49.2917" lon="1.17908">
        <ele>70</ele>
        <time>2025-09-09T13:14:49.827Z</time>
      </trkpt>
      <trkpt lat="49.29175" lon="1.17911">
        <ele>70</ele>
        <time>2025-09-09T13:14:54.825Z</time>
      </trkpt>
      <trkpt lat="49.2918" lon="1.17912">
        <ele>70</ele>
        <time>2025-09-09T13:14:59.355Z</time>
      </trkpt>
      <trkpt lat="49.29185" lon="1.17913">
        <ele>69</ele>
        <time>2025-09-09T13:15:03.826Z</time>
      </trkpt>
      <trkpt lat="49.29191" lon="1.17916">
        <ele>69</ele>
        <time>2025-09-09T13:15:08.171Z</time>
      </trkpt>
      <trkpt lat="49.29196" lon="1.17918">
        <ele>69</ele>
        <time>2025-09-09T13:15:12.649Z</time>
      </trkpt>
      <trkpt lat="49.29202" lon="1.17919">
        <ele>69</ele>
        <time>2025-09-09T13:15:16.824Z</time>
      </trkpt>
      <trkpt lat="49.29207" lon="1.17921">
        <ele>69</ele>
        <time>2025-09-09T13:15:21.571Z</time>
      </trkpt>
      <trkpt lat="49.29212" lon="1.17922">
        <ele>68</ele>
        <time>2025-09-09T13:15:25.823Z</time>
      </trkpt>
      <trkpt lat="49.29217" lon="1.17924">
        <ele>68</ele>
        <time>2025-09-09T13:15:30.633Z</time>
      </trkpt>
      <trkpt lat="49.29222" lon="1.17925">
        <ele>68</ele>
        <time>2025-09-09T13:15:34.826Z</time>
      </trkpt>
      <trkpt lat="49.29228" lon="1.17926">
        <ele>68</ele>
        <time>2025-09-09T13:15:39.825Z</time>
      </trkpt>
      <trkpt lat="49.29232" lon="1.17927">
        <ele>68</ele>
        <time>2025-09-09T13:15:43.825Z</time>
      </trkpt>
      <trkpt lat="49.29237" lon="1.17928">
        <ele>67</ele>
        <time>2025-09-09T13:15:48.380Z</time>
      </trkpt>
      <trkpt lat="49.29241" lon="1.17926">
        <ele>67</ele>
        <time>2025-09-09T13:15:52.823Z</time>
      </trkpt>
      <trkpt lat="49.29246" lon="1.17929">
        <ele>67</ele>
        <time>2025-09-09T13:15:57.357Z</time>
      </trkpt>
      <trkpt lat="49.29251" lon="1.17931">
        <ele>67</ele>
        <time>2025-09-09T13:16:01.826Z</time>
      </trkpt>
      <trkpt lat="49.29256" lon="1.17932">
        <ele>67</ele>
        <time>2025-09-09T13:16:06.498Z</time>
      </trkpt>
      <trkpt lat="49.29261" lon="1.17935">
        <ele>67</ele>
        <time>2025-09-09T13:16:10.825Z</time>
      </trkpt>
      <trkpt lat="49.29266" lon="1.17937">
        <ele>65</ele>
        <time>2025-09-09T13:16:15.825Z</time>
      </trkpt>
      <trkpt lat="49.29271" lon="1.17937">
        <ele>65</ele>
        <time>2025-09-09T13:16:20.055Z</time>
      </trkpt>
      <trkpt lat="49.29277" lon="1.17939">
        <ele>65</ele>
        <time>2025-09-09T13:16:24.824Z</time>
      </trkpt>
      <trkpt lat="49.29283" lon="1.17941">
        <ele>65</ele>
        <time>2025-09-09T13:16:29.630Z</time>
      </trkpt>
      <trkpt lat="49.29288" lon="1.17943">
        <ele>65</ele>
        <time>2025-09-09T13:16:34.029Z</time>
      </trkpt>
      <trkpt lat="49.29293" lon="1.17945">
        <ele>64</ele>
        <time>2025-09-09T13:16:38.173Z</time>
      </trkpt>
      <trkpt lat="49.29299" lon="1.17947">
        <ele>64</ele>
        <time>2025-09-09T13:16:42.651Z</time>
      </trkpt>
      <trkpt lat="49.293" lon="1.17956">
        <ele>64</ele>
        <time>2025-09-09T13:16:47.594Z</time>
      </trkpt>
      <trkpt lat="49.29299" lon="1.17963">
        <ele>62</ele>
        <time>2025-09-09T13:16:51.825Z</time>
      </trkpt>
      <trkpt lat="49.29297" lon="1.17971">
        <ele>62</ele>
        <time>2025-09-09T13:16:56.380Z</time>
      </trkpt>
      <trkpt lat="49.29295" lon="1.1798">
        <ele>62</ele>
        <time>2025-09-09T13:17:00.824Z</time>
      </trkpt>
      <trkpt lat="49.29295" lon="1.17987">
        <ele>61</ele>
        <time>2025-09-09T13:17:05.825Z</time>
      </trkpt>
      <trkpt lat="49.29293" lon="1.17995">
        <ele>61</ele>
        <time>2025-09-09T13:17:10.555Z</time>
      </trkpt>
      <trkpt lat="49.29292" lon="1.18003">
        <ele>61</ele>
        <time>2025-09-09T13:17:14.716Z</time>
      </trkpt>
      <trkpt lat="49.29292" lon="1.18011">
        <ele>61</ele>
        <time>2025-09-09T13:17:19.152Z</time>
      </trkpt>
      <trkpt lat="49.29291" lon="1.18017">
        <ele>61</ele>
        <time>2025-09-09T13:17:23.533Z</time>
      </trkpt>
      <trkpt lat="49.2929" lon="1.18027">
        <ele>61</ele>
        <time>2025-09-09T13:17:28.374Z</time>
      </trkpt>
      <trkpt lat="49.29289" lon="1.18034">
        <ele>61</ele>
        <time>2025-09-09T13:17:32.414Z</time>
      </trkpt>
      <trkpt lat="49.29289" lon="1.18042">
        <ele>61</ele>
        <time>2025-09-09T13:17:36.823Z</time>
      </trkpt>
      <trkpt lat="49.29289" lon="1.18049">
        <ele>60</ele>
        <time>2025-09-09T13:17:41.311Z</time>
      </trkpt>
      <trkpt lat="49.29288" lon="1.18057">
        <ele>60</ele>
        <time>2025-09-09T13:17:45.521Z</time>
      </trkpt>
      <trkpt lat="49.29288" lon="1.18064">
        <ele>60</ele>
        <time>2025-09-09T13:17:49.823Z</time>
      </trkpt>
      <trkpt lat="49.29287" lon="1.18072">
        <ele>58</ele>
        <time>2025-09-09T13:17:54.824Z</time>
      </trkpt>
      <trkpt lat="49.29284" lon="1.1808">
        <ele>58</ele>
        <time>2025-09-09T13:17:59.675Z</time>
      </trkpt>
      <trkpt lat="49.29284" lon="1.18086">
        <ele>58</ele>
        <time>2025-09-09T13:18:03.570Z</time>
      </trkpt>
      <trkpt lat="49.29283" lon="1.18096">
        <ele>58</ele>
        <time>2025-09-09T13:18:08.675Z</time>
      </trkpt>
      <trkpt lat="49.29283" lon="1.18103">
        <ele>58</ele>
        <time>2025-09-09T13:18:12.826Z</time>
      </trkpt>
      <trkpt lat="49.29282" lon="1.18111">
        <ele>58</ele>
        <time>2025-09-09T13:18:17.451Z</time>
      </trkpt>
      <trkpt lat="49.29281" lon="1.18119">
        <ele>58</ele>
        <time>2025-09-09T13:18:21.823Z</time>
      </trkpt>
      <trkpt lat="49.2928" lon="1.18128">
        <ele>57</ele>
        <time>2025-09-09T13:18:26.825Z</time>
      </trkpt>
      <trkpt lat="49.29279" lon="1.18136">
        <ele>57</ele>
        <time>2025-09-09T13:18:31.827Z</time>
      </trkpt>
      <trkpt lat="49.29279" lon="1.18139">
        <ele>57</ele>
        <time>2025-09-09T13:18:36.824Z</time>
      </trkpt>
      <trkpt lat="49.29277" lon="1.18143">
        <ele>57</ele>
        <time>2025-09-09T13:18:41.822Z</time>
      </trkpt>
      <trkpt lat="49.29276" lon="1.1815">
        <ele>57</ele>
        <time>2025-09-09T13:18:46.034Z</time>
      </trkpt>
      <trkpt lat="49.29276" lon="1.18157">
        <ele>57</ele>
        <time>2025-09-09T13:18:50.451Z</time>
      </trkpt>
      <trkpt lat="49.29275" lon="1.18164">
        <ele>57</ele>
        <time>2025-09-09T13:18:54.827Z</time>
      </trkpt>
      <trkpt lat="49.29274" lon="1.18173">
        <ele>57</ele>
        <time>2025-09-09T13:18:59.827Z</time>
      </trkpt>
      <trkpt lat="49.29272" lon="1.1818">
        <ele>57</ele>
        <time>2025-09-09T13:19:04.237Z</time>
      </trkpt>
      <trkpt lat="49.2927" lon="1.18186">
        <ele>56</ele>
        <time>2025-09-09T13:19:08.591Z</time>
      </trkpt>
      <trkpt lat="49.29269" lon="1.18193">
        <ele>56</ele>
        <time>2025-09-09T13:19:12.823Z</time>
      </trkpt>
      <trkpt lat="49.29268" lon="1.182">
        <ele>56</ele>
        <time>2025-09-09T13:19:16.824Z</time>
      </trkpt>
      <trkpt lat="49.29267" lon="1.18209">
        <ele>56</ele>
        <time>2025-09-09T13:19:21.740Z</time>
      </trkpt>
      <trkpt lat="49.29266" lon="1.18219">
        <ele>56</ele>
        <time>2025-09-09T13:19:26.799Z</time>
      </trkpt>
      <trkpt lat="49.29265" lon="1.18228">
        <ele>56</ele>
        <time>2025-09-09T13:19:31.618Z</time>
      </trkpt>
      <trkpt lat="49.29264" lon="1.18235">
        <ele>56</ele>
        <time>2025-09-09T13:19:35.754Z</time>
      </trkpt>
      <trkpt lat="49.29263" lon="1.18243">
        <ele>57</ele>
        <time>2025-09-09T13:19:39.825Z</time>
      </trkpt>
      <trkpt lat="49.29262" lon="1.18251">
        <ele>57</ele>
        <time>2025-09-09T13:19:44.293Z</time>
      </trkpt>
      <trkpt lat="49.29261" lon="1.18258">
        <ele>57</ele>
        <time>2025-09-09T13:19:48.455Z</time>
      </trkpt>
      <trkpt lat="49.2926" lon="1.18265">
        <ele>58</ele>
        <time>2025-09-09T13:19:53.355Z</time>
      </trkpt>
      <trkpt lat="49.2926" lon="1.1827">
        <ele>58</ele>
        <time>2025-09-09T13:19:57.438Z</time>
      </trkpt>
      <trkpt lat="49.2926" lon="1.18275">
        <ele>58</ele>
        <time>2025-09-09T13:20:01.600Z</time>
      </trkpt>
      <trkpt lat="49.29261" lon="1.1828">
        <ele>58</ele>
        <time>2025-09-09T13:20:05.824Z</time>
      </trkpt>
      <trkpt lat="49.2926" lon="1.18286">
        <ele>58</ele>
        <time>2025-09-09T13:20:10.827Z</time>
      </trkpt>
      <trkpt lat="49.29259" lon="1.18293">
        <ele>58</ele>
        <time>2025-09-09T13:20:15.671Z</time>
      </trkpt>
      <trkpt lat="49.29257" lon="1.18302">
        <ele>58</ele>
        <time>2025-09-09T13:20:19.825Z</time>
      </trkpt>
      <trkpt lat="49.29256" lon="1.18309">
        <ele>58</ele>
        <time>2025-09-09T13:20:24.159Z</time>
      </trkpt>
      <trkpt lat="49.29255" lon="1.18315">
        <ele>58</ele>
        <time>2025-09-09T13:20:28.434Z</time>
      </trkpt>
      <trkpt lat="49.29254" lon="1.18321">
        <ele>58</ele>
        <time>2025-09-09T13:20:32.500Z</time>
      </trkpt>
      <trkpt lat="49.29253" lon="1.18326">
        <ele>58</ele>
        <time>2025-09-09T13:20:36.824Z</time>
      </trkpt>
      <trkpt lat="49.29252" lon="1.18333">
        <ele>58</ele>
        <time>2025-09-09T13:20:41.737Z</time>
      </trkpt>
      <trkpt lat="49.29248" lon="1.18333">
        <ele>58</ele>
        <time>2025-09-09T13:20:45.823Z</time>
      </trkpt>
      <trkpt lat="49.29244" lon="1.1833">
        <ele>58</ele>
        <time>2025-09-09T13:20:50.553Z</time>
      </trkpt>
      <trkpt lat="49.2924" lon="1.18328">
        <ele>58</ele>
        <time>2025-09-09T13:20:54.825Z</time>
      </trkpt>
      <trkpt lat="49.29235" lon="1.18327">
        <ele>60</ele>
        <time>2025-09-09T13:20:59.611Z</time>
      </trkpt>
      <trkpt lat="49.29231" lon="1.18327">
        <ele>60</ele>
        <time>2025-09-09T13:21:03.824Z</time>
      </trkpt>
      <trkpt lat="49.29227" lon="1.18326">
        <ele>60</ele>
        <time>2025-09-09T13:21:08.312Z</time>
      </trkpt>
      <trkpt lat="49.29222" lon="1.18325">
        <ele>60</ele>
        <time>2025-09-09T13:21:12.535Z</time>
      </trkpt>
      <trkpt lat="49.29218" lon="1.18325">
        <ele>60</ele>
        <time>2025-09-09T13:21:16.827Z</time>
      </trkpt>
      <trkpt lat="49.29213" lon="1.18324">
        <ele>60</ele>
        <time>2025-09-09T13:21:21.574Z</time>
      </trkpt>
      <trkpt lat="49.29208" lon="1.18323">
        <ele>64</ele>
        <time>2025-09-09T13:21:25.823Z</time>
      </trkpt>
      <trkpt lat="49.29203" lon="1.18322">
        <ele>64</ele>
        <time>2025-09-09T13:21:29.825Z</time>
      </trkpt>
      <trkpt lat="49.29198" lon="1.1832">
        <ele>64</ele>
        <time>2025-09-09T13:21:34.656Z</time>
      </trkpt>
      <trkpt lat="49.29194" lon="1.18319">
        <ele>63</ele>
        <time>2025-09-09T13:21:38.752Z</time>
      </trkpt>
      <trkpt lat="49.29188" lon="1.18317">
        <ele>63</ele>
        <time>2025-09-09T13:21:43.556Z</time>
      </trkpt>
      <trkpt lat="49.29184" lon="1.18315">
        <ele>63</ele>
        <time>2025-09-09T13:21:47.824Z</time>
      </trkpt>
      <trkpt lat="49.2918" lon="1.18313">
        <ele>66</ele>
        <time>2025-09-09T13:21:52.077Z</time>
      </trkpt>
      <trkpt lat="49.29175" lon="1.18312">
        <ele>66</ele>
        <time>2025-09-09T13:21:56.397Z</time>
      </trkpt>
      <trkpt lat="49.29171" lon="1.18313">
        <ele>66</ele>
        <time>2025-09-09T13:22:00.717Z</time>
      </trkpt>
      <trkpt lat="49.29167" lon="1.18311">
        <ele>66</ele>
        <time>2025-09-09T13:22:04.824Z</time>
      </trkpt>
      <trkpt lat="49.29162" lon="1.18309">
        <ele>66</ele>
        <time>2025-09-09T13:22:09.537Z</time>
      </trkpt>
      <trkpt lat="49.29158" lon="1.18307">
        <ele>66</ele>
        <time>2025-09-09T13:22:13.628Z</time>
      </trkpt>
      <trkpt lat="49.29153" lon="1.18307">
        <ele>66</ele>
        <time>2025-09-09T13:22:17.991Z</time>
      </trkpt>
      <trkpt lat="49.29148" lon="1.18306">
        <ele>65</ele>
        <time>2025-09-09T13:22:22.013Z</time>
      </trkpt>
      <trkpt lat="49.29144" lon="1.18305">
        <ele>65</ele>
        <time>2025-09-09T13:22:26.197Z</time>
      </trkpt>
      <trkpt lat="49.29139" lon="1.18303">
        <ele>65</ele>
        <time>2025-09-09T13:22:30.825Z</time>
      </trkpt>
      <trkpt lat="49.29134" lon="1.18301">
        <ele>65</ele>
        <time>2025-09-09T13:22:35.826Z</time>
      </trkpt>
      <trkpt lat="49.29129" lon="1.183">
        <ele>65</ele>
        <time>2025-09-09T13:22:40.473Z</time>
      </trkpt>
      <trkpt lat="49.29124" lon="1.18299">
        <ele>65</ele>
        <time>2025-09-09T13:22:44.824Z</time>
      </trkpt>
      <trkpt lat="49.29118" lon="1.18297">
        <ele>65</ele>
        <time>2025-09-09T13:22:49.824Z</time>
      </trkpt>
      <trkpt lat="49.29113" lon="1.18296">
        <ele>65</ele>
        <time>2025-09-09T13:22:54.824Z</time>
      </trkpt>
      <trkpt lat="49.29108" lon="1.18295">
        <ele>65</ele>
        <time>2025-09-09T13:22:58.824Z</time>
      </trkpt>
      <trkpt lat="49.29103" lon="1.18295">
        <ele>65</ele>
        <time>2025-09-09T13:23:03.293Z</time>
      </trkpt>
      <trkpt lat="49.29099" lon="1.18294">
        <ele>65</ele>
        <time>2025-09-09T13:23:07.824Z</time>
      </trkpt>
      <trkpt lat="49.29094" lon="1.18292">
        <ele>67</ele>
        <time>2025-09-09T13:23:11.824Z</time>
      </trkpt>
      <trkpt lat="49.2909" lon="1.18293">
        <ele>67</ele>
        <time>2025-09-09T13:23:16.821Z</time>
      </trkpt>
      <trkpt lat="49.29086" lon="1.18292">
        <ele>67</ele>
        <time>2025-09-09T13:23:20.824Z</time>
      </trkpt>
      <trkpt lat="49.29081" lon="1.18289">
        <ele>67</ele>
        <time>2025-09-09T13:23:25.823Z</time>
      </trkpt>
      <trkpt lat="49.29077" lon="1.18286">
        <ele>67</ele>
        <time>2025-09-09T13:23:30.289Z</time>
      </trkpt>
      <trkpt lat="49.29072" lon="1.18286">
        <ele>67</ele>
        <time>2025-09-09T13:23:34.534Z</time>
      </trkpt>
      <trkpt lat="49.29068" lon="1.18286">
        <ele>69</ele>
        <time>2025-09-09T13:23:38.821Z</time>
      </trkpt>
      <trkpt lat="49.29065" lon="1.1829">
        <ele>69</ele>
        <time>2025-09-09T13:23:43.824Z</time>
      </trkpt>
      <trkpt lat="49.29063" lon="1.18296">
        <ele>69</ele>
        <time>2025-09-09T13:23:48.548Z</time>
      </trkpt>
      <trkpt lat="49.29063" lon="1.18304">
        <ele>69</ele>
        <time>2025-09-09T13:23:52.823Z</time>
      </trkpt>
      <trkpt lat="49.29064" lon="1.18311">
        <ele>69</ele>
        <time>2025-09-09T13:23:57.370Z</time>
      </trkpt>
      <trkpt lat="49.29065" lon="1.18317">
        <ele>69</ele>
        <time>2025-09-09T13:24:01.826Z</time>
      </trkpt>
      <trkpt lat="49.29065" lon="1.18325">
        <ele>69</ele>
        <time>2025-09-09T13:24:06.825Z</time>
      </trkpt>
      <trkpt lat="49.29064" lon="1.18332">
        <ele>69</ele>
        <time>2025-09-09T13:24:11.611Z</time>
      </trkpt>
      <trkpt lat="49.29063" lon="1.1834">
        <ele>69</ele>
        <time>2025-09-09T13:24:16.651Z</time>
      </trkpt>
      <trkpt lat="49.29062" lon="1.18347">
        <ele>69</ele>
        <time>2025-09-09T13:24:20.824Z</time>
      </trkpt>
      <trkpt lat="49.29061" lon="1.18353">
        <ele>70</ele>
        <time>2025-09-09T13:24:25.291Z</time>
      </trkpt>
      <trkpt lat="49.2906" lon="1.1836">
        <ele>70</ele>
        <time>2025-09-09T13:24:29.823Z</time>
      </trkpt>
      <trkpt lat="49.29059" lon="1.18368">
        <ele>70</ele>
        <time>2025-09-09T13:24:34.697Z</time>
      </trkpt>
      <trkpt lat="49.29058" lon="1.18374">
        <ele>70</ele>
        <time>2025-09-09T13:24:38.824Z</time>
      </trkpt>
      <trkpt lat="49.29057" lon="1.18381">
        <ele>71</ele>
        <time>2025-09-09T13:24:43.212Z</time>
      </trkpt>
      <trkpt lat="49.29057" lon="1.18388">
        <ele>71</ele>
        <time>2025-09-09T13:24:47.471Z</time>
      </trkpt>
      <trkpt lat="49.29056" lon="1.18396">
        <ele>71</ele>
        <time>2025-09-09T13:24:51.825Z</time>
      </trkpt>
      <trkpt lat="49.29055" lon="1.18405">
        <ele>71</ele>
        <time>2025-09-09T13:24:56.820Z</time>
      </trkpt>
      <trkpt lat="49.29053" lon="1.18412">
        <ele>71</ele>
        <time>2025-09-09T13:25:01.822Z</time>
      </trkpt>
      <trkpt lat="49.29052" lon="1.18419">
        <ele>71</ele>
        <time>2025-09-09T13:25:05.824Z</time>
      </trkpt>
      <trkpt lat="49.2905" lon="1.18427">
        <ele>71</ele>
        <time>2025-09-09T13:25:10.825Z</time>
      </trkpt>
      <trkpt lat="49.29048" lon="1.18434">
        <ele>72</ele>
        <time>2025-09-09T13:25:15.436Z</time>
      </trkpt>
      <trkpt lat="49.29048" lon="1.18441">
        <ele>72</ele>
        <time>2025-09-09T13:25:19.825Z</time>
      </trkpt>
      <trkpt lat="49.29047" lon="1.1845">
        <ele>72</ele>
        <time>2025-09-09T13:25:24.690Z</time>
      </trkpt>
      <trkpt lat="49.29047" lon="1.18457">
        <ele>72</ele>
        <time>2025-09-09T13:25:29.257Z</time>
      </trkpt>
      <trkpt lat="49.29046" lon="1.18466">
        <ele>72</ele>
        <time>2025-09-09T13:25:33.823Z</time>
      </trkpt>
      <trkpt lat="49.29045" lon="1.18475">
        <ele>72</ele>
        <time>2025-09-09T13:25:38.370Z</time>
      </trkpt>
      <trkpt lat="49.29042" lon="1.1848">
        <ele>72</ele>
        <time>2025-09-09T13:25:42.822Z</time>
      </trkpt>
      <trkpt lat="49.29038" lon="1.18478">
        <ele>72</ele>
        <time>2025-09-09T13:25:47.115Z</time>
      </trkpt>
      <trkpt lat="49.29032" lon="1.18479">
        <ele>72</ele>
        <time>2025-09-09T13:25:51.453Z</time>
      </trkpt>
      <trkpt lat="49.29031" lon="1.18475">
        <ele>72</ele>
        <time>2025-09-09T13:25:55.823Z</time>
      </trkpt>
      <trkpt lat="49.29026" lon="1.18477">
        <ele>72</ele>
        <time>2025-09-09T13:26:00.172Z</time>
      </trkpt>
      <trkpt lat="49.29021" lon="1.18478">
        <ele>72</ele>
        <time>2025-09-09T13:26:04.351Z</time>
      </trkpt>
      <trkpt lat="49.29016" lon="1.18478">
        <ele>72</ele>
        <time>2025-09-09T13:26:08.471Z</time>
      </trkpt>
      <trkpt lat="49.29013" lon="1.18477">
        <ele>72</ele>
        <time>2025-09-09T13:26:12.554Z</time>
      </trkpt>
      <trkpt lat="49.29007" lon="1.18477">
        <ele>72</ele>
        <time>2025-09-09T13:26:17.611Z</time>
      </trkpt>
      <trkpt lat="49.29001" lon="1.18476">
        <ele>72</ele>
        <time>2025-09-09T13:26:22.553Z</time>
      </trkpt>
      <trkpt lat="49.28996" lon="1.18476">
        <ele>72</ele>
        <time>2025-09-09T13:26:26.827Z</time>
      </trkpt>
      <trkpt lat="49.2899" lon="1.18475">
        <ele>72</ele>
        <time>2025-09-09T13:26:31.825Z</time>
      </trkpt>
      <trkpt lat="49.28985" lon="1.18474">
        <ele>71</ele>
        <time>2025-09-09T13:26:36.453Z</time>
      </trkpt>
      <trkpt lat="49.28981" lon="1.18475">
        <ele>71</ele>
        <time>2025-09-09T13:26:40.827Z</time>
      </trkpt>
      <trkpt lat="49.28977" lon="1.18475">
        <ele>71</ele>
        <time>2025-09-09T13:26:45.030Z</time>
      </trkpt>
      <trkpt lat="49.28972" lon="1.18473">
        <ele>71</ele>
        <time>2025-09-09T13:26:49.429Z</time>
      </trkpt>
      <trkpt lat="49.28967" lon="1.18471">
        <ele>71</ele>
        <time>2025-09-09T13:26:53.820Z</time>
      </trkpt>
      <trkpt lat="49.28962" lon="1.18469">
        <ele>71</ele>
        <time>2025-09-09T13:26:57.822Z</time>
      </trkpt>
      <trkpt lat="49.28957" lon="1.18467">
        <ele>70</ele>
        <time>2025-09-09T13:27:02.697Z</time>
      </trkpt>
      <trkpt lat="49.28952" lon="1.18466">
        <ele>70</ele>
        <time>2025-09-09T13:27:06.822Z</time>
      </trkpt>
      <trkpt lat="49.28946" lon="1.18465">
        <ele>70</ele>
        <time>2025-09-09T13:27:11.810Z</time>
      </trkpt>
      <trkpt lat="49.28941" lon="1.18463">
        <ele>70</ele>
        <time>2025-09-09T13:27:16.516Z</time>
      </trkpt>
      <trkpt lat="49.28937" lon="1.18463">
        <ele>70</ele>
        <time>2025-09-09T13:27:20.775Z</time>
      </trkpt>
      <trkpt lat="49.28932" lon="1.18463">
        <ele>70</ele>
        <time>2025-09-09T13:27:24.823Z</time>
      </trkpt>
      <trkpt lat="49.28927" lon="1.18462">
        <ele>71</ele>
        <time>2025-09-09T13:27:29.573Z</time>
      </trkpt>
      <trkpt lat="49.28923" lon="1.1846">
        <ele>71</ele>
        <time>2025-09-09T13:27:33.656Z</time>
      </trkpt>
      <trkpt lat="49.28919" lon="1.18458">
        <ele>71</ele>
        <time>2025-09-09T13:27:37.821Z</time>
      </trkpt>
      <trkpt lat="49.28914" lon="1.18455">
        <ele>71</ele>
        <time>2025-09-09T13:27:42.824Z</time>
      </trkpt>
      <trkpt lat="49.28909" lon="1.18454">
        <ele>71</ele>
        <time>2025-09-09T13:27:47.308Z</time>
      </trkpt>
      <trkpt lat="49.28904" lon="1.18452">
        <ele>71</ele>
        <time>2025-09-09T13:27:51.821Z</time>
      </trkpt>
      <trkpt lat="49.28899" lon="1.18451">
        <ele>72</ele>
        <time>2025-09-09T13:27:56.255Z</time>
      </trkpt>
      <trkpt lat="49.28894" lon="1.18449">
        <ele>72</ele>
        <time>2025-09-09T13:28:00.470Z</time>
      </trkpt>
      <trkpt lat="49.2889" lon="1.18448">
        <ele>72</ele>
        <time>2025-09-09T13:28:04.474Z</time>
      </trkpt>
      <trkpt lat="49.28885" lon="1.18447">
        <ele>72</ele>
        <time>2025-09-09T13:28:08.822Z</time>
      </trkpt>
      <trkpt lat="49.2888" lon="1.18446">
        <ele>72</ele>
        <time>2025-09-09T13:28:13.429Z</time>
      </trkpt>
      <trkpt lat="49.28876" lon="1.18443">
        <ele>72</ele>
        <time>2025-09-09T13:28:17.513Z</time>
      </trkpt>
      <trkpt lat="49.28871" lon="1.18441">
        <ele>73</ele>
        <time>2025-09-09T13:28:22.235Z</time>
      </trkpt>
      <trkpt lat="49.28866" lon="1.18439">
        <ele>73</ele>
        <time>2025-09-09T13:28:26.696Z</time>
      </trkpt>
      <trkpt lat="49.28861" lon="1.18438">
        <ele>73</ele>
        <time>2025-09-09T13:28:30.824Z</time>
      </trkpt>
      <trkpt lat="49.28856" lon="1.18438">
        <ele>73</ele>
        <time>2025-09-09T13:28:34.975Z</time>
      </trkpt>
      <trkpt lat="49.28852" lon="1.18437">
        <ele>73</ele>
        <time>2025-09-09T13:28:38.996Z</time>
      </trkpt>
      <trkpt lat="49.28847" lon="1.18436">
        <ele>76</ele>
        <time>2025-09-09T13:28:43.694Z</time>
      </trkpt>
      <trkpt lat="49.28841" lon="1.18436">
        <ele>76</ele>
        <time>2025-09-09T13:28:48.531Z</time>
      </trkpt>
      <trkpt lat="49.28836" lon="1.18434">
        <ele>76</ele>
        <time>2025-09-09T13:28:52.973Z</time>
      </trkpt>
      <trkpt lat="49.28829" lon="1.18432">
        <ele>76</ele>
        <time>2025-09-09T13:28:57.653Z</time>
      </trkpt>
      <trkpt lat="49.28823" lon="1.18431">
        <ele>76</ele>
        <time>2025-09-09T13:29:02.755Z</time>
      </trkpt>
      <trkpt lat="49.28818" lon="1.18429">
        <ele>80</ele>
        <time>2025-09-09T13:29:06.821Z</time>
      </trkpt>
      <trkpt lat="49.28814" lon="1.18429">
        <ele>80</ele>
        <time>2025-09-09T13:29:11.350Z</time>
      </trkpt>
      <trkpt lat="49.2881" lon="1.18427">
        <ele>80</ele>
        <time>2025-09-09T13:29:15.451Z</time>
      </trkpt>
      <trkpt lat="49.28805" lon="1.18425">
        <ele>80</ele>
        <time>2025-09-09T13:29:20.596Z</time>
      </trkpt>
      <trkpt lat="49.288" lon="1.18424">
        <ele>80</ele>
        <time>2025-09-09T13:29:25.417Z</time>
      </trkpt>
      <trkpt lat="49.28795" lon="1.18422">
        <ele>80</ele>
        <time>2025-09-09T13:29:29.817Z</time>
      </trkpt>
      <trkpt lat="49.28794" lon="1.18418">
        <ele>80</ele>
        <time>2025-09-09T13:29:33.822Z</time>
      </trkpt>
      <trkpt lat="49.28789" lon="1.18419">
        <ele>81</ele>
        <time>2025-09-09T13:29:38.009Z</time>
      </trkpt>
      <trkpt lat="49.28784" lon="1.18418">
        <ele>81</ele>
        <time>2025-09-09T13:29:42.467Z</time>
      </trkpt>
      <trkpt lat="49.2878" lon="1.18417">
        <ele>81</ele>
        <time>2025-09-09T13:29:46.822Z</time>
      </trkpt>
      <trkpt lat="49.28774" lon="1.18416">
        <ele>81</ele>
        <time>2025-09-09T13:29:51.793Z</time>
      </trkpt>
      <trkpt lat="49.28769" lon="1.18415">
        <ele>81</ele>
        <time>2025-09-09T13:29:56.429Z</time>
      </trkpt>
      <trkpt lat="49.28764" lon="1.18412">
        <ele>81</ele>
        <time>2025-09-09T13:30:00.821Z</time>
      </trkpt>
      <trkpt lat="49.2876" lon="1.18411">
        <ele>80</ele>
        <time>2025-09-09T13:30:04.825Z</time>
      </trkpt>
      <trkpt lat="49.28755" lon="1.1841">
        <ele>80</ele>
        <time>2025-09-09T13:30:09.515Z</time>
      </trkpt>
      <trkpt lat="49.2875" lon="1.18409">
        <ele>80</ele>
        <time>2025-09-09T13:30:14.375Z</time>
      </trkpt>
      <trkpt lat="49.28745" lon="1.18407">
        <ele>80</ele>
        <time>2025-09-09T13:30:18.730Z</time>
      </trkpt>
      <trkpt lat="49.28741" lon="1.18405">
        <ele>80</ele>
        <time>2025-09-09T13:30:22.824Z</time>
      </trkpt>
      <trkpt lat="49.28736" lon="1.18404">
        <ele>81</ele>
        <time>2025-09-09T13:30:27.651Z</time>
      </trkpt>
      <trkpt lat="49.2873" lon="1.18403">
        <ele>81</ele>
        <time>2025-09-09T13:30:32.822Z</time>
      </trkpt>
      <trkpt lat="49.28725" lon="1.18402">
        <ele>81</ele>
        <time>2025-09-09T13:30:37.291Z</time>
      </trkpt>
      <trkpt lat="49.2872" lon="1.18401">
        <ele>81</ele>
        <time>2025-09-09T13:30:41.550Z</time>
      </trkpt>
      <trkpt lat="49.28715" lon="1.184">
        <ele>81</ele>
        <time>2025-09-09T13:30:45.651Z</time>
      </trkpt>
      <trkpt lat="49.28711" lon="1.18399">
        <ele>81</ele>
        <time>2025-09-09T13:30:49.823Z</time>
      </trkpt>
      <trkpt lat="49.28706" lon="1.18397">
        <ele>83</ele>
        <time>2025-09-09T13:30:54.521Z</time>
      </trkpt>
      <trkpt lat="49.287" lon="1.18396">
        <ele>83</ele>
        <time>2025-09-09T13:30:58.813Z</time>
      </trkpt>
      <trkpt lat="49.28696" lon="1.18396">
        <ele>83</ele>
        <time>2025-09-09T13:31:03.142Z</time>
      </trkpt>
      <trkpt lat="49.2869" lon="1.18394">
        <ele>83</ele>
        <time>2025-09-09T13:31:07.637Z</time>
      </trkpt>
      <trkpt lat="49.28685" lon="1.18393">
        <ele>83</ele>
        <time>2025-09-09T13:31:11.823Z</time>
      </trkpt>
      <trkpt lat="49.2868" lon="1.18391">
        <ele>84</ele>
        <time>2025-09-09T13:31:16.823Z</time>
      </trkpt>
      <trkpt lat="49.28675" lon="1.18389">
        <ele>84</ele>
        <time>2025-09-09T13:31:21.114Z</time>
      </trkpt>
      <trkpt lat="49.28671" lon="1.18388">
        <ele>84</ele>
        <time>2025-09-09T13:31:25.311Z</time>
      </trkpt>
      <trkpt lat="49.28666" lon="1.18387">
        <ele>84</ele>
        <time>2025-09-09T13:31:29.520Z</time>
      </trkpt>
      <trkpt lat="49.28661" lon="1.18387">
        <ele>84</ele>
        <time>2025-09-09T13:31:33.748Z</time>
      </trkpt>
      <trkpt lat="49.28657" lon="1.18386">
        <ele>84</ele>
        <time>2025-09-09T13:31:38.228Z</time>
      </trkpt>
      <trkpt lat="49.28652" lon="1.18384">
        <ele>85</ele>
        <time>2025-09-09T13:31:42.388Z</time>
      </trkpt>
      <trkpt lat="49.28648" lon="1.18383">
        <ele>85</ele>
        <time>2025-09-09T13:31:46.612Z</time>
      </trkpt>
      <trkpt lat="49.28643" lon="1.18383">
        <ele>85</ele>
        <time>2025-09-09T13:31:50.821Z</time>
      </trkpt>
      <trkpt lat="49.28642" lon="1.18376">
        <ele>85</ele>
        <time>2025-09-09T13:31:54.821Z</time>
      </trkpt>
      <trkpt lat="49.28638" lon="1.18374">
        <ele>85</ele>
        <time>2025-09-09T13:31:59.292Z</time>
      </trkpt>
      <trkpt lat="49.28634" lon="1.18374">
        <ele>85</ele>
        <time>2025-09-09T13:32:03.305Z</time>
      </trkpt>
      <trkpt lat="49.28629" lon="1.18374">
        <ele>85</ele>
        <time>2025-09-09T13:32:07.694Z</time>
      </trkpt>
      <trkpt lat="49.28626" lon="1.18376">
        <ele>85</ele>
        <time>2025-09-09T13:34:33.825Z</time>
      </trkpt>
      <trkpt lat="49.28626" lon="1.18376">
        <ele>85</ele>
        <time>2025-09-09T13:34:38.822Z</time>
      </trkpt>
      <trkpt lat="49.28626" lon="1.18377">
        <ele>85</ele>
        <time>2025-09-09T13:34:42.826Z</time>
      </trkpt>
      <trkpt lat="49.28625" lon="1.18382">
        <ele>85</ele>
        <time>2025-09-09T13:34:47.822Z</time>
      </trkpt>
      <trkpt lat="49.28625" lon="1.18391">
        <ele>86</ele>
        <time>2025-09-09T13:34:52.821Z</time>
      </trkpt>
      <trkpt lat="49.28625" lon="1.184">
        <ele>86</ele>
        <time>2025-09-09T13:34:57.821Z</time>
      </trkpt>
      <trkpt lat="49.28624" lon="1.1841">
        <ele>87</ele>
        <time>2025-09-09T13:35:02.616Z</time>
      </trkpt>
      <trkpt lat="49.28623" lon="1.18418">
        <ele>87</ele>
        <time>2025-09-09T13:35:06.822Z</time>
      </trkpt>
      <trkpt lat="49.28622" lon="1.18427">
        <ele>87</ele>
        <time>2025-09-09T13:35:11.589Z</time>
      </trkpt>
      <trkpt lat="49.28621" lon="1.18435">
        <ele>88</ele>
        <time>2025-09-09T13:35:15.795Z</time>
      </trkpt>
      <trkpt lat="49.28621" lon="1.18444">
        <ele>88</ele>
        <time>2025-09-09T13:35:20.695Z</time>
      </trkpt>
      <trkpt lat="49.2862" lon="1.18452">
        <ele>88</ele>
        <time>2025-09-09T13:35:24.821Z</time>
      </trkpt>
      <trkpt lat="49.28619" lon="1.1846">
        <ele>88</ele>
        <time>2025-09-09T13:35:29.820Z</time>
      </trkpt>
      <trkpt lat="49.28619" lon="1.18467">
        <ele>88</ele>
        <time>2025-09-09T13:35:34.252Z</time>
      </trkpt>
      <trkpt lat="49.28619" lon="1.18472">
        <ele>88</ele>
        <time>2025-09-09T13:35:38.564Z</time>
      </trkpt>
      <trkpt lat="49.28616" lon="1.1848">
        <ele>88</ele>
        <time>2025-09-09T13:35:42.717Z</time>
      </trkpt>
      <trkpt lat="49.28616" lon="1.18487">
        <ele>88</ele>
        <time>2025-09-09T13:35:46.820Z</time>
      </trkpt>
      <trkpt lat="49.28615" lon="1.18493">
        <ele>88</ele>
        <time>2025-09-09T13:35:50.821Z</time>
      </trkpt>
      <trkpt lat="49.28614" lon="1.18501">
        <ele>88</ele>
        <time>2025-09-09T13:35:55.356Z</time>
      </trkpt>
      <trkpt lat="49.28614" lon="1.18508">
        <ele>88</ele>
        <time>2025-09-09T13:35:59.820Z</time>
      </trkpt>
      <trkpt lat="49.28612" lon="1.18516">
        <ele>88</ele>
        <time>2025-09-09T13:36:04.821Z</time>
      </trkpt>
      <trkpt lat="49.28611" lon="1.18523">
        <ele>88</ele>
        <time>2025-09-09T13:36:09.053Z</time>
      </trkpt>
      <trkpt lat="49.28605" lon="1.18523">
        <ele>88</ele>
        <time>2025-09-09T13:36:13.154Z</time>
      </trkpt>
      <trkpt lat="49.28599" lon="1.18523">
        <ele>88</ele>
        <time>2025-09-09T13:36:17.177Z</time>
      </trkpt>
      <trkpt lat="49.28594" lon="1.18522">
        <ele>92</ele>
        <time>2025-09-09T13:36:21.469Z</time>
      </trkpt>
      <trkpt lat="49.28589" lon="1.18523">
        <ele>92</ele>
        <time>2025-09-09T13:36:25.613Z</time>
      </trkpt>
      <trkpt lat="49.28583" lon="1.18524">
        <ele>92</ele>
        <time>2025-09-09T13:36:29.820Z</time>
      </trkpt>
      <trkpt lat="49.28578" lon="1.18524">
        <ele>92</ele>
        <time>2025-09-09T13:36:34.034Z</time>
      </trkpt>
      <trkpt lat="49.28572" lon="1.18523">
        <ele>92</ele>
        <time>2025-09-09T13:36:38.591Z</time>
      </trkpt>
      <trkpt lat="49.28567" lon="1.18522">
        <ele>92</ele>
        <time>2025-09-09T13:36:42.823Z</time>
      </trkpt>
      <trkpt lat="49.28562" lon="1.18521">
        <ele>92</ele>
        <time>2025-09-09T13:36:47.820Z</time>
      </trkpt>
      <trkpt lat="49.28558" lon="1.18518">
        <ele>92</ele>
        <time>2025-09-09T13:36:52.193Z</time>
      </trkpt>
      <trkpt lat="49.28553" lon="1.18517">
        <ele>92</ele>
        <time>2025-09-09T13:36:56.671Z</time>
      </trkpt>
      <trkpt lat="49.28549" lon="1.18516">
        <ele>92</ele>
        <time>2025-09-09T13:37:00.823Z</time>
      </trkpt>
      <trkpt lat="49.28544" lon="1.18514">
        <ele>92</ele>
        <time>2025-09-09T13:37:05.388Z</time>
      </trkpt>
      <trkpt lat="49.28539" lon="1.18514">
        <ele>91</ele>
        <time>2025-09-09T13:37:09.657Z</time>
      </trkpt>
      <trkpt lat="49.28535" lon="1.18513">
        <ele>91</ele>
        <time>2025-09-09T13:37:13.819Z</time>
      </trkpt>
      <trkpt lat="49.2853" lon="1.18513">
        <ele>91</ele>
        <time>2025-09-09T13:37:17.823Z</time>
      </trkpt>
      <trkpt lat="49.28526" lon="1.18512">
        <ele>91</ele>
        <time>2025-09-09T13:37:22.073Z</time>
      </trkpt>
      <trkpt lat="49.28521" lon="1.18512">
        <ele>91</ele>
        <time>2025-09-09T13:37:26.489Z</time>
      </trkpt>
      <trkpt lat="49.28516" lon="1.18509">
        <ele>91</ele>
        <time>2025-09-09T13:37:30.822Z</time>
      </trkpt>
      <trkpt lat="49.28512" lon="1.18507">
        <ele>91</ele>
        <time>2025-09-09T13:37:35.577Z</time>
      </trkpt>
      <trkpt lat="49.28507" lon="1.18505">
        <ele>91</ele>
        <time>2025-09-09T13:37:39.820Z</time>
      </trkpt>
      <trkpt lat="49.28503" lon="1.18502">
        <ele>91</ele>
        <time>2025-09-09T13:37:43.822Z</time>
      </trkpt>
      <trkpt lat="49.28498" lon="1.18501">
        <ele>91</ele>
        <time>2025-09-09T13:37:48.634Z</time>
      </trkpt>
      <trkpt lat="49.28494" lon="1.185">
        <ele>91</ele>
        <time>2025-09-09T13:37:52.874Z</time>
      </trkpt>
      <trkpt lat="49.28488" lon="1.18499">
        <ele>91</ele>
        <time>2025-09-09T13:37:57.713Z</time>
      </trkpt>
      <trkpt lat="49.28483" lon="1.18498">
        <ele>91</ele>
        <time>2025-09-09T13:38:02.332Z</time>
      </trkpt>
      <trkpt lat="49.28479" lon="1.18497">
        <ele>91</ele>
        <time>2025-09-09T13:38:06.573Z</time>
      </trkpt>
      <trkpt lat="49.28475" lon="1.18496">
        <ele>91</ele>
        <time>2025-09-09T13:38:11.236Z</time>
      </trkpt>
      <trkpt lat="49.28471" lon="1.18494">
        <ele>91</ele>
        <time>2025-09-09T13:38:15.494Z</time>
      </trkpt>
      <trkpt lat="49.28466" lon="1.18492">
        <ele>91</ele>
        <time>2025-09-09T13:38:19.823Z</time>
      </trkpt>
      <trkpt lat="49.28462" lon="1.1849">
        <ele>91</ele>
        <time>2025-09-09T13:38:24.275Z</time>
      </trkpt>
      <trkpt lat="49.28457" lon="1.1849">
        <ele>92</ele>
        <time>2025-09-09T13:38:28.821Z</time>
      </trkpt>
      <trkpt lat="49.28452" lon="1.18491">
        <ele>92</ele>
        <time>2025-09-09T13:38:33.749Z</time>
      </trkpt>
      <trkpt lat="49.28447" lon="1.18489">
        <ele>92</ele>
        <time>2025-09-09T13:38:37.822Z</time>
      </trkpt>
      <trkpt lat="49.28442" lon="1.18488">
        <ele>92</ele>
        <time>2025-09-09T13:38:42.689Z</time>
      </trkpt>
      <trkpt lat="49.28437" lon="1.18487">
        <ele>92</ele>
        <time>2025-09-09T13:38:47.333Z</time>
      </trkpt>
      <trkpt lat="49.28433" lon="1.18485">
        <ele>91</ele>
        <time>2025-09-09T13:38:51.653Z</time>
      </trkpt>
      <trkpt lat="49.28428" lon="1.18484">
        <ele>93</ele>
        <time>2025-09-09T13:38:56.315Z</time>
      </trkpt>
      <trkpt lat="49.28424" lon="1.18484">
        <ele>93</ele>
        <time>2025-09-09T13:39:00.557Z</time>
      </trkpt>
      <trkpt lat="49.28419" lon="1.18483">
        <ele>93</ele>
        <time>2025-09-09T13:39:05.614Z</time>
      </trkpt>
      <trkpt lat="49.28415" lon="1.18483">
        <ele>93</ele>
        <time>2025-09-09T13:39:09.821Z</time>
      </trkpt>
      <trkpt lat="49.2841" lon="1.18481">
        <ele>93</ele>
        <time>2025-09-09T13:39:14.333Z</time>
      </trkpt>
      <trkpt lat="49.28406" lon="1.18479">
        <ele>93</ele>
        <time>2025-09-09T13:39:18.821Z</time>
      </trkpt>
      <trkpt lat="49.28402" lon="1.18477">
        <ele>98</ele>
        <time>2025-09-09T13:39:23.097Z</time>
      </trkpt>
      <trkpt lat="49.28398" lon="1.18475">
        <ele>98</ele>
        <time>2025-09-09T13:39:27.670Z</time>
      </trkpt>
      <trkpt lat="49.28395" lon="1.18475">
        <ele>98</ele>
        <time>2025-09-09T13:39:31.709Z</time>
      </trkpt>
      <trkpt lat="49.28391" lon="1.18474">
        <ele>98</ele>
        <time>2025-09-09T13:39:35.819Z</time>
      </trkpt>
      <trkpt lat="49.28387" lon="1.18475">
        <ele>98</ele>
        <time>2025-09-09T13:39:39.972Z</time>
      </trkpt>
      <trkpt lat="49.28382" lon="1.18474">
        <ele>98</ele>
        <time>2025-09-09T13:39:44.823Z</time>
      </trkpt>
      <trkpt lat="49.28377" lon="1.18473">
        <ele>98</ele>
        <time>2025-09-09T13:39:49.551Z</time>
      </trkpt>
      <trkpt lat="49.28372" lon="1.18472">
        <ele>103</ele>
        <time>2025-09-09T13:39:53.823Z</time>
      </trkpt>
      <trkpt lat="49.28366" lon="1.18473">
        <ele>103</ele>
        <time>2025-09-09T13:39:58.297Z</time>
      </trkpt>
      <trkpt lat="49.2836" lon="1.18473">
        <ele>103</ele>
        <time>2025-09-09T13:40:02.414Z</time>
      </trkpt>
      <trkpt lat="49.28356" lon="1.18473">
        <ele>103</ele>
        <time>2025-09-09T13:40:06.821Z</time>
      </trkpt>
      <trkpt lat="49.28353" lon="1.18471">
        <ele>103</ele>
        <time>2025-09-09T13:40:10.821Z</time>
      </trkpt>
      <trkpt lat="49.28348" lon="1.18471">
        <ele>103</ele>
        <time>2025-09-09T13:40:15.820Z</time>
      </trkpt>
      <trkpt lat="49.28344" lon="1.18469">
        <ele>106</ele>
        <time>2025-09-09T13:40:20.230Z</time>
      </trkpt>
      <trkpt lat="49.28339" lon="1.18468">
        <ele>106</ele>
        <time>2025-09-09T13:40:24.813Z</time>
      </trkpt>
      <trkpt lat="49.28336" lon="1.18468">
        <ele>106</ele>
        <time>2025-09-09T13:40:28.823Z</time>
      </trkpt>
      <trkpt lat="49.28331" lon="1.18467">
        <ele>106</ele>
        <time>2025-09-09T13:40:33.814Z</time>
      </trkpt>
      <trkpt lat="49.28327" lon="1.18466">
        <ele>106</ele>
        <time>2025-09-09T13:40:37.820Z</time>
      </trkpt>
      <trkpt lat="49.28323" lon="1.18464">
        <ele>106</ele>
        <time>2025-09-09T13:40:42.596Z</time>
      </trkpt>
      <trkpt lat="49.28319" lon="1.18463">
        <ele>107</ele>
        <time>2025-09-09T13:40:46.896Z</time>
      </trkpt>
      <trkpt lat="49.28314" lon="1.18461">
        <ele>107</ele>
        <time>2025-09-09T13:40:51.629Z</time>
      </trkpt>
      <trkpt lat="49.2831" lon="1.18459">
        <ele>107</ele>
        <time>2025-09-09T13:40:55.823Z</time>
      </trkpt>
      <trkpt lat="49.28305" lon="1.18458">
        <ele>106</ele>
        <time>2025-09-09T13:41:00.471Z</time>
      </trkpt>
      <trkpt lat="49.28301" lon="1.18455">
        <ele>106</ele>
        <time>2025-09-09T13:41:04.823Z</time>
      </trkpt>
      <trkpt lat="49.28296" lon="1.18454">
        <ele>106</ele>
        <time>2025-09-09T13:41:09.330Z</time>
      </trkpt>
      <trkpt lat="49.28293" lon="1.18453">
        <ele>106</ele>
        <time>2025-09-09T13:41:13.334Z</time>
      </trkpt>
      <trkpt lat="49.28288" lon="1.18451">
        <ele>108</ele>
        <time>2025-09-09T13:41:17.777Z</time>
      </trkpt>
      <trkpt lat="49.28284" lon="1.1845">
        <ele>108</ele>
        <time>2025-09-09T13:41:22.729Z</time>
      </trkpt>
      <trkpt lat="49.2828" lon="1.18449">
        <ele>108</ele>
        <time>2025-09-09T13:41:26.822Z</time>
      </trkpt>
      <trkpt lat="49.28275" lon="1.18449">
        <ele>108</ele>
        <time>2025-09-09T13:41:31.430Z</time>
      </trkpt>
      <trkpt lat="49.2827" lon="1.18449">
        <ele>108</ele>
        <time>2025-09-09T13:41:35.794Z</time>
      </trkpt>
      <trkpt lat="49.28265" lon="1.18449">
        <ele>108</ele>
        <time>2025-09-09T13:41:39.821Z</time>
      </trkpt>
      <trkpt lat="49.28261" lon="1.18448">
        <ele>108</ele>
        <time>2025-09-09T13:41:44.101Z</time>
      </trkpt>
      <trkpt lat="49.28257" lon="1.18447">
        <ele>108</ele>
        <time>2025-09-09T13:41:48.236Z</time>
      </trkpt>
      <trkpt lat="49.28252" lon="1.18446">
        <ele>108</ele>
        <time>2025-09-09T13:41:52.652Z</time>
      </trkpt>
      <trkpt lat="49.28248" lon="1.18444">
        <ele>108</ele>
        <time>2025-09-09T13:41:57.270Z</time>
      </trkpt>
      <trkpt lat="49.28244" lon="1.18442">
        <ele>108</ele>
        <time>2025-09-09T13:42:01.529Z</time>
      </trkpt>
      <trkpt lat="49.28239" lon="1.18441">
        <ele>108</ele>
        <time>2025-09-09T13:42:06.191Z</time>
      </trkpt>
      <trkpt lat="49.28234" lon="1.18441">
        <ele>109</ele>
        <time>2025-09-09T13:42:10.352Z</time>
      </trkpt>
      <trkpt lat="49.2823" lon="1.18438">
        <ele>109</ele>
        <time>2025-09-09T13:42:14.820Z</time>
      </trkpt>
      <trkpt lat="49.28223" lon="1.18423">
        <ele>109</ele>
        <time>2025-09-09T13:45:46.820Z</time>
      </trkpt>
      <trkpt lat="49.28222" lon="1.18415">
        <ele>109</ele>
        <time>2025-09-09T13:45:51.819Z</time>
      </trkpt>
      <trkpt lat="49.28226" lon="1.18409">
        <ele>109</ele>
        <time>2025-09-09T13:45:56.818Z</time>
      </trkpt>
      <trkpt lat="49.28227" lon="1.18398">
        <ele>111</ele>
        <time>2025-09-09T13:46:01.469Z</time>
      </trkpt>
      <trkpt lat="49.28228" lon="1.18391">
        <ele>111</ele>
        <time>2025-09-09T13:46:05.822Z</time>
      </trkpt>
      <trkpt lat="49.28227" lon="1.18383">
        <ele>111</ele>
        <time>2025-09-09T13:46:10.153Z</time>
      </trkpt>
      <trkpt lat="49.28226" lon="1.18377">
        <ele>111</ele>
        <time>2025-09-09T13:46:14.606Z</time>
      </trkpt>
      <trkpt lat="49.28227" lon="1.1837">
        <ele>112</ele>
        <time>2025-09-09T13:46:19.232Z</time>
      </trkpt>
      <trkpt lat="49.28228" lon="1.18362">
        <ele>112</ele>
        <time>2025-09-09T13:46:23.789Z</time>
      </trkpt>
      <trkpt lat="49.28229" lon="1.18354">
        <ele>112</ele>
        <time>2025-09-09T13:46:28.574Z</time>
      </trkpt>
      <trkpt lat="49.28229" lon="1.18345">
        <ele>113</ele>
        <time>2025-09-09T13:46:32.755Z</time>
      </trkpt>
      <trkpt lat="49.28229" lon="1.18337">
        <ele>113</ele>
        <time>2025-09-09T13:46:37.275Z</time>
      </trkpt>
      <trkpt lat="49.28231" lon="1.1833">
        <ele>113</ele>
        <time>2025-09-09T13:46:41.770Z</time>
      </trkpt>
      <trkpt lat="49.28233" lon="1.18323">
        <ele>113</ele>
        <time>2025-09-09T13:46:46.310Z</time>
      </trkpt>
      <trkpt lat="49.28235" lon="1.18316">
        <ele>114</ele>
        <time>2025-09-09T13:46:50.814Z</time>
      </trkpt>
      <trkpt lat="49.28236" lon="1.18308">
        <ele>114</ele>
        <time>2025-09-09T13:46:54.821Z</time>
      </trkpt>
      <trkpt lat="49.28237" lon="1.183">
        <ele>110</ele>
        <time>2025-09-09T13:46:59.701Z</time>
      </trkpt>
      <trkpt lat="49.28237" lon="1.18291">
        <ele>111</ele>
        <time>2025-09-09T13:47:04.353Z</time>
      </trkpt>
      <trkpt lat="49.28232" lon="1.1829">
        <ele>114</ele>
        <time>2025-09-09T13:47:08.822Z</time>
      </trkpt>
      <trkpt lat="49.28228" lon="1.18291">
        <ele>114</ele>
        <time>2025-09-09T13:47:12.949Z</time>
      </trkpt>
      <trkpt lat="49.28222" lon="1.18291">
        <ele>114</ele>
        <time>2025-09-09T13:47:17.822Z</time>
      </trkpt>
      <trkpt lat="49.28217" lon="1.18289">
        <ele>114</ele>
        <time>2025-09-09T13:47:22.133Z</time>
      </trkpt>
      <trkpt lat="49.28212" lon="1.18288">
        <ele>114</ele>
        <time>2025-09-09T13:47:26.189Z</time>
      </trkpt>
      <trkpt lat="49.28207" lon="1.18287">
        <ele>116</ele>
        <time>2025-09-09T13:47:30.289Z</time>
      </trkpt>
      <trkpt lat="49.28202" lon="1.18286">
        <ele>116</ele>
        <time>2025-09-09T13:47:34.732Z</time>
      </trkpt>
      <trkpt lat="49.28197" lon="1.18284">
        <ele>116</ele>
        <time>2025-09-09T13:47:39.429Z</time>
      </trkpt>
      <trkpt lat="49.28193" lon="1.18282">
        <ele>116</ele>
        <time>2025-09-09T13:47:43.452Z</time>
      </trkpt>
      <trkpt lat="49.28189" lon="1.18279">
        <ele>116</ele>
        <time>2025-09-09T13:47:47.788Z</time>
      </trkpt>
      <trkpt lat="49.28185" lon="1.18277">
        <ele>116</ele>
        <time>2025-09-09T13:47:51.822Z</time>
      </trkpt>
      <trkpt lat="49.2818" lon="1.18275">
        <ele>118</ele>
        <time>2025-09-09T13:47:56.436Z</time>
      </trkpt>
      <trkpt lat="49.28176" lon="1.18275">
        <ele>118</ele>
        <time>2025-09-09T13:48:00.515Z</time>
      </trkpt>
      <trkpt lat="49.28172" lon="1.18273">
        <ele>118</ele>
        <time>2025-09-09T13:48:04.821Z</time>
      </trkpt>
      <trkpt lat="49.28168" lon="1.18271">
        <ele>118</ele>
        <time>2025-09-09T13:48:09.089Z</time>
      </trkpt>
      <trkpt lat="49.28163" lon="1.1827">
        <ele>118</ele>
        <time>2025-09-09T13:48:13.470Z</time>
      </trkpt>
      <trkpt lat="49.28159" lon="1.18269">
        <ele>118</ele>
        <time>2025-09-09T13:48:17.711Z</time>
      </trkpt>
      <trkpt lat="49.28154" lon="1.18268">
        <ele>118</ele>
        <time>2025-09-09T13:48:21.820Z</time>
      </trkpt>
      <trkpt lat="49.28149" lon="1.18268">
        <ele>119</ele>
        <time>2025-09-09T13:48:26.211Z</time>
      </trkpt>
      <trkpt lat="49.28144" lon="1.18267">
        <ele>119</ele>
        <time>2025-09-09T13:48:30.670Z</time>
      </trkpt>
      <trkpt lat="49.2814" lon="1.18266">
        <ele>119</ele>
        <time>2025-09-09T13:48:34.843Z</time>
      </trkpt>
      <trkpt lat="49.28135" lon="1.18263">
        <ele>120</ele>
        <time>2025-09-09T13:48:39.153Z</time>
      </trkpt>
      <trkpt lat="49.28131" lon="1.18262">
        <ele>120</ele>
        <time>2025-09-09T13:48:43.411Z</time>
      </trkpt>
      <trkpt lat="49.28126" lon="1.18261">
        <ele>120</ele>
        <time>2025-09-09T13:48:47.669Z</time>
      </trkpt>
      <trkpt lat="49.28122" lon="1.18259">
        <ele>121</ele>
        <time>2025-09-09T13:48:51.938Z</time>
      </trkpt>
      <trkpt lat="49.28117" lon="1.18258">
        <ele>121</ele>
        <time>2025-09-09T13:48:56.388Z</time>
      </trkpt>
      <trkpt lat="49.28112" lon="1.18257">
        <ele>121</ele>
        <time>2025-09-09T13:49:00.612Z</time>
      </trkpt>
      <trkpt lat="49.28106" lon="1.18255">
        <ele>121</ele>
        <time>2025-09-09T13:49:05.810Z</time>
      </trkpt>
      <trkpt lat="49.28102" lon="1.18254">
        <ele>121</ele>
        <time>2025-09-09T13:49:10.533Z</time>
      </trkpt>
      <trkpt lat="49.28098" lon="1.18252">
        <ele>121</ele>
        <time>2025-09-09T13:49:14.819Z</time>
      </trkpt>
      <trkpt lat="49.28093" lon="1.18252">
        <ele>122</ele>
        <time>2025-09-09T13:49:19.349Z</time>
      </trkpt>
      <trkpt lat="49.28089" lon="1.18252">
        <ele>122</ele>
        <time>2025-09-09T13:49:23.821Z</time>
      </trkpt>
      <trkpt lat="49.28084" lon="1.18252">
        <ele>122</ele>
        <time>2025-09-09T13:49:28.129Z</time>
      </trkpt>
      <trkpt lat="49.2808" lon="1.1825">
        <ele>122</ele>
        <time>2025-09-09T13:49:32.493Z</time>
      </trkpt>
      <trkpt lat="49.28076" lon="1.18248">
        <ele>122</ele>
        <time>2025-09-09T13:49:37.015Z</time>
      </trkpt>
      <trkpt lat="49.28071" lon="1.18247">
        <ele>122</ele>
        <time>2025-09-09T13:49:41.651Z</time>
      </trkpt>
      <trkpt lat="49.28067" lon="1.18246">
        <ele>123</ele>
        <time>2025-09-09T13:49:45.817Z</time>
      </trkpt>
      <trkpt lat="49.28062" lon="1.18244">
        <ele>123</ele>
        <time>2025-09-09T13:49:50.211Z</time>
      </trkpt>
      <trkpt lat="49.28058" lon="1.18242">
        <ele>123</ele>
        <time>2025-09-09T13:49:54.672Z</time>
      </trkpt>
      <trkpt lat="49.28054" lon="1.18242">
        <ele>123</ele>
        <time>2025-09-09T13:49:58.818Z</time>
      </trkpt>
      <trkpt lat="49.28049" lon="1.18242">
        <ele>123</ele>
        <time>2025-09-09T13:50:02.820Z</time>
      </trkpt>
      <trkpt lat="49.28044" lon="1.18241">
        <ele>123</ele>
        <time>2025-09-09T13:50:07.333Z</time>
      </trkpt>
      <trkpt lat="49.2804" lon="1.18239">
        <ele>124</ele>
        <time>2025-09-09T13:50:11.688Z</time>
      </trkpt>
      <trkpt lat="49.28036" lon="1.18235">
        <ele>125</ele>
        <time>2025-09-09T13:50:15.821Z</time>
      </trkpt>
      <trkpt lat="49.28032" lon="1.18233">
        <ele>125</ele>
        <time>2025-09-09T13:50:19.996Z</time>
      </trkpt>
      <trkpt lat="49.28027" lon="1.18231">
        <ele>125</ele>
        <time>2025-09-09T13:50:24.209Z</time>
      </trkpt>
      <trkpt lat="49.28022" lon="1.1823">
        <ele>125</ele>
        <time>2025-09-09T13:50:28.634Z</time>
      </trkpt>
      <trkpt lat="49.28018" lon="1.18229">
        <ele>125</ele>
        <time>2025-09-09T13:50:32.820Z</time>
      </trkpt>
      <trkpt lat="49.28012" lon="1.18227">
        <ele>126</ele>
        <time>2025-09-09T13:50:37.522Z</time>
      </trkpt>
      <trkpt lat="49.28008" lon="1.18227">
        <ele>126</ele>
        <time>2025-09-09T13:50:41.821Z</time>
      </trkpt>
      <trkpt lat="49.28003" lon="1.18225">
        <ele>126</ele>
        <time>2025-09-09T13:50:46.713Z</time>
      </trkpt>
      <trkpt lat="49.27998" lon="1.18223">
        <ele>126</ele>
        <time>2025-09-09T13:50:51.490Z</time>
      </trkpt>
      <trkpt lat="49.27992" lon="1.18223">
        <ele>126</ele>
        <time>2025-09-09T13:50:56.231Z</time>
      </trkpt>
      <trkpt lat="49.27987" lon="1.18222">
        <ele>126</ele>
        <time>2025-09-09T13:51:00.819Z</time>
      </trkpt>
      <trkpt lat="49.27982" lon="1.18221">
        <ele>125</ele>
        <time>2025-09-09T13:51:05.822Z</time>
      </trkpt>
      <trkpt lat="49.27976" lon="1.18221">
        <ele>125</ele>
        <time>2025-09-09T13:51:10.819Z</time>
      </trkpt>
      <trkpt lat="49.27972" lon="1.18221">
        <ele>125</ele>
        <time>2025-09-09T13:51:15.101Z</time>
      </trkpt>
      <trkpt lat="49.27967" lon="1.1822">
        <ele>125</ele>
        <time>2025-09-09T13:51:19.473Z</time>
      </trkpt>
      <trkpt lat="49.27962" lon="1.18219">
        <ele>125</ele>
        <time>2025-09-09T13:51:23.810Z</time>
      </trkpt>
      <trkpt lat="49.27957" lon="1.18217">
        <ele>125</ele>
        <time>2025-09-09T13:51:28.455Z</time>
      </trkpt>
      <trkpt lat="49.27952" lon="1.18215">
        <ele>125</ele>
        <time>2025-09-09T13:51:32.821Z</time>
      </trkpt>
      <trkpt lat="49.27947" lon="1.18213">
        <ele>125</ele>
        <time>2025-09-09T13:51:37.820Z</time>
      </trkpt>
      <trkpt lat="49.27942" lon="1.18212">
        <ele>125</ele>
        <time>2025-09-09T13:51:42.313Z</time>
      </trkpt>
      <trkpt lat="49.27938" lon="1.18212">
        <ele>125</ele>
        <time>2025-09-09T13:51:46.490Z</time>
      </trkpt>
      <trkpt lat="49.27933" lon="1.18209">
        <ele>125</ele>
        <time>2025-09-09T13:51:51.249Z</time>
      </trkpt>
      <trkpt lat="49.27929" lon="1.18206">
        <ele>126</ele>
        <time>2025-09-09T13:51:55.819Z</time>
      </trkpt>
      <trkpt lat="49.27925" lon="1.18204">
        <ele>126</ele>
        <time>2025-09-09T13:51:59.819Z</time>
      </trkpt>
      <trkpt lat="49.2792" lon="1.18203">
        <ele>126</ele>
        <time>2025-09-09T13:52:04.270Z</time>
      </trkpt>
      <trkpt lat="49.27916" lon="1.18203">
        <ele>126</ele>
        <time>2025-09-09T13:52:08.818Z</time>
      </trkpt>
      <trkpt lat="49.2791" lon="1.18204">
        <ele>126</ele>
        <time>2025-09-09T13:52:13.815Z</time>
      </trkpt>
      <trkpt lat="49.27905" lon="1.18202">
        <ele>126</ele>
        <time>2025-09-09T13:52:18.513Z</time>
      </trkpt>
      <trkpt lat="49.27894" lon="1.18198">
        <ele>126</ele>
        <time>2025-09-09T13:56:37.819Z</time>
      </trkpt>
      <trkpt lat="49.27893" lon="1.18199">
        <ele>126</ele>
        <time>2025-09-09T13:56:41.818Z</time>
      </trkpt>
      <trkpt lat="49.27893" lon="1.18201">
        <ele>126</ele>
        <time>2025-09-09T13:56:46.818Z</time>
      </trkpt>
      <trkpt lat="49.27893" lon="1.18207">
        <ele>126</ele>
        <time>2025-09-09T13:56:51.817Z</time>
      </trkpt>
      <trkpt lat="49.27892" lon="1.18216">
        <ele>126</ele>
        <time>2025-09-09T13:56:56.310Z</time>
      </trkpt>
      <trkpt lat="49.27892" lon="1.18222">
        <ele>126</ele>
        <time>2025-09-09T13:57:00.650Z</time>
      </trkpt>
      <trkpt lat="49.27892" lon="1.1823">
        <ele>126</ele>
        <time>2025-09-09T13:57:04.820Z</time>
      </trkpt>
      <trkpt lat="49.27892" lon="1.18239">
        <ele>126</ele>
        <time>2025-09-09T13:57:09.631Z</time>
      </trkpt>
      <trkpt lat="49.2789" lon="1.18244">
        <ele>126</ele>
        <time>2025-09-09T13:57:13.827Z</time>
      </trkpt>
      <trkpt lat="49.27891" lon="1.18242">
        <ele>126</ele>
        <time>2025-09-09T13:57:25.639Z</time>
      </trkpt>
      <trkpt lat="49.27891" lon="1.18243">
        <ele>126</ele>
        <time>2025-09-09T13:57:29.816Z</time>
      </trkpt>
      <trkpt lat="49.27891" lon="1.18247">
        <ele>126</ele>
        <time>2025-09-09T13:57:33.818Z</time>
      </trkpt>
      <trkpt lat="49.27891" lon="1.18254">
        <ele>126</ele>
        <time>2025-09-09T13:57:37.819Z</time>
      </trkpt>
      <trkpt lat="49.2789" lon="1.18263">
        <ele>126</ele>
        <time>2025-09-09T13:57:42.817Z</time>
      </trkpt>
      <trkpt lat="49.27888" lon="1.18272">
        <ele>127</ele>
        <time>2025-09-09T13:57:47.558Z</time>
      </trkpt>
      <trkpt lat="49.27888" lon="1.1828">
        <ele>127</ele>
        <time>2025-09-09T13:57:51.817Z</time>
      </trkpt>
      <trkpt lat="49.27883" lon="1.18284">
        <ele>127</ele>
        <time>2025-09-09T13:57:56.533Z</time>
      </trkpt>
      <trkpt lat="49.27877" lon="1.18285">
        <ele>127</ele>
        <time>2025-09-09T13:58:00.816Z</time>
      </trkpt>
      <trkpt lat="49.27873" lon="1.18286">
        <ele>125</ele>
        <time>2025-09-09T13:58:04.819Z</time>
      </trkpt>
      <trkpt lat="49.27867" lon="1.18284">
        <ele>125</ele>
        <time>2025-09-09T13:58:09.528Z</time>
      </trkpt>
      <trkpt lat="49.27863" lon="1.18282">
        <ele>125</ele>
        <time>2025-09-09T13:58:13.808Z</time>
      </trkpt>
      <trkpt lat="49.27858" lon="1.18281">
        <ele>125</ele>
        <time>2025-09-09T13:58:17.821Z</time>
      </trkpt>
      <trkpt lat="49.27852" lon="1.18279">
        <ele>125</ele>
        <time>2025-09-09T13:58:22.821Z</time>
      </trkpt>
      <trkpt lat="49.27847" lon="1.18279">
        <ele>125</ele>
        <time>2025-09-09T13:58:27.330Z</time>
      </trkpt>
      <trkpt lat="49.27842" lon="1.18278">
        <ele>125</ele>
        <time>2025-09-09T13:58:31.819Z</time>
      </trkpt>
      <trkpt lat="49.27837" lon="1.18277">
        <ele>125</ele>
        <time>2025-09-09T13:58:36.820Z</time>
      </trkpt>
      <trkpt lat="49.27831" lon="1.18275">
        <ele>125</ele>
        <time>2025-09-09T13:58:41.338Z</time>
      </trkpt>
      <trkpt lat="49.27826" lon="1.18272">
        <ele>125</ele>
        <time>2025-09-09T13:58:45.818Z</time>
      </trkpt>
      <trkpt lat="49.27822" lon="1.18267">
        <ele>125</ele>
        <time>2025-09-09T13:58:50.275Z</time>
      </trkpt>
      <trkpt lat="49.2782" lon="1.1826">
        <ele>124</ele>
        <time>2025-09-09T13:58:54.818Z</time>
      </trkpt>
      <trkpt lat="49.27818" lon="1.18253">
        <ele>125</ele>
        <time>2025-09-09T13:58:59.696Z</time>
      </trkpt>
      <trkpt lat="49.27816" lon="1.18246">
        <ele>125</ele>
        <time>2025-09-09T13:59:03.820Z</time>
      </trkpt>
      <trkpt lat="49.27815" lon="1.18239">
        <ele>125</ele>
        <time>2025-09-09T13:59:08.416Z</time>
      </trkpt>
      <trkpt lat="49.27814" lon="1.18233">
        <ele>125</ele>
        <time>2025-09-09T13:59:12.819Z</time>
      </trkpt>
      <trkpt lat="49.27813" lon="1.18225">
        <ele>125</ele>
        <time>2025-09-09T13:59:17.775Z</time>
      </trkpt>
      <trkpt lat="49.27812" lon="1.18218">
        <ele>125</ele>
        <time>2025-09-09T13:59:22.235Z</time>
      </trkpt>
      <trkpt lat="49.27811" lon="1.18211">
        <ele>125</ele>
        <time>2025-09-09T13:59:26.821Z</time>
      </trkpt>
      <trkpt lat="49.27809" lon="1.18204">
        <ele>124</ele>
        <time>2025-09-09T13:59:31.034Z</time>
      </trkpt>
      <trkpt lat="49.27808" lon="1.18198">
        <ele>124</ele>
        <time>2025-09-09T13:59:35.353Z</time>
      </trkpt>
      <trkpt lat="49.27805" lon="1.18194">
        <ele>124</ele>
        <time>2025-09-09T13:59:39.393Z</time>
      </trkpt>
      <trkpt lat="49.27803" lon="1.18187">
        <ele>124</ele>
        <time>2025-09-09T13:59:43.810Z</time>
      </trkpt>
      <trkpt lat="49.27805" lon="1.18179">
        <ele>123</ele>
        <time>2025-09-09T13:59:48.630Z</time>
      </trkpt>
      <trkpt lat="49.27805" lon="1.18173">
        <ele>123</ele>
        <time>2025-09-09T13:59:52.819Z</time>
      </trkpt>
      <trkpt lat="49.27803" lon="1.18167">
        <ele>123</ele>
        <time>2025-09-09T13:59:57.534Z</time>
      </trkpt>
      <trkpt lat="49.27801" lon="1.18161">
        <ele>123</ele>
        <time>2025-09-09T14:00:01.816Z</time>
      </trkpt>
      <trkpt lat="49.27799" lon="1.18156">
        <ele>123</ele>
        <time>2025-09-09T14:00:05.973Z</time>
      </trkpt>
      <trkpt lat="49.27799" lon="1.18149">
        <ele>123</ele>
        <time>2025-09-09T14:00:10.432Z</time>
      </trkpt>
      <trkpt lat="49.27798" lon="1.18144">
        <ele>123</ele>
        <time>2025-09-09T14:00:14.816Z</time>
      </trkpt>
      <trkpt lat="49.27797" lon="1.18137">
        <ele>123</ele>
        <time>2025-09-09T14:00:18.820Z</time>
      </trkpt>
      <trkpt lat="49.27796" lon="1.18128">
        <ele>123</ele>
        <time>2025-09-09T14:00:23.820Z</time>
      </trkpt>
      <trkpt lat="49.27794" lon="1.1812">
        <ele>123</ele>
        <time>2025-09-09T14:00:28.753Z</time>
      </trkpt>
      <trkpt lat="49.27792" lon="1.18111">
        <ele>122</ele>
        <time>2025-09-09T14:00:33.433Z</time>
      </trkpt>
      <trkpt lat="49.2779" lon="1.18104">
        <ele>122</ele>
        <time>2025-09-09T14:00:37.817Z</time>
      </trkpt>
      <trkpt lat="49.27787" lon="1.18097">
        <ele>123</ele>
        <time>2025-09-09T14:00:42.029Z</time>
      </trkpt>
      <trkpt lat="49.27784" lon="1.18089">
        <ele>123</ele>
        <time>2025-09-09T14:00:46.392Z</time>
      </trkpt>
      <trkpt lat="49.27783" lon="1.18082">
        <ele>123</ele>
        <time>2025-09-09T14:00:50.554Z</time>
      </trkpt>
      <trkpt lat="49.27781" lon="1.18076">
        <ele>123</ele>
        <time>2025-09-09T14:00:54.819Z</time>
      </trkpt>
      <trkpt lat="49.27779" lon="1.1807">
        <ele>123</ele>
        <time>2025-09-09T14:00:58.822Z</time>
      </trkpt>
      <trkpt lat="49.27782" lon="1.18067">
        <ele>123</ele>
        <time>2025-09-09T14:14:01.817Z</time>
      </trkpt>
      <trkpt lat="49.27782" lon="1.18067">
        <ele>123</ele>
        <time>2025-09-09T14:14:15.816Z</time>
      </trkpt>
      <trkpt lat="49.27782" lon="1.18067">
        <ele>123</ele>
        <time>2025-09-09T14:14:20.818Z</time>
      </trkpt>
      <trkpt lat="49.27779" lon="1.18062">
        <ele>123</ele>
        <time>2025-09-09T14:14:25.817Z</time>
      </trkpt>
      <trkpt lat="49.27779" lon="1.18056">
        <ele>123</ele>
        <time>2025-09-09T14:14:29.817Z</time>
      </trkpt>
      <trkpt lat="49.27776" lon="1.1805">
        <ele>123</ele>
        <time>2025-09-09T14:14:34.394Z</time>
      </trkpt>
      <trkpt lat="49.27774" lon="1.18043">
        <ele>123</ele>
        <time>2025-09-09T14:14:38.816Z</time>
      </trkpt>
      <trkpt lat="49.27773" lon="1.18035">
        <ele>123</ele>
        <time>2025-09-09T14:14:43.560Z</time>
      </trkpt>
      <trkpt lat="49.27772" lon="1.18028">
        <ele>123</ele>
        <time>2025-09-09T14:14:47.816Z</time>
      </trkpt>
      <trkpt lat="49.2777" lon="1.18005">
        <ele>123</ele>
        <time>2025-09-09T14:15:14.819Z</time>
      </trkpt>
      <trkpt lat="49.2777" lon="1.18005">
        <ele>123</ele>
        <time>2025-09-09T14:15:20.816Z</time>
      </trkpt>
      <trkpt lat="49.2777" lon="1.18004">
        <ele>123</ele>
        <time>2025-09-09T14:15:27.814Z</time>
      </trkpt>
      <trkpt lat="49.2777" lon="1.18004">
        <ele>123</ele>
        <time>2025-09-09T14:15:32.816Z</time>
      </trkpt>
      <trkpt lat="49.2777" lon="1.18003">
        <ele>123</ele>
        <time>2025-09-09T14:15:36.817Z</time>
      </trkpt>
      <trkpt lat="49.2777" lon="1.18004">
        <ele>123</ele>
        <time>2025-09-09T14:16:57.820Z</time>
      </trkpt>
      <trkpt lat="49.2777" lon="1.18001">
        <ele>123</ele>
        <time>2025-09-09T14:17:02.818Z</time>
      </trkpt>
      <trkpt lat="49.27768" lon="1.17997">
        <ele>123</ele>
        <time>2025-09-09T14:17:06.816Z</time>
      </trkpt>
      <trkpt lat="49.27763" lon="1.17993">
        <ele>123</ele>
        <time>2025-09-09T14:17:10.818Z</time>
      </trkpt>
      <trkpt lat="49.27758" lon="1.1799">
        <ele>123</ele>
        <time>2025-09-09T14:17:15.252Z</time>
      </trkpt>
      <trkpt lat="49.27755" lon="1.17985">
        <ele>124</ele>
        <time>2025-09-09T14:17:19.819Z</time>
      </trkpt>
      <trkpt lat="49.27751" lon="1.17979">
        <ele>124</ele>
        <time>2025-09-09T14:17:24.818Z</time>
      </trkpt>
      <trkpt lat="49.27747" lon="1.17971">
        <ele>124</ele>
        <time>2025-09-09T14:17:29.816Z</time>
      </trkpt>
      <trkpt lat="49.27745" lon="1.17963">
        <ele>124</ele>
        <time>2025-09-09T14:17:34.521Z</time>
      </trkpt>
      <trkpt lat="49.27742" lon="1.17956">
        <ele>123</ele>
        <time>2025-09-09T14:17:38.817Z</time>
      </trkpt>
      <trkpt lat="49.27738" lon="1.1795">
        <ele>123</ele>
        <time>2025-09-09T14:17:43.817Z</time>
      </trkpt>
      <trkpt lat="49.27734" lon="1.17945">
        <ele>122</ele>
        <time>2025-09-09T14:17:48.619Z</time>
      </trkpt>
      <trkpt lat="49.27731" lon="1.17941">
        <ele>122</ele>
        <time>2025-09-09T14:17:52.742Z</time>
      </trkpt>
      <trkpt lat="49.27728" lon="1.17933">
        <ele>122</ele>
        <time>2025-09-09T14:17:57.557Z</time>
      </trkpt>
      <trkpt lat="49.27726" lon="1.17927">
        <ele>121</ele>
        <time>2025-09-09T14:18:02.276Z</time>
      </trkpt>
      <trkpt lat="49.27724" lon="1.17921">
        <ele>121</ele>
        <time>2025-09-09T14:18:06.632Z</time>
      </trkpt>
      <trkpt lat="49.27721" lon="1.17914">
        <ele>121</ele>
        <time>2025-09-09T14:18:11.253Z</time>
      </trkpt>
      <trkpt lat="49.27718" lon="1.17907">
        <ele>121</ele>
        <time>2025-09-09T14:18:15.775Z</time>
      </trkpt>
      <trkpt lat="49.27715" lon="1.179">
        <ele>119</ele>
        <time>2025-09-09T14:18:20.313Z</time>
      </trkpt>
      <trkpt lat="49.27712" lon="1.17893">
        <ele>119</ele>
        <time>2025-09-09T14:18:24.756Z</time>
      </trkpt>
      <trkpt lat="49.27709" lon="1.17887">
        <ele>119</ele>
        <time>2025-09-09T14:18:28.818Z</time>
      </trkpt>
      <trkpt lat="49.27709" lon="1.17889">
        <ele>119</ele>
        <time>2025-09-09T14:18:33.312Z</time>
      </trkpt>
      <trkpt lat="49.27706" lon="1.17883">
        <ele>117</ele>
        <time>2025-09-09T14:18:37.816Z</time>
      </trkpt>
      <trkpt lat="49.27702" lon="1.17876">
        <ele>117</ele>
        <time>2025-09-09T14:18:42.373Z</time>
      </trkpt>
      <trkpt lat="49.27699" lon="1.17869">
        <ele>115</ele>
        <time>2025-09-09T14:18:46.618Z</time>
      </trkpt>
      <trkpt lat="49.27697" lon="1.17863">
        <ele>115</ele>
        <time>2025-09-09T14:18:50.815Z</time>
      </trkpt>
      <trkpt lat="49.27693" lon="1.17856">
        <ele>115</ele>
        <time>2025-09-09T14:18:55.797Z</time>
      </trkpt>
      <trkpt lat="49.27691" lon="1.17849">
        <ele>115</ele>
        <time>2025-09-09T14:18:59.812Z</time>
      </trkpt>
      <trkpt lat="49.27688" lon="1.17842">
        <ele>113</ele>
        <time>2025-09-09T14:19:04.453Z</time>
      </trkpt>
      <trkpt lat="49.27684" lon="1.17837">
        <ele>113</ele>
        <time>2025-09-09T14:19:08.576Z</time>
      </trkpt>
      <trkpt lat="49.2768" lon="1.17832">
        <ele>114</ele>
        <time>2025-09-09T14:19:12.817Z</time>
      </trkpt>
      <trkpt lat="49.27676" lon="1.17824">
        <ele>114</ele>
        <time>2025-09-09T14:19:17.816Z</time>
      </trkpt>
      <trkpt lat="49.27673" lon="1.17819">
        <ele>114</ele>
        <time>2025-09-09T14:19:21.817Z</time>
      </trkpt>
      <trkpt lat="49.27672" lon="1.17813">
        <ele>114</ele>
        <time>2025-09-09T14:19:26.088Z</time>
      </trkpt>
      <trkpt lat="49.27669" lon="1.17807">
        <ele>114</ele>
        <time>2025-09-09T14:19:30.388Z</time>
      </trkpt>
      <trkpt lat="49.27667" lon="1.17801">
        <ele>114</ele>
        <time>2025-09-09T14:19:34.577Z</time>
      </trkpt>
      <trkpt lat="49.27665" lon="1.17794">
        <ele>114</ele>
        <time>2025-09-09T14:19:38.818Z</time>
      </trkpt>
      <trkpt lat="49.27662" lon="1.17787">
        <ele>115</ele>
        <time>2025-09-09T14:19:43.819Z</time>
      </trkpt>
      <trkpt lat="49.27659" lon="1.1778">
        <ele>115</ele>
        <time>2025-09-09T14:19:48.373Z</time>
      </trkpt>
      <trkpt lat="49.27656" lon="1.17776">
        <ele>115</ele>
        <time>2025-09-09T14:19:52.453Z</time>
      </trkpt>
      <trkpt lat="49.27652" lon="1.17771">
        <ele>114</ele>
        <time>2025-09-09T14:19:56.789Z</time>
      </trkpt>
      <trkpt lat="49.2765" lon="1.17766">
        <ele>114</ele>
        <time>2025-09-09T14:20:01.172Z</time>
      </trkpt>
      <trkpt lat="49.27647" lon="1.1776">
        <ele>113</ele>
        <time>2025-09-09T14:20:05.817Z</time>
      </trkpt>
      <trkpt lat="49.27644" lon="1.17755">
        <ele>113</ele>
        <time>2025-09-09T14:20:10.017Z</time>
      </trkpt>
      <trkpt lat="49.27641" lon="1.17749">
        <ele>113</ele>
        <time>2025-09-09T14:20:14.414Z</time>
      </trkpt>
      <trkpt lat="49.27637" lon="1.17743">
        <ele>113</ele>
        <time>2025-09-09T14:20:18.814Z</time>
      </trkpt>
      <trkpt lat="49.27634" lon="1.17737">
        <ele>113</ele>
        <time>2025-09-09T14:20:23.739Z</time>
      </trkpt>
      <trkpt lat="49.27629" lon="1.17733">
        <ele>114</ele>
        <time>2025-09-09T14:20:28.814Z</time>
      </trkpt>
      <trkpt lat="49.27628" lon="1.17726">
        <ele>114</ele>
        <time>2025-09-09T14:20:33.738Z</time>
      </trkpt>
      <trkpt lat="49.2763" lon="1.17718">
        <ele>114</ele>
        <time>2025-09-09T14:20:38.278Z</time>
      </trkpt>
      <trkpt lat="49.27631" lon="1.17711">
        <ele>114</ele>
        <time>2025-09-09T14:20:42.456Z</time>
      </trkpt>
      <trkpt lat="49.2763" lon="1.17703">
        <ele>115</ele>
        <time>2025-09-09T14:20:46.816Z</time>
      </trkpt>
      <trkpt lat="49.27628" lon="1.17694">
        <ele>115</ele>
        <time>2025-09-09T14:20:51.814Z</time>
      </trkpt>
      <trkpt lat="49.27627" lon="1.17688">
        <ele>115</ele>
        <time>2025-09-09T14:20:55.818Z</time>
      </trkpt>
      <trkpt lat="49.27627" lon="1.17681">
        <ele>115</ele>
        <time>2025-09-09T14:20:59.816Z</time>
      </trkpt>
      <trkpt lat="49.27627" lon="1.17673">
        <ele>116</ele>
        <time>2025-09-09T14:21:03.954Z</time>
      </trkpt>
      <trkpt lat="49.27628" lon="1.17663">
        <ele>116</ele>
        <time>2025-09-09T14:21:08.572Z</time>
      </trkpt>
      <trkpt lat="49.27631" lon="1.17654">
        <ele>116</ele>
        <time>2025-09-09T14:21:12.815Z</time>
      </trkpt>
      <trkpt lat="49.27633" lon="1.17644">
        <ele>116</ele>
        <time>2025-09-09T14:21:17.817Z</time>
      </trkpt>
      <trkpt lat="49.27633" lon="1.17636">
        <ele>116</ele>
        <time>2025-09-09T14:21:22.433Z</time>
      </trkpt>
      <trkpt lat="49.27633" lon="1.17628">
        <ele>116</ele>
        <time>2025-09-09T14:21:26.816Z</time>
      </trkpt>
      <trkpt lat="49.27632" lon="1.17621">
        <ele>117</ele>
        <time>2025-09-09T14:21:31.218Z</time>
      </trkpt>
      <trkpt lat="49.27633" lon="1.17614">
        <ele>117</ele>
        <time>2025-09-09T14:21:35.550Z</time>
      </trkpt>
      <trkpt lat="49.27633" lon="1.17606">
        <ele>117</ele>
        <time>2025-09-09T14:21:39.792Z</time>
      </trkpt>
      <trkpt lat="49.27633" lon="1.17597">
        <ele>117</ele>
        <time>2025-09-09T14:21:44.049Z</time>
      </trkpt>
      <trkpt lat="49.27633" lon="1.1759">
        <ele>119</ele>
        <time>2025-09-09T14:21:48.132Z</time>
      </trkpt>
      <trkpt lat="49.27634" lon="1.17583">
        <ele>119</ele>
        <time>2025-09-09T14:21:52.422Z</time>
      </trkpt>
      <trkpt lat="49.27637" lon="1.17577">
        <ele>119</ele>
        <time>2025-09-09T14:21:56.825Z</time>
      </trkpt>
      <trkpt lat="49.2764" lon="1.1757">
        <ele>119</ele>
        <time>2025-09-09T14:22:01.175Z</time>
      </trkpt>
      <trkpt lat="49.27642" lon="1.17563">
        <ele>120</ele>
        <time>2025-09-09T14:22:05.433Z</time>
      </trkpt>
      <trkpt lat="49.27644" lon="1.17556">
        <ele>120</ele>
        <time>2025-09-09T14:22:09.819Z</time>
      </trkpt>
      <trkpt lat="49.27648" lon="1.1755">
        <ele>120</ele>
        <time>2025-09-09T14:22:14.630Z</time>
      </trkpt>
      <trkpt lat="49.27651" lon="1.17544">
        <ele>120</ele>
        <time>2025-09-09T14:22:18.853Z</time>
      </trkpt>
      <trkpt lat="49.27655" lon="1.17538">
        <ele>122</ele>
        <time>2025-09-09T14:22:23.335Z</time>
      </trkpt>
      <trkpt lat="49.27658" lon="1.17532">
        <ele>122</ele>
        <time>2025-09-09T14:22:27.478Z</time>
      </trkpt>
      <trkpt lat="49.27663" lon="1.17527">
        <ele>122</ele>
        <time>2025-09-09T14:22:31.816Z</time>
      </trkpt>
      <trkpt lat="49.27667" lon="1.17522">
        <ele>122</ele>
        <time>2025-09-09T14:22:36.433Z</time>
      </trkpt>
      <trkpt lat="49.27672" lon="1.17518">
        <ele>122</ele>
        <time>2025-09-09T14:22:40.635Z</time>
      </trkpt>
      <trkpt lat="49.27677" lon="1.17514">
        <ele>122</ele>
        <time>2025-09-09T14:22:45.068Z</time>
      </trkpt>
      <trkpt lat="49.27682" lon="1.17511">
        <ele>123</ele>
        <time>2025-09-09T14:22:49.633Z</time>
      </trkpt>
      <trkpt lat="49.27687" lon="1.17509">
        <ele>123</ele>
        <time>2025-09-09T14:22:53.817Z</time>
      </trkpt>
      <trkpt lat="49.27692" lon="1.17505">
        <ele>123</ele>
        <time>2025-09-09T14:22:58.633Z</time>
      </trkpt>
      <trkpt lat="49.27696" lon="1.175">
        <ele>123</ele>
        <time>2025-09-09T14:23:02.768Z</time>
      </trkpt>
      <trkpt lat="49.277" lon="1.17496">
        <ele>123</ele>
        <time>2025-09-09T14:23:06.819Z</time>
      </trkpt>
      <trkpt lat="49.27704" lon="1.17492">
        <ele>123</ele>
        <time>2025-09-09T14:23:11.426Z</time>
      </trkpt>
      <trkpt lat="49.27708" lon="1.17486">
        <ele>123</ele>
        <time>2025-09-09T14:23:15.818Z</time>
      </trkpt>
      <trkpt lat="49.27711" lon="1.1748">
        <ele>123</ele>
        <time>2025-09-09T14:23:20.578Z</time>
      </trkpt>
      <trkpt lat="49.27715" lon="1.17474">
        <ele>123</ele>
        <time>2025-09-09T14:23:25.494Z</time>
      </trkpt>
      <trkpt lat="49.27719" lon="1.1747">
        <ele>123</ele>
        <time>2025-09-09T14:23:29.815Z</time>
      </trkpt>
      <trkpt lat="49.27724" lon="1.17464">
        <ele>123</ele>
        <time>2025-09-09T14:23:34.555Z</time>
      </trkpt>
      <trkpt lat="49.27727" lon="1.17458">
        <ele>123</ele>
        <time>2025-09-09T14:23:38.816Z</time>
      </trkpt>
      <trkpt lat="49.2773" lon="1.17451">
        <ele>123</ele>
        <time>2025-09-09T14:23:43.677Z</time>
      </trkpt>
      <trkpt lat="49.27732" lon="1.17444">
        <ele>123</ele>
        <time>2025-09-09T14:23:47.814Z</time>
      </trkpt>
      <trkpt lat="49.27735" lon="1.17436">
        <ele>123</ele>
        <time>2025-09-09T14:23:52.641Z</time>
      </trkpt>
      <trkpt lat="49.27737" lon="1.17429">
        <ele>125</ele>
        <time>2025-09-09T14:23:57.351Z</time>
      </trkpt>
      <trkpt lat="49.2774" lon="1.17423">
        <ele>125</ele>
        <time>2025-09-09T14:24:01.471Z</time>
      </trkpt>
      <trkpt lat="49.27743" lon="1.17417">
        <ele>125</ele>
        <time>2025-09-09T14:24:06.527Z</time>
      </trkpt>
      <trkpt lat="49.27747" lon="1.1741">
        <ele>125</ele>
        <time>2025-09-09T14:24:10.816Z</time>
      </trkpt>
      <trkpt lat="49.2775" lon="1.17404">
        <ele>125</ele>
        <time>2025-09-09T14:24:15.015Z</time>
      </trkpt>
      <trkpt lat="49.27753" lon="1.17398">
        <ele>125</ele>
        <time>2025-09-09T14:24:19.309Z</time>
      </trkpt>
      <trkpt lat="49.27755" lon="1.17392">
        <ele>125</ele>
        <time>2025-09-09T14:24:23.818Z</time>
      </trkpt>
      <trkpt lat="49.27757" lon="1.17384">
        <ele>125</ele>
        <time>2025-09-09T14:24:28.651Z</time>
      </trkpt>
      <trkpt lat="49.2776" lon="1.17377">
        <ele>125</ele>
        <time>2025-09-09T14:24:33.615Z</time>
      </trkpt>
      <trkpt lat="49.27763" lon="1.17371">
        <ele>125</ele>
        <time>2025-09-09T14:24:37.813Z</time>
      </trkpt>
      <trkpt lat="49.27766" lon="1.17364">
        <ele>125</ele>
        <time>2025-09-09T14:24:42.659Z</time>
      </trkpt>
      <trkpt lat="49.27769" lon="1.17358">
        <ele>125</ele>
        <time>2025-09-09T14:24:46.817Z</time>
      </trkpt>
      <trkpt lat="49.27771" lon="1.1735">
        <ele>125</ele>
        <time>2025-09-09T14:24:51.439Z</time>
      </trkpt>
      <trkpt lat="49.27773" lon="1.17344">
        <ele>124</ele>
        <time>2025-09-09T14:24:55.674Z</time>
      </trkpt>
      <trkpt lat="49.27776" lon="1.17338">
        <ele>124</ele>
        <time>2025-09-09T14:24:59.818Z</time>
      </trkpt>
      <trkpt lat="49.27779" lon="1.17332">
        <ele>124</ele>
        <time>2025-09-09T14:25:03.941Z</time>
      </trkpt>
      <trkpt lat="49.27781" lon="1.17325">
        <ele>124</ele>
        <time>2025-09-09T14:25:08.234Z</time>
      </trkpt>
      <trkpt lat="49.27784" lon="1.17319">
        <ele>124</ele>
        <time>2025-09-09T14:25:12.814Z</time>
      </trkpt>
      <trkpt lat="49.27787" lon="1.17312">
        <ele>124</ele>
        <time>2025-09-09T14:25:17.815Z</time>
      </trkpt>
      <trkpt lat="49.27794" lon="1.17304">
        <ele>124</ele>
        <time>2025-09-09T14:25:39.815Z</time>
      </trkpt>
      <trkpt lat="49.27795" lon="1.17303">
        <ele>124</ele>
        <time>2025-09-09T14:25:44.274Z</time>
      </trkpt>
      <trkpt lat="49.27798" lon="1.17303">
        <ele>124</ele>
        <time>2025-09-09T14:25:48.815Z</time>
      </trkpt>
      <trkpt lat="49.27799" lon="1.17303">
        <ele>124</ele>
        <time>2025-09-09T14:25:53.770Z</time>
      </trkpt>
      <trkpt lat="49.27802" lon="1.17298">
        <ele>124</ele>
        <time>2025-09-09T14:25:58.432Z</time>
      </trkpt>
      <trkpt lat="49.27807" lon="1.17298">
        <ele>124</ele>
        <time>2025-09-09T14:26:02.537Z</time>
      </trkpt>
      <trkpt lat="49.27813" lon="1.17297">
        <ele>124</ele>
        <time>2025-09-09T14:26:06.821Z</time>
      </trkpt>
      <trkpt lat="49.27819" lon="1.17299">
        <ele>124</ele>
        <time>2025-09-09T14:26:11.299Z</time>
      </trkpt>
      <trkpt lat="49.27825" lon="1.17299">
        <ele>124</ele>
        <time>2025-09-09T14:26:15.693Z</time>
      </trkpt>
      <trkpt lat="49.27831" lon="1.17301">
        <ele>124</ele>
        <time>2025-09-09T14:26:20.496Z</time>
      </trkpt>
      <trkpt lat="49.27836" lon="1.17302">
        <ele>124</ele>
        <time>2025-09-09T14:26:24.596Z</time>
      </trkpt>
      <trkpt lat="49.27841" lon="1.17303">
        <ele>124</ele>
        <time>2025-09-09T14:26:28.817Z</time>
      </trkpt>
      <trkpt lat="49.27847" lon="1.17304">
        <ele>122</ele>
        <time>2025-09-09T14:26:33.631Z</time>
      </trkpt>
      <trkpt lat="49.27852" lon="1.17305">
        <ele>122</ele>
        <time>2025-09-09T14:26:37.734Z</time>
      </trkpt>
      <trkpt lat="49.27857" lon="1.17305">
        <ele>122</ele>
        <time>2025-09-09T14:26:42.160Z</time>
      </trkpt>
      <trkpt lat="49.27862" lon="1.17304">
        <ele>122</ele>
        <time>2025-09-09T14:26:46.815Z</time>
      </trkpt>
      <trkpt lat="49.27866" lon="1.17305">
        <ele>122</ele>
        <time>2025-09-09T14:26:51.455Z</time>
      </trkpt>
      <trkpt lat="49.27871" lon="1.17307">
        <ele>122</ele>
        <time>2025-09-09T14:26:55.537Z</time>
      </trkpt>
      <trkpt lat="49.27875" lon="1.17308">
        <ele>121</ele>
        <time>2025-09-09T14:26:59.814Z</time>
      </trkpt>
      <trkpt lat="49.2788" lon="1.17308">
        <ele>121</ele>
        <time>2025-09-09T14:27:04.179Z</time>
      </trkpt>
      <trkpt lat="49.27886" lon="1.17307">
        <ele>121</ele>
        <time>2025-09-09T14:27:08.815Z</time>
      </trkpt>
      <trkpt lat="49.27892" lon="1.17306">
        <ele>121</ele>
        <time>2025-09-09T14:27:13.350Z</time>
      </trkpt>
      <trkpt lat="49.27897" lon="1.17306">
        <ele>121</ele>
        <time>2025-09-09T14:27:17.793Z</time>
      </trkpt>
      <trkpt lat="49.279" lon="1.17308">
        <ele>121</ele>
        <time>2025-09-09T14:27:21.815Z</time>
      </trkpt>
      <trkpt lat="49.27906" lon="1.17308">
        <ele>120</ele>
        <time>2025-09-09T14:27:26.497Z</time>
      </trkpt>
      <trkpt lat="49.27912" lon="1.17309">
        <ele>120</ele>
        <time>2025-09-09T14:27:30.817Z</time>
      </trkpt>
      <trkpt lat="49.27918" lon="1.17311">
        <ele>120</ele>
        <time>2025-09-09T14:27:35.373Z</time>
      </trkpt>
      <trkpt lat="49.27924" lon="1.17314">
        <ele>120</ele>
        <time>2025-09-09T14:27:39.817Z</time>
      </trkpt>
      <trkpt lat="49.27931" lon="1.17313">
        <ele>120</ele>
        <time>2025-09-09T14:27:44.596Z</time>
      </trkpt>
      <trkpt lat="49.27936" lon="1.17312">
        <ele>119</ele>
        <time>2025-09-09T14:27:48.815Z</time>
      </trkpt>
      <trkpt lat="49.27941" lon="1.17312">
        <ele>119</ele>
        <time>2025-09-09T14:27:53.375Z</time>
      </trkpt>
      <trkpt lat="49.27947" lon="1.17312">
        <ele>119</ele>
        <time>2025-09-09T14:27:57.778Z</time>
      </trkpt>
      <trkpt lat="49.27952" lon="1.17313">
        <ele>119</ele>
        <time>2025-09-09T14:28:02.694Z</time>
      </trkpt>
      <trkpt lat="49.27956" lon="1.17311">
        <ele>119</ele>
        <time>2025-09-09T14:28:06.813Z</time>
      </trkpt>
      <trkpt lat="49.27962" lon="1.17313">
        <ele>120</ele>
        <time>2025-09-09T14:28:11.474Z</time>
      </trkpt>
      <trkpt lat="49.27967" lon="1.17315">
        <ele>120</ele>
        <time>2025-09-09T14:28:15.749Z</time>
      </trkpt>
      <trkpt lat="49.27973" lon="1.17318">
        <ele>120</ele>
        <time>2025-09-09T14:28:20.069Z</time>
      </trkpt>
      <trkpt lat="49.27978" lon="1.17311">
        <ele>120</ele>
        <time>2025-09-09T14:28:24.812Z</time>
      </trkpt>
      <trkpt lat="49.27979" lon="1.17303">
        <ele>120</ele>
        <time>2025-09-09T14:28:28.813Z</time>
      </trkpt>
      <trkpt lat="49.27979" lon="1.17301">
        <ele>120</ele>
        <time>2025-09-09T14:28:33.818Z</time>
      </trkpt>
      <trkpt lat="49.27978" lon="1.17299">
        <ele>120</ele>
        <time>2025-09-09T14:28:37.818Z</time>
      </trkpt>
      <trkpt lat="49.2798" lon="1.1729">
        <ele>120</ele>
        <time>2025-09-09T14:28:42.769Z</time>
      </trkpt>
      <trkpt lat="49.27981" lon="1.17283">
        <ele>120</ele>
        <time>2025-09-09T14:28:46.813Z</time>
      </trkpt>
      <trkpt lat="49.2798" lon="1.17275">
        <ele>120</ele>
        <time>2025-09-09T14:28:51.392Z</time>
      </trkpt>
      <trkpt lat="49.27979" lon="1.17267">
        <ele>120</ele>
        <time>2025-09-09T14:28:55.808Z</time>
      </trkpt>
      <trkpt lat="49.27979" lon="1.1726">
        <ele>121</ele>
        <time>2025-09-09T14:28:59.817Z</time>
      </trkpt>
      <trkpt lat="49.27979" lon="1.17251">
        <ele>121</ele>
        <time>2025-09-09T14:29:04.816Z</time>
      </trkpt>
      <trkpt lat="49.2798" lon="1.17244">
        <ele>121</ele>
        <time>2025-09-09T14:29:08.817Z</time>
      </trkpt>
      <trkpt lat="49.27982" lon="1.17238">
        <ele>121</ele>
        <time>2025-09-09T14:29:12.815Z</time>
      </trkpt>
      <trkpt lat="49.27982" lon="1.17231">
        <ele>121</ele>
        <time>2025-09-09T14:29:17.609Z</time>
      </trkpt>
      <trkpt lat="49.27982" lon="1.17221">
        <ele>121</ele>
        <time>2025-09-09T14:29:22.812Z</time>
      </trkpt>
      <trkpt lat="49.27983" lon="1.17214">
        <ele>121</ele>
        <time>2025-09-09T14:29:26.813Z</time>
      </trkpt>
      <trkpt lat="49.27984" lon="1.17206">
        <ele>120</ele>
        <time>2025-09-09T14:29:31.570Z</time>
      </trkpt>
      <trkpt lat="49.27985" lon="1.172">
        <ele>120</ele>
        <time>2025-09-09T14:29:35.813Z</time>
      </trkpt>
      <trkpt lat="49.27986" lon="1.17193">
        <ele>120</ele>
        <time>2025-09-09T14:29:40.123Z</time>
      </trkpt>
      <trkpt lat="49.27986" lon="1.17184">
        <ele>120</ele>
        <time>2025-09-09T14:29:44.416Z</time>
      </trkpt>
      <trkpt lat="49.27987" lon="1.17177">
        <ele>120</ele>
        <time>2025-09-09T14:29:48.595Z</time>
      </trkpt>
      <trkpt lat="49.27987" lon="1.17168">
        <ele>120</ele>
        <time>2025-09-09T14:29:53.092Z</time>
      </trkpt>
      <trkpt lat="49.27987" lon="1.17159">
        <ele>120</ele>
        <time>2025-09-09T14:29:57.596Z</time>
      </trkpt>
      <trkpt lat="49.27988" lon="1.17152">
        <ele>119</ele>
        <time>2025-09-09T14:30:01.815Z</time>
      </trkpt>
      <trkpt lat="49.27989" lon="1.17143">
        <ele>119</ele>
        <time>2025-09-09T14:30:06.709Z</time>
      </trkpt>
      <trkpt lat="49.2799" lon="1.17134">
        <ele>119</ele>
        <time>2025-09-09T14:30:11.276Z</time>
      </trkpt>
      <trkpt lat="49.2799" lon="1.17125">
        <ele>119</ele>
        <time>2025-09-09T14:30:15.815Z</time>
      </trkpt>
      <trkpt lat="49.27991" lon="1.17117">
        <ele>118</ele>
        <time>2025-09-09T14:30:20.108Z</time>
      </trkpt>
      <trkpt lat="49.27991" lon="1.17108">
        <ele>118</ele>
        <time>2025-09-09T14:30:24.813Z</time>
      </trkpt>
      <trkpt lat="49.27992" lon="1.171">
        <ele>118</ele>
        <time>2025-09-09T14:30:29.372Z</time>
      </trkpt>
      <trkpt lat="49.27993" lon="1.17092">
        <ele>118</ele>
        <time>2025-09-09T14:30:33.550Z</time>
      </trkpt>
      <trkpt lat="49.27995" lon="1.17085">
        <ele>118</ele>
        <time>2025-09-09T14:30:37.815Z</time>
      </trkpt>
      <trkpt lat="49.27997" lon="1.17077">
        <ele>118</ele>
        <time>2025-09-09T14:30:42.708Z</time>
      </trkpt>
      <trkpt lat="49.27996" lon="1.17068">
        <ele>119</ele>
        <time>2025-09-09T14:30:47.309Z</time>
      </trkpt>
      <trkpt lat="49.27997" lon="1.1706">
        <ele>119</ele>
        <time>2025-09-09T14:30:51.818Z</time>
      </trkpt>
      <trkpt lat="49.27998" lon="1.17051">
        <ele>119</ele>
        <time>2025-09-09T14:30:56.669Z</time>
      </trkpt>
      <trkpt lat="49.28" lon="1.17043">
        <ele>119</ele>
        <time>2025-09-09T14:31:00.815Z</time>
      </trkpt>
      <trkpt lat="49.28001" lon="1.17036">
        <ele>119</ele>
        <time>2025-09-09T14:31:05.258Z</time>
      </trkpt>
      <trkpt lat="49.28001" lon="1.17027">
        <ele>119</ele>
        <time>2025-09-09T14:31:09.816Z</time>
      </trkpt>
      <trkpt lat="49.28001" lon="1.17019">
        <ele>119</ele>
        <time>2025-09-09T14:31:14.335Z</time>
      </trkpt>
      <trkpt lat="49.28003" lon="1.1701">
        <ele>118</ele>
        <time>2025-09-09T14:31:18.628Z</time>
      </trkpt>
      <trkpt lat="49.28002" lon="1.17004">
        <ele>118</ele>
        <time>2025-09-09T14:31:22.812Z</time>
      </trkpt>
      <trkpt lat="49.28002" lon="1.16996">
        <ele>118</ele>
        <time>2025-09-09T14:31:27.452Z</time>
      </trkpt>
      <trkpt lat="49.28004" lon="1.16987">
        <ele>118</ele>
        <time>2025-09-09T14:31:31.814Z</time>
      </trkpt>
      <trkpt lat="49.28005" lon="1.16979">
        <ele>117</ele>
        <time>2025-09-09T14:31:35.816Z</time>
      </trkpt>
      <trkpt lat="49.28005" lon="1.1697">
        <ele>117</ele>
        <time>2025-09-09T14:31:39.817Z</time>
      </trkpt>
      <trkpt lat="49.28004" lon="1.1696">
        <ele>117</ele>
        <time>2025-09-09T14:31:44.293Z</time>
      </trkpt>
      <trkpt lat="49.28004" lon="1.16951">
        <ele>116</ele>
        <time>2025-09-09T14:31:48.817Z</time>
      </trkpt>
      <trkpt lat="49.28005" lon="1.16941">
        <ele>116</ele>
        <time>2025-09-09T14:31:53.635Z</time>
      </trkpt>
      <trkpt lat="49.28006" lon="1.16932">
        <ele>116</ele>
        <time>2025-09-09T14:31:57.771Z</time>
      </trkpt>
      <trkpt lat="49.28007" lon="1.16924">
        <ele>115</ele>
        <time>2025-09-09T14:32:02.231Z</time>
      </trkpt>
      <trkpt lat="49.28007" lon="1.16915">
        <ele>115</ele>
        <time>2025-09-09T14:32:06.673Z</time>
      </trkpt>
      <trkpt lat="49.28008" lon="1.16907">
        <ele>115</ele>
        <time>2025-09-09T14:32:10.817Z</time>
      </trkpt>
      <trkpt lat="49.28008" lon="1.16899">
        <ele>114</ele>
        <time>2025-09-09T14:32:15.341Z</time>
      </trkpt>
      <trkpt lat="49.2801" lon="1.16891">
        <ele>114</ele>
        <time>2025-09-09T14:32:19.817Z</time>
      </trkpt>
      <trkpt lat="49.28011" lon="1.16881">
        <ele>114</ele>
        <time>2025-09-09T14:32:24.814Z</time>
      </trkpt>
      <trkpt lat="49.28011" lon="1.16872">
        <ele>113</ele>
        <time>2025-09-09T14:32:29.792Z</time>
      </trkpt>
      <trkpt lat="49.28012" lon="1.16864">
        <ele>113</ele>
        <time>2025-09-09T14:32:34.050Z</time>
      </trkpt>
      <trkpt lat="49.28013" lon="1.16855">
        <ele>113</ele>
        <time>2025-09-09T14:32:38.616Z</time>
      </trkpt>
      <trkpt lat="49.28013" lon="1.16847">
        <ele>113</ele>
        <time>2025-09-09T14:32:43.234Z</time>
      </trkpt>
      <trkpt lat="49.28014" lon="1.16838">
        <ele>113</ele>
        <time>2025-09-09T14:32:47.808Z</time>
      </trkpt>
      <trkpt lat="49.28015" lon="1.16831">
        <ele>110</ele>
        <time>2025-09-09T14:32:52.251Z</time>
      </trkpt>
      <trkpt lat="49.28016" lon="1.16822">
        <ele>110</ele>
        <time>2025-09-09T14:32:56.816Z</time>
      </trkpt>
      <trkpt lat="49.28017" lon="1.16814">
        <ele>110</ele>
        <time>2025-09-09T14:33:01.356Z</time>
      </trkpt>
      <trkpt lat="49.28017" lon="1.16807">
        <ele>110</ele>
        <time>2025-09-09T14:33:05.387Z</time>
      </trkpt>
      <trkpt lat="49.28018" lon="1.16798">
        <ele>110</ele>
        <time>2025-09-09T14:33:09.817Z</time>
      </trkpt>
      <trkpt lat="49.28018" lon="1.1679">
        <ele>111</ele>
        <time>2025-09-09T14:33:14.271Z</time>
      </trkpt>
      <trkpt lat="49.28019" lon="1.16782">
        <ele>111</ele>
        <time>2025-09-09T14:33:18.451Z</time>
      </trkpt>
      <trkpt lat="49.2802" lon="1.16775">
        <ele>111</ele>
        <time>2025-09-09T14:33:22.815Z</time>
      </trkpt>
      <trkpt lat="49.28021" lon="1.16767">
        <ele>111</ele>
        <time>2025-09-09T14:33:26.816Z</time>
      </trkpt>
      <trkpt lat="49.28021" lon="1.16758">
        <ele>113</ele>
        <time>2025-09-09T14:33:31.111Z</time>
      </trkpt>
      <trkpt lat="49.28022" lon="1.16751">
        <ele>113</ele>
        <time>2025-09-09T14:33:35.471Z</time>
      </trkpt>
      <trkpt lat="49.28022" lon="1.16741">
        <ele>113</ele>
        <time>2025-09-09T14:33:39.815Z</time>
      </trkpt>
      <trkpt lat="49.28022" lon="1.16733">
        <ele>113</ele>
        <time>2025-09-09T14:33:44.813Z</time>
      </trkpt>
      <trkpt lat="49.28025" lon="1.16725">
        <ele>113</ele>
        <time>2025-09-09T14:33:49.549Z</time>
      </trkpt>
      <trkpt lat="49.28026" lon="1.16717">
        <ele>113</ele>
        <time>2025-09-09T14:33:53.813Z</time>
      </trkpt>
      <trkpt lat="49.28028" lon="1.1671">
        <ele>113</ele>
        <time>2025-09-09T14:33:57.814Z</time>
      </trkpt>
      <trkpt lat="49.2803" lon="1.16702">
        <ele>113</ele>
        <time>2025-09-09T14:34:02.071Z</time>
      </trkpt>
      <trkpt lat="49.28032" lon="1.16694">
        <ele>113</ele>
        <time>2025-09-09T14:34:06.813Z</time>
      </trkpt>
      <trkpt lat="49.28034" lon="1.16686">
        <ele>113</ele>
        <time>2025-09-09T14:34:11.693Z</time>
      </trkpt>
      <trkpt lat="49.28033" lon="1.16676">
        <ele>111</ele>
        <time>2025-09-09T14:34:16.215Z</time>
      </trkpt>
      <trkpt lat="49.28033" lon="1.16669">
        <ele>111</ele>
        <time>2025-09-09T14:34:20.553Z</time>
      </trkpt>
      <trkpt lat="49.28031" lon="1.16665">
        <ele>111</ele>
        <time>2025-09-09T14:34:24.687Z</time>
      </trkpt>
      <trkpt lat="49.2803" lon="1.16658">
        <ele>111</ele>
        <time>2025-09-09T14:34:28.813Z</time>
      </trkpt>
      <trkpt lat="49.28031" lon="1.16648">
        <ele>110</ele>
        <time>2025-09-09T14:34:33.819Z</time>
      </trkpt>
      <trkpt lat="49.28033" lon="1.16637">
        <ele>110</ele>
        <time>2025-09-09T14:34:38.817Z</time>
      </trkpt>
      <trkpt lat="49.28035" lon="1.16629">
        <ele>110</ele>
        <time>2025-09-09T14:34:42.815Z</time>
      </trkpt>
      <trkpt lat="49.28037" lon="1.16622">
        <ele>109</ele>
        <time>2025-09-09T14:34:47.474Z</time>
      </trkpt>
      <trkpt lat="49.28037" lon="1.16613">
        <ele>109</ele>
        <time>2025-09-09T14:34:51.516Z</time>
      </trkpt>
      <trkpt lat="49.28036" lon="1.16606">
        <ele>109</ele>
        <time>2025-09-09T14:34:55.575Z</time>
      </trkpt>
      <trkpt lat="49.28037" lon="1.16597">
        <ele>108</ele>
        <time>2025-09-09T14:35:00.333Z</time>
      </trkpt>
      <trkpt lat="49.28038" lon="1.16589">
        <ele>108</ele>
        <time>2025-09-09T14:35:04.815Z</time>
      </trkpt>
      <trkpt lat="49.28039" lon="1.16583">
        <ele>108</ele>
        <time>2025-09-09T14:35:08.817Z</time>
      </trkpt>
      <trkpt lat="49.2804" lon="1.16576">
        <ele>108</ele>
        <time>2025-09-09T14:35:12.814Z</time>
      </trkpt>
      <trkpt lat="49.28041" lon="1.16568">
        <ele>108</ele>
        <time>2025-09-09T14:35:17.156Z</time>
      </trkpt>
      <trkpt lat="49.28042" lon="1.16559">
        <ele>106</ele>
        <time>2025-09-09T14:35:21.669Z</time>
      </trkpt>
      <trkpt lat="49.28043" lon="1.16551">
        <ele>106</ele>
        <time>2025-09-09T14:35:25.812Z</time>
      </trkpt>
      <trkpt lat="49.28044" lon="1.16544">
        <ele>106</ele>
        <time>2025-09-09T14:35:30.661Z</time>
      </trkpt>
      <trkpt lat="49.28044" lon="1.16535">
        <ele>105</ele>
        <time>2025-09-09T14:35:34.814Z</time>
      </trkpt>
      <trkpt lat="49.28045" lon="1.16527">
        <ele>105</ele>
        <time>2025-09-09T14:35:39.475Z</time>
      </trkpt>
      <trkpt lat="49.28046" lon="1.16518">
        <ele>105</ele>
        <time>2025-09-09T14:35:43.815Z</time>
      </trkpt>
      <trkpt lat="49.28047" lon="1.1651">
        <ele>105</ele>
        <time>2025-09-09T14:35:48.309Z</time>
      </trkpt>
      <trkpt lat="49.28047" lon="1.16501">
        <ele>105</ele>
        <time>2025-09-09T14:35:52.815Z</time>
      </trkpt>
      <trkpt lat="49.28047" lon="1.16492">
        <ele>105</ele>
        <time>2025-09-09T14:35:57.352Z</time>
      </trkpt>
      <trkpt lat="49.28048" lon="1.16484">
        <ele>105</ele>
        <time>2025-09-09T14:36:01.816Z</time>
      </trkpt>
      <trkpt lat="49.28048" lon="1.16475">
        <ele>105</ele>
        <time>2025-09-09T14:36:06.353Z</time>
      </trkpt>
      <trkpt lat="49.28049" lon="1.16468">
        <ele>105</ele>
        <time>2025-09-09T14:36:10.700Z</time>
      </trkpt>
      <trkpt lat="49.2805" lon="1.1646">
        <ele>105</ele>
        <time>2025-09-09T14:36:14.813Z</time>
      </trkpt>
      <trkpt lat="49.28051" lon="1.16454">
        <ele>105</ele>
        <time>2025-09-09T14:36:18.815Z</time>
      </trkpt>
      <trkpt lat="49.28052" lon="1.16445">
        <ele>105</ele>
        <time>2025-09-09T14:36:23.728Z</time>
      </trkpt>
      <trkpt lat="49.28052" lon="1.16437">
        <ele>105</ele>
        <time>2025-09-09T14:36:27.815Z</time>
      </trkpt>
      <trkpt lat="49.28054" lon="1.1643">
        <ele>105</ele>
        <time>2025-09-09T14:36:32.271Z</time>
      </trkpt>
      <trkpt lat="49.28058" lon="1.16424">
        <ele>105</ele>
        <time>2025-09-09T14:36:36.813Z</time>
      </trkpt>
      <trkpt lat="49.28058" lon="1.16423">
        <ele>105</ele>
        <time>2025-09-09T14:36:42.818Z</time>
      </trkpt>
      <trkpt lat="49.28058" lon="1.16422">
        <ele>105</ele>
        <time>2025-09-09T14:36:48.593Z</time>
      </trkpt>
      <trkpt lat="49.28065" lon="1.16422">
        <ele>105</ele>
        <time>2025-09-09T14:36:52.816Z</time>
      </trkpt>
      <trkpt lat="49.28074" lon="1.16425">
        <ele>102</ele>
        <time>2025-09-09T14:36:57.356Z</time>
      </trkpt>
      <trkpt lat="49.2808" lon="1.16427">
        <ele>102</ele>
        <time>2025-09-09T14:37:01.812Z</time>
      </trkpt>
      <trkpt lat="49.28086" lon="1.16429">
        <ele>102</ele>
        <time>2025-09-09T14:37:06.813Z</time>
      </trkpt>
      <trkpt lat="49.28091" lon="1.1643">
        <ele>102</ele>
        <time>2025-09-09T14:37:11.535Z</time>
      </trkpt>
      <trkpt lat="49.28095" lon="1.1643">
        <ele>102</ele>
        <time>2025-09-09T14:37:15.811Z</time>
      </trkpt>
      <trkpt lat="49.281" lon="1.16431">
        <ele>100</ele>
        <time>2025-09-09T14:37:20.149Z</time>
      </trkpt>
      <trkpt lat="49.28106" lon="1.16431">
        <ele>100</ele>
        <time>2025-09-09T14:37:24.635Z</time>
      </trkpt>
      <trkpt lat="49.28111" lon="1.16431">
        <ele>100</ele>
        <time>2025-09-09T14:37:28.815Z</time>
      </trkpt>
      <trkpt lat="49.28117" lon="1.16431">
        <ele>100</ele>
        <time>2025-09-09T14:37:33.714Z</time>
      </trkpt>
      <trkpt lat="49.28122" lon="1.1643">
        <ele>100</ele>
        <time>2025-09-09T14:37:38.516Z</time>
      </trkpt>
      <trkpt lat="49.28126" lon="1.16429">
        <ele>99</ele>
        <time>2025-09-09T14:37:42.818Z</time>
      </trkpt>
      <trkpt lat="49.2813" lon="1.1643">
        <ele>99</ele>
        <time>2025-09-09T14:37:47.411Z</time>
      </trkpt>
      <trkpt lat="49.28135" lon="1.1643">
        <ele>99</ele>
        <time>2025-09-09T14:37:51.813Z</time>
      </trkpt>
      <trkpt lat="49.2814" lon="1.1643">
        <ele>99</ele>
        <time>2025-09-09T14:37:56.016Z</time>
      </trkpt>
      <trkpt lat="49.28145" lon="1.16429">
        <ele>99</ele>
        <time>2025-09-09T14:38:00.475Z</time>
      </trkpt>
      <trkpt lat="49.2815" lon="1.1643">
        <ele>99</ele>
        <time>2025-09-09T14:38:04.815Z</time>
      </trkpt>
      <trkpt lat="49.28155" lon="1.16432">
        <ele>98</ele>
        <time>2025-09-09T14:38:09.712Z</time>
      </trkpt>
      <trkpt lat="49.2816" lon="1.16434">
        <ele>98</ele>
        <time>2025-09-09T14:38:13.795Z</time>
      </trkpt>
      <trkpt lat="49.28165" lon="1.16435">
        <ele>98</ele>
        <time>2025-09-09T14:38:17.815Z</time>
      </trkpt>
      <trkpt lat="49.2817" lon="1.16437">
        <ele>98</ele>
        <time>2025-09-09T14:38:22.817Z</time>
      </trkpt>
      <trkpt lat="49.28175" lon="1.16438">
        <ele>98</ele>
        <time>2025-09-09T14:38:27.457Z</time>
      </trkpt>
      <trkpt lat="49.2818" lon="1.16439">
        <ele>98</ele>
        <time>2025-09-09T14:38:31.813Z</time>
      </trkpt>
      <trkpt lat="49.28187" lon="1.1644">
        <ele>97</ele>
        <time>2025-09-09T14:38:36.814Z</time>
      </trkpt>
      <trkpt lat="49.28193" lon="1.16441">
        <ele>97</ele>
        <time>2025-09-09T14:38:41.390Z</time>
      </trkpt>
      <trkpt lat="49.28197" lon="1.1644">
        <ele>97</ele>
        <time>2025-09-09T14:38:45.812Z</time>
      </trkpt>
      <trkpt lat="49.28203" lon="1.1644">
        <ele>97</ele>
        <time>2025-09-09T14:38:50.777Z</time>
      </trkpt>
      <trkpt lat="49.28208" lon="1.16439">
        <ele>97</ele>
        <time>2025-09-09T14:38:55.821Z</time>
      </trkpt>
      <trkpt lat="49.28213" lon="1.16438">
        <ele>97</ele>
        <time>2025-09-09T14:39:00.356Z</time>
      </trkpt>
      <trkpt lat="49.28218" lon="1.16438">
        <ele>97</ele>
        <time>2025-09-09T14:39:04.815Z</time>
      </trkpt>
      <trkpt lat="49.28224" lon="1.16437">
        <ele>97</ele>
        <time>2025-09-09T14:39:09.749Z</time>
      </trkpt>
      <trkpt lat="49.28229" lon="1.16438">
        <ele>97</ele>
        <time>2025-09-09T14:39:13.813Z</time>
      </trkpt>
      <trkpt lat="49.28235" lon="1.1644">
        <ele>97</ele>
        <time>2025-09-09T14:39:18.810Z</time>
      </trkpt>
      <trkpt lat="49.28239" lon="1.16441">
        <ele>96</ele>
        <time>2025-09-09T14:39:22.814Z</time>
      </trkpt>
      <trkpt lat="49.28245" lon="1.16443">
        <ele>96</ele>
        <time>2025-09-09T14:39:27.589Z</time>
      </trkpt>
      <trkpt lat="49.28249" lon="1.16444">
        <ele>96</ele>
        <time>2025-09-09T14:39:31.812Z</time>
      </trkpt>
      <trkpt lat="49.28255" lon="1.16444">
        <ele>96</ele>
        <time>2025-09-09T14:39:36.696Z</time>
      </trkpt>
      <trkpt lat="49.2826" lon="1.16443">
        <ele>96</ele>
        <time>2025-09-09T14:39:41.629Z</time>
      </trkpt>
      <trkpt lat="49.28265" lon="1.16443">
        <ele>94</ele>
        <time>2025-09-09T14:39:45.816Z</time>
      </trkpt>
      <trkpt lat="49.28269" lon="1.16444">
        <ele>94</ele>
        <time>2025-09-09T14:39:50.077Z</time>
      </trkpt>
      <trkpt lat="49.28274" lon="1.16444">
        <ele>94</ele>
        <time>2025-09-09T14:39:54.371Z</time>
      </trkpt>
      <trkpt lat="49.28279" lon="1.16445">
        <ele>94</ele>
        <time>2025-09-09T14:39:58.532Z</time>
      </trkpt>
      <trkpt lat="49.28282" lon="1.16445">
        <ele>94</ele>
        <time>2025-09-09T14:40:02.814Z</time>
      </trkpt>
      <trkpt lat="49.28288" lon="1.16445">
        <ele>94</ele>
        <time>2025-09-09T14:40:07.815Z</time>
      </trkpt>
      <trkpt lat="49.28292" lon="1.16444">
        <ele>92</ele>
        <time>2025-09-09T14:40:11.818Z</time>
      </trkpt>
      <trkpt lat="49.28295" lon="1.16439">
        <ele>92</ele>
        <time>2025-09-09T14:40:16.813Z</time>
      </trkpt>
      <trkpt lat="49.28294" lon="1.1643">
        <ele>91</ele>
        <time>2025-09-09T14:40:21.049Z</time>
      </trkpt>
      <trkpt lat="49.28294" lon="1.16423">
        <ele>91</ele>
        <time>2025-09-09T14:40:25.394Z</time>
      </trkpt>
      <trkpt lat="49.28293" lon="1.16415">
        <ele>91</ele>
        <time>2025-09-09T14:40:29.530Z</time>
      </trkpt>
      <trkpt lat="49.28293" lon="1.16407">
        <ele>91</ele>
        <time>2025-09-09T14:40:34.520Z</time>
      </trkpt>
      <trkpt lat="49.28293" lon="1.16398">
        <ele>89</ele>
        <time>2025-09-09T14:40:38.714Z</time>
      </trkpt>
      <trkpt lat="49.28291" lon="1.16395">
        <ele>91</ele>
        <time>2025-09-09T14:40:42.814Z</time>
      </trkpt>
      <trkpt lat="49.28291" lon="1.1639">
        <ele>91</ele>
        <time>2025-09-09T14:40:46.815Z</time>
      </trkpt>
      <trkpt lat="49.28292" lon="1.16388">
        <ele>89</ele>
        <time>2025-09-09T14:40:51.815Z</time>
      </trkpt>
      <trkpt lat="49.28294" lon="1.16388">
        <ele>89</ele>
        <time>2025-09-09T14:40:55.820Z</time>
      </trkpt>
      <trkpt lat="49.28293" lon="1.1638">
        <ele>89</ele>
        <time>2025-09-09T14:40:59.953Z</time>
      </trkpt>
      <trkpt lat="49.28293" lon="1.16372">
        <ele>88</ele>
        <time>2025-09-09T14:41:04.815Z</time>
      </trkpt>
      <trkpt lat="49.28297" lon="1.16362">
        <ele>88</ele>
        <time>2025-09-09T14:41:09.792Z</time>
      </trkpt>
      <trkpt lat="49.28298" lon="1.16353">
        <ele>88</ele>
        <time>2025-09-09T14:41:13.813Z</time>
      </trkpt>
      <trkpt lat="49.28297" lon="1.16346">
        <ele>87</ele>
        <time>2025-09-09T14:41:18.283Z</time>
      </trkpt>
      <trkpt lat="49.28297" lon="1.16337">
        <ele>87</ele>
        <time>2025-09-09T14:41:22.820Z</time>
      </trkpt>
      <trkpt lat="49.28295" lon="1.16331">
        <ele>87</ele>
        <time>2025-09-09T14:41:27.334Z</time>
      </trkpt>
      <trkpt lat="49.28297" lon="1.16322">
        <ele>87</ele>
        <time>2025-09-09T14:41:31.815Z</time>
      </trkpt>
      <trkpt lat="49.28298" lon="1.16314">
        <ele>87</ele>
        <time>2025-09-09T14:41:36.369Z</time>
      </trkpt>
      <trkpt lat="49.28299" lon="1.16307">
        <ele>87</ele>
        <time>2025-09-09T14:41:40.812Z</time>
      </trkpt>
      <trkpt lat="49.28299" lon="1.16298">
        <ele>87</ele>
        <time>2025-09-09T14:41:44.816Z</time>
      </trkpt>
      <trkpt lat="49.283" lon="1.16289">
        <ele>86</ele>
        <time>2025-09-09T14:41:49.812Z</time>
      </trkpt>
      <trkpt lat="49.28301" lon="1.1628">
        <ele>86</ele>
        <time>2025-09-09T14:41:54.531Z</time>
      </trkpt>
      <trkpt lat="49.28301" lon="1.16272">
        <ele>86</ele>
        <time>2025-09-09T14:41:58.814Z</time>
      </trkpt>
      <trkpt lat="49.28304" lon="1.16266">
        <ele>86</ele>
        <time>2025-09-09T14:42:02.816Z</time>
      </trkpt>
      <trkpt lat="49.2831" lon="1.16266">
        <ele>86</ele>
        <time>2025-09-09T14:42:07.756Z</time>
      </trkpt>
      <trkpt lat="49.28316" lon="1.16267">
        <ele>86</ele>
        <time>2025-09-09T14:42:12.548Z</time>
      </trkpt>
      <trkpt lat="49.28322" lon="1.16265">
        <ele>84</ele>
        <time>2025-09-09T14:42:16.675Z</time>
      </trkpt>
      <trkpt lat="49.28327" lon="1.16265">
        <ele>84</ele>
        <time>2025-09-09T14:42:20.814Z</time>
      </trkpt>
      <trkpt lat="49.28333" lon="1.16265">
        <ele>84</ele>
        <time>2025-09-09T14:42:25.648Z</time>
      </trkpt>
      <trkpt lat="49.28339" lon="1.16266">
        <ele>84</ele>
        <time>2025-09-09T14:42:30.522Z</time>
      </trkpt>
      <trkpt lat="49.28345" lon="1.16267">
        <ele>84</ele>
        <time>2025-09-09T14:42:34.814Z</time>
      </trkpt>
      <trkpt lat="49.2835" lon="1.16269">
        <ele>84</ele>
        <time>2025-09-09T14:42:39.451Z</time>
      </trkpt>
      <trkpt lat="49.28354" lon="1.16269">
        <ele>84</ele>
        <time>2025-09-09T14:42:43.342Z</time>
      </trkpt>
      <trkpt lat="49.2836" lon="1.16271">
        <ele>84</ele>
        <time>2025-09-09T14:42:47.813Z</time>
      </trkpt>
      <trkpt lat="49.28366" lon="1.16272">
        <ele>84</ele>
        <time>2025-09-09T14:42:52.568Z</time>
      </trkpt>
      <trkpt lat="49.2837" lon="1.16271">
        <ele>84</ele>
        <time>2025-09-09T14:42:56.812Z</time>
      </trkpt>
      <trkpt lat="49.28377" lon="1.16271">
        <ele>85</ele>
        <time>2025-09-09T14:43:01.813Z</time>
      </trkpt>
      <trkpt lat="49.28382" lon="1.16272">
        <ele>85</ele>
        <time>2025-09-09T14:43:06.373Z</time>
      </trkpt>
      <trkpt lat="49.28387" lon="1.16271">
        <ele>85</ele>
        <time>2025-09-09T14:43:10.612Z</time>
      </trkpt>
      <trkpt lat="49.28392" lon="1.16272">
        <ele>85</ele>
        <time>2025-09-09T14:43:14.814Z</time>
      </trkpt>
      <trkpt lat="49.28398" lon="1.16273">
        <ele>85</ele>
        <time>2025-09-09T14:43:19.611Z</time>
      </trkpt>
      <trkpt lat="49.28403" lon="1.16274">
        <ele>84</ele>
        <time>2025-09-09T14:43:24.308Z</time>
      </trkpt>
      <trkpt lat="49.28407" lon="1.16273">
        <ele>84</ele>
        <time>2025-09-09T14:43:28.542Z</time>
      </trkpt>
      <trkpt lat="49.28413" lon="1.16274">
        <ele>84</ele>
        <time>2025-09-09T14:43:32.813Z</time>
      </trkpt>
      <trkpt lat="49.28418" lon="1.16274">
        <ele>84</ele>
        <time>2025-09-09T14:43:36.815Z</time>
      </trkpt>
      <trkpt lat="49.28423" lon="1.16275">
        <ele>84</ele>
        <time>2025-09-09T14:43:41.813Z</time>
      </trkpt>
      <trkpt lat="49.28428" lon="1.16275">
        <ele>84</ele>
        <time>2025-09-09T14:43:46.496Z</time>
      </trkpt>
      <trkpt lat="49.28433" lon="1.16275">
        <ele>80</ele>
        <time>2025-09-09T14:43:50.814Z</time>
      </trkpt>
      <trkpt lat="49.28439" lon="1.16277">
        <ele>80</ele>
        <time>2025-09-09T14:43:55.548Z</time>
      </trkpt>
      <trkpt lat="49.28444" lon="1.16278">
        <ele>80</ele>
        <time>2025-09-09T14:43:59.813Z</time>
      </trkpt>
      <trkpt lat="49.28449" lon="1.16279">
        <ele>80</ele>
        <time>2025-09-09T14:44:04.811Z</time>
      </trkpt>
      <trkpt lat="49.28455" lon="1.1628">
        <ele>80</ele>
        <time>2025-09-09T14:44:09.237Z</time>
      </trkpt>
      <trkpt lat="49.28459" lon="1.1628">
        <ele>77</ele>
        <time>2025-09-09T14:44:13.531Z</time>
      </trkpt>
      <trkpt lat="49.28465" lon="1.16282">
        <ele>77</ele>
        <time>2025-09-09T14:44:18.316Z</time>
      </trkpt>
      <trkpt lat="49.28471" lon="1.16282">
        <ele>77</ele>
        <time>2025-09-09T14:44:22.815Z</time>
      </trkpt>
      <trkpt lat="49.28476" lon="1.16282">
        <ele>77</ele>
        <time>2025-09-09T14:44:27.289Z</time>
      </trkpt>
      <trkpt lat="49.28481" lon="1.16281">
        <ele>77</ele>
        <time>2025-09-09T14:44:31.814Z</time>
      </trkpt>
      <trkpt lat="49.28487" lon="1.16281">
        <ele>77</ele>
        <time>2025-09-09T14:44:36.333Z</time>
      </trkpt>
      <trkpt lat="49.28492" lon="1.16282">
        <ele>77</ele>
        <time>2025-09-09T14:44:40.814Z</time>
      </trkpt>
      <trkpt lat="49.28497" lon="1.16282">
        <ele>77</ele>
        <time>2025-09-09T14:44:45.430Z</time>
      </trkpt>
      <trkpt lat="49.28502" lon="1.16281">
        <ele>77</ele>
        <time>2025-09-09T14:44:49.813Z</time>
      </trkpt>
      <trkpt lat="49.28508" lon="1.16281">
        <ele>77</ele>
        <time>2025-09-09T14:44:54.651Z</time>
      </trkpt>
      <trkpt lat="49.28512" lon="1.16282">
        <ele>77</ele>
        <time>2025-09-09T14:44:58.628Z</time>
      </trkpt>
      <trkpt lat="49.28519" lon="1.16282">
        <ele>76</ele>
        <time>2025-09-09T14:45:03.236Z</time>
      </trkpt>
      <trkpt lat="49.28524" lon="1.16282">
        <ele>76</ele>
        <time>2025-09-09T14:45:07.732Z</time>
      </trkpt>
      <trkpt lat="49.28529" lon="1.16283">
        <ele>76</ele>
        <time>2025-09-09T14:45:11.814Z</time>
      </trkpt>
      <trkpt lat="49.28535" lon="1.16284">
        <ele>76</ele>
        <time>2025-09-09T14:45:16.670Z</time>
      </trkpt>
      <trkpt lat="49.2854" lon="1.16285">
        <ele>76</ele>
        <time>2025-09-09T14:45:20.811Z</time>
      </trkpt>
      <trkpt lat="49.28546" lon="1.16286">
        <ele>74</ele>
        <time>2025-09-09T14:45:25.812Z</time>
      </trkpt>
      <trkpt lat="49.28551" lon="1.16286">
        <ele>74</ele>
        <time>2025-09-09T14:45:29.812Z</time>
      </trkpt>
      <trkpt lat="49.28557" lon="1.16287">
        <ele>74</ele>
        <time>2025-09-09T14:45:34.590Z</time>
      </trkpt>
      <trkpt lat="49.28562" lon="1.16287">
        <ele>74</ele>
        <time>2025-09-09T14:45:38.811Z</time>
      </trkpt>
      <trkpt lat="49.28567" lon="1.16289">
        <ele>74</ele>
        <time>2025-09-09T14:45:43.634Z</time>
      </trkpt>
      <trkpt lat="49.28572" lon="1.16289">
        <ele>72</ele>
        <time>2025-09-09T14:45:47.812Z</time>
      </trkpt>
      <trkpt lat="49.28578" lon="1.16289">
        <ele>72</ele>
        <time>2025-09-09T14:45:52.813Z</time>
      </trkpt>
      <trkpt lat="49.28583" lon="1.1629">
        <ele>72</ele>
        <time>2025-09-09T14:45:57.174Z</time>
      </trkpt>
      <trkpt lat="49.28589" lon="1.16291">
        <ele>72</ele>
        <time>2025-09-09T14:46:01.513Z</time>
      </trkpt>
      <trkpt lat="49.28594" lon="1.16292">
        <ele>72</ele>
        <time>2025-09-09T14:46:06.130Z</time>
      </trkpt>
      <trkpt lat="49.28599" lon="1.16293">
        <ele>70</ele>
        <time>2025-09-09T14:46:10.494Z</time>
      </trkpt>
      <trkpt lat="49.28604" lon="1.16293">
        <ele>70</ele>
        <time>2025-09-09T14:46:14.811Z</time>
      </trkpt>
      <trkpt lat="49.28609" lon="1.16294">
        <ele>70</ele>
        <time>2025-09-09T14:46:19.354Z</time>
      </trkpt>
      <trkpt lat="49.28614" lon="1.16296">
        <ele>70</ele>
        <time>2025-09-09T14:46:23.815Z</time>
      </trkpt>
      <trkpt lat="49.28618" lon="1.16298">
        <ele>70</ele>
        <time>2025-09-09T14:46:27.813Z</time>
      </trkpt>
      <trkpt lat="49.28622" lon="1.16302">
        <ele>70</ele>
        <time>2025-09-09T14:46:31.813Z</time>
      </trkpt>
      <trkpt lat="49.28626" lon="1.16309">
        <ele>69</ele>
        <time>2025-09-09T14:46:36.651Z</time>
      </trkpt>
      <trkpt lat="49.28628" lon="1.1631">
        <ele>69</ele>
        <time>2025-09-09T14:46:40.814Z</time>
      </trkpt>
      <trkpt lat="49.28628" lon="1.16311">
        <ele>69</ele>
        <time>2025-09-09T14:46:53.811Z</time>
      </trkpt>
      <trkpt lat="49.28627" lon="1.16311">
        <ele>69</ele>
        <time>2025-09-09T14:47:03.811Z</time>
      </trkpt>
      <trkpt lat="49.28629" lon="1.16312">
        <ele>69</ele>
        <time>2025-09-09T14:47:08.811Z</time>
      </trkpt>
      <trkpt lat="49.28634" lon="1.16312">
        <ele>69</ele>
        <time>2025-09-09T14:47:13.554Z</time>
      </trkpt>
      <trkpt lat="49.28638" lon="1.16316">
        <ele>69</ele>
        <time>2025-09-09T14:47:17.815Z</time>
      </trkpt>
      <trkpt lat="49.28644" lon="1.16316">
        <ele>69</ele>
        <time>2025-09-09T14:47:22.212Z</time>
      </trkpt>
      <trkpt lat="49.28649" lon="1.16314">
        <ele>69</ele>
        <time>2025-09-09T14:47:26.812Z</time>
      </trkpt>
      <trkpt lat="49.28655" lon="1.16313">
        <ele>68</ele>
        <time>2025-09-09T14:47:31.432Z</time>
      </trkpt>
      <trkpt lat="49.2866" lon="1.16313">
        <ele>68</ele>
        <time>2025-09-09T14:47:35.592Z</time>
      </trkpt>
      <trkpt lat="49.28666" lon="1.16313">
        <ele>68</ele>
        <time>2025-09-09T14:47:39.812Z</time>
      </trkpt>
      <trkpt lat="49.28674" lon="1.16315">
        <ele>68</ele>
        <time>2025-09-09T14:47:44.820Z</time>
      </trkpt>
      <trkpt lat="49.28679" lon="1.16317">
        <ele>68</ele>
        <time>2025-09-09T14:47:48.820Z</time>
      </trkpt>
      <trkpt lat="49.28683" lon="1.16317">
        <ele>67</ele>
        <time>2025-09-09T14:47:53.049Z</time>
      </trkpt>
      <trkpt lat="49.28688" lon="1.16316">
        <ele>67</ele>
        <time>2025-09-09T14:47:57.473Z</time>
      </trkpt>
      <trkpt lat="49.28693" lon="1.16317">
        <ele>67</ele>
        <time>2025-09-09T14:48:01.652Z</time>
      </trkpt>
      <trkpt lat="49.28698" lon="1.16319">
        <ele>67</ele>
        <time>2025-09-09T14:48:06.236Z</time>
      </trkpt>
      <trkpt lat="49.28703" lon="1.16321">
        <ele>68</ele>
        <time>2025-09-09T14:48:10.814Z</time>
      </trkpt>
      <trkpt lat="49.28709" lon="1.16322">
        <ele>68</ele>
        <time>2025-09-09T14:48:15.430Z</time>
      </trkpt>
      <trkpt lat="49.28714" lon="1.16321">
        <ele>68</ele>
        <time>2025-09-09T14:48:19.812Z</time>
      </trkpt>
      <trkpt lat="49.28718" lon="1.16322">
        <ele>68</ele>
        <time>2025-09-09T14:48:23.813Z</time>
      </trkpt>
      <trkpt lat="49.28724" lon="1.16322">
        <ele>68</ele>
        <time>2025-09-09T14:48:28.809Z</time>
      </trkpt>
      <trkpt lat="49.28729" lon="1.16322">
        <ele>68</ele>
        <time>2025-09-09T14:48:33.570Z</time>
      </trkpt>
      <trkpt lat="49.28734" lon="1.16322">
        <ele>68</ele>
        <time>2025-09-09T14:48:37.810Z</time>
      </trkpt>
      <trkpt lat="49.28739" lon="1.16321">
        <ele>68</ele>
        <time>2025-09-09T14:48:42.570Z</time>
      </trkpt>
      <trkpt lat="49.28744" lon="1.16322">
        <ele>68</ele>
        <time>2025-09-09T14:48:46.812Z</time>
      </trkpt>
      <trkpt lat="49.28749" lon="1.16324">
        <ele>68</ele>
        <time>2025-09-09T14:48:51.553Z</time>
      </trkpt>
      <trkpt lat="49.28756" lon="1.16324">
        <ele>68</ele>
        <time>2025-09-09T14:48:56.452Z</time>
      </trkpt>
      <trkpt lat="49.28761" lon="1.16326">
        <ele>68</ele>
        <time>2025-09-09T14:49:00.811Z</time>
      </trkpt>
      <trkpt lat="49.28767" lon="1.16326">
        <ele>66</ele>
        <time>2025-09-09T14:49:05.452Z</time>
      </trkpt>
      <trkpt lat="49.28772" lon="1.16324">
        <ele>66</ele>
        <time>2025-09-09T14:49:09.810Z</time>
      </trkpt>
      <trkpt lat="49.28776" lon="1.16326">
        <ele>66</ele>
        <time>2025-09-09T14:49:14.092Z</time>
      </trkpt>
      <trkpt lat="49.28782" lon="1.16327">
        <ele>66</ele>
        <time>2025-09-09T14:49:18.812Z</time>
      </trkpt>
      <trkpt lat="49.28787" lon="1.16328">
        <ele>66</ele>
        <time>2025-09-09T14:49:23.513Z</time>
      </trkpt>
      <trkpt lat="49.28793" lon="1.16327">
        <ele>66</ele>
        <time>2025-09-09T14:49:27.772Z</time>
      </trkpt>
      <trkpt lat="49.28798" lon="1.16328">
        <ele>66</ele>
        <time>2025-09-09T14:49:31.813Z</time>
      </trkpt>
      <trkpt lat="49.28802" lon="1.16328">
        <ele>66</ele>
        <time>2025-09-09T14:49:35.813Z</time>
      </trkpt>
      <trkpt lat="49.28807" lon="1.16328">
        <ele>66</ele>
        <time>2025-09-09T14:49:40.091Z</time>
      </trkpt>
      <trkpt lat="49.28811" lon="1.16328">
        <ele>66</ele>
        <time>2025-09-09T14:49:44.814Z</time>
      </trkpt>
      <trkpt lat="49.28816" lon="1.16328">
        <ele>66</ele>
        <time>2025-09-09T14:49:48.814Z</time>
      </trkpt>
      <trkpt lat="49.28822" lon="1.1633">
        <ele>66</ele>
        <time>2025-09-09T14:49:53.289Z</time>
      </trkpt>
      <trkpt lat="49.28827" lon="1.16332">
        <ele>66</ele>
        <time>2025-09-09T14:49:57.731Z</time>
      </trkpt>
      <trkpt lat="49.28831" lon="1.16333">
        <ele>66</ele>
        <time>2025-09-09T14:50:01.770Z</time>
      </trkpt>
      <trkpt lat="49.28837" lon="1.16334">
        <ele>66</ele>
        <time>2025-09-09T14:50:06.574Z</time>
      </trkpt>
      <trkpt lat="49.2884" lon="1.16334">
        <ele>66</ele>
        <time>2025-09-09T14:50:10.812Z</time>
      </trkpt>
      <trkpt lat="49.28845" lon="1.16334">
        <ele>66</ele>
        <time>2025-09-09T14:50:15.530Z</time>
      </trkpt>
      <trkpt lat="49.28849" lon="1.16336">
        <ele>67</ele>
        <time>2025-09-09T14:50:19.812Z</time>
      </trkpt>
      <trkpt lat="49.28855" lon="1.16334">
        <ele>67</ele>
        <time>2025-09-09T14:50:24.451Z</time>
      </trkpt>
      <trkpt lat="49.2886" lon="1.16333">
        <ele>67</ele>
        <time>2025-09-09T14:50:28.811Z</time>
      </trkpt>
      <trkpt lat="49.28864" lon="1.16334">
        <ele>67</ele>
        <time>2025-09-09T14:50:32.811Z</time>
      </trkpt>
      <trkpt lat="49.28865" lon="1.16341">
        <ele>67</ele>
        <time>2025-09-09T14:51:09.809Z</time>
      </trkpt>
      <trkpt lat="49.28865" lon="1.16341">
        <ele>67</ele>
        <time>2025-09-09T14:51:13.810Z</time>
      </trkpt>
      <trkpt lat="49.28865" lon="1.16341">
        <ele>67</ele>
        <time>2025-09-09T14:51:17.813Z</time>
      </trkpt>
      <trkpt lat="49.28864" lon="1.16344">
        <ele>67</ele>
        <time>2025-09-09T14:51:22.808Z</time>
      </trkpt>
      <trkpt lat="49.28864" lon="1.16353">
        <ele>66</ele>
        <time>2025-09-09T14:51:26.813Z</time>
      </trkpt>
      <trkpt lat="49.28863" lon="1.16359">
        <ele>66</ele>
        <time>2025-09-09T14:51:30.812Z</time>
      </trkpt>
      <trkpt lat="49.28861" lon="1.16369">
        <ele>66</ele>
        <time>2025-09-09T14:51:35.350Z</time>
      </trkpt>
      <trkpt lat="49.2886" lon="1.16377">
        <ele>66</ele>
        <time>2025-09-09T14:51:39.388Z</time>
      </trkpt>
      <trkpt lat="49.2886" lon="1.16386">
        <ele>66</ele>
        <time>2025-09-09T14:51:43.770Z</time>
      </trkpt>
      <trkpt lat="49.28859" lon="1.16394">
        <ele>66</ele>
        <time>2025-09-09T14:51:48.388Z</time>
      </trkpt>
      <trkpt lat="49.28858" lon="1.16402">
        <ele>66</ele>
        <time>2025-09-09T14:51:52.735Z</time>
      </trkpt>
      <trkpt lat="49.28856" lon="1.1641">
        <ele>67</ele>
        <time>2025-09-09T14:51:57.450Z</time>
      </trkpt>
      <trkpt lat="49.28855" lon="1.16418">
        <ele>67</ele>
        <time>2025-09-09T14:52:01.811Z</time>
      </trkpt>
      <trkpt lat="49.28855" lon="1.16426">
        <ele>67</ele>
        <time>2025-09-09T14:52:05.816Z</time>
      </trkpt>
      <trkpt lat="49.28855" lon="1.16433">
        <ele>67</ele>
        <time>2025-09-09T14:52:10.810Z</time>
      </trkpt>
      <trkpt lat="49.28853" lon="1.16439">
        <ele>67</ele>
        <time>2025-09-09T14:52:14.812Z</time>
      </trkpt>
      <trkpt lat="49.28852" lon="1.16449">
        <ele>67</ele>
        <time>2025-09-09T14:52:19.454Z</time>
      </trkpt>
      <trkpt lat="49.28851" lon="1.16458">
        <ele>67</ele>
        <time>2025-09-09T14:52:23.811Z</time>
      </trkpt>
      <trkpt lat="49.2885" lon="1.16466">
        <ele>68</ele>
        <time>2025-09-09T14:52:28.374Z</time>
      </trkpt>
      <trkpt lat="49.2885" lon="1.16474">
        <ele>68</ele>
        <time>2025-09-09T14:52:32.714Z</time>
      </trkpt>
      <trkpt lat="49.28848" lon="1.16481">
        <ele>68</ele>
        <time>2025-09-09T14:52:37.391Z</time>
      </trkpt>
      <trkpt lat="49.28848" lon="1.16488">
        <ele>67</ele>
        <time>2025-09-09T14:52:41.694Z</time>
      </trkpt>
      <trkpt lat="49.28848" lon="1.16496">
        <ele>67</ele>
        <time>2025-09-09T14:52:45.733Z</time>
      </trkpt>
      <trkpt lat="49.28847" lon="1.16502">
        <ele>66</ele>
        <time>2025-09-09T14:52:49.811Z</time>
      </trkpt>
      <trkpt lat="49.28846" lon="1.16512">
        <ele>66</ele>
        <time>2025-09-09T14:52:54.814Z</time>
      </trkpt>
      <trkpt lat="49.28849" lon="1.16519">
        <ele>66</ele>
        <time>2025-09-09T14:52:59.812Z</time>
      </trkpt>
      <trkpt lat="49.28854" lon="1.16524">
        <ele>66</ele>
        <time>2025-09-09T14:53:04.217Z</time>
      </trkpt>
      <trkpt lat="49.28858" lon="1.1653">
        <ele>66</ele>
        <time>2025-09-09T14:53:08.649Z</time>
      </trkpt>
      <trkpt lat="49.28861" lon="1.16535">
        <ele>66</ele>
        <time>2025-09-09T14:53:12.812Z</time>
      </trkpt>
      <trkpt lat="49.28866" lon="1.16539">
        <ele>66</ele>
        <time>2025-09-09T14:53:17.675Z</time>
      </trkpt>
      <trkpt lat="49.28871" lon="1.16543">
        <ele>65</ele>
        <time>2025-09-09T14:53:22.170Z</time>
      </trkpt>
      <trkpt lat="49.28876" lon="1.16546">
        <ele>65</ele>
        <time>2025-09-09T14:53:26.674Z</time>
      </trkpt>
      <trkpt lat="49.2888" lon="1.1655">
        <ele>65</ele>
        <time>2025-09-09T14:53:30.810Z</time>
      </trkpt>
      <trkpt lat="49.28885" lon="1.16553">
        <ele>65</ele>
        <time>2025-09-09T14:53:35.809Z</time>
      </trkpt>
      <trkpt lat="49.28891" lon="1.16559">
        <ele>65</ele>
        <time>2025-09-09T14:53:40.821Z</time>
      </trkpt>
      <trkpt lat="49.28895" lon="1.16564">
        <ele>65</ele>
        <time>2025-09-09T14:53:45.455Z</time>
      </trkpt>
      <trkpt lat="49.289" lon="1.16568">
        <ele>65</ele>
        <time>2025-09-09T14:53:49.812Z</time>
      </trkpt>
      <trkpt lat="49.28906" lon="1.16572">
        <ele>65</ele>
        <time>2025-09-09T14:53:54.811Z</time>
      </trkpt>
      <trkpt lat="49.2891" lon="1.16574">
        <ele>65</ele>
        <time>2025-09-09T14:53:58.814Z</time>
      </trkpt>
      <trkpt lat="49.28916" lon="1.16577">
        <ele>65</ele>
        <time>2025-09-09T14:54:03.377Z</time>
      </trkpt>
      <trkpt lat="49.28922" lon="1.16578">
        <ele>65</ele>
        <time>2025-09-09T14:54:07.836Z</time>
      </trkpt>
      <trkpt lat="49.28927" lon="1.16579">
        <ele>65</ele>
        <time>2025-09-09T14:54:12.811Z</time>
      </trkpt>
      <trkpt lat="49.28932" lon="1.1658">
        <ele>66</ele>
        <time>2025-09-09T14:54:16.814Z</time>
      </trkpt>
      <trkpt lat="49.28937" lon="1.16581">
        <ele>66</ele>
        <time>2025-09-09T14:54:21.332Z</time>
      </trkpt>
      <trkpt lat="49.28941" lon="1.16581">
        <ele>66</ele>
        <time>2025-09-09T14:54:25.651Z</time>
      </trkpt>
      <trkpt lat="49.28946" lon="1.16581">
        <ele>66</ele>
        <time>2025-09-09T14:54:30.252Z</time>
      </trkpt>
      <trkpt lat="49.28951" lon="1.1658">
        <ele>66</ele>
        <time>2025-09-09T14:54:34.809Z</time>
      </trkpt>
      <trkpt lat="49.28956" lon="1.1658">
        <ele>66</ele>
        <time>2025-09-09T14:54:38.810Z</time>
      </trkpt>
      <trkpt lat="49.28961" lon="1.16584">
        <ele>66</ele>
        <time>2025-09-09T14:54:43.812Z</time>
      </trkpt>
      <trkpt lat="49.2896" lon="1.1659">
        <ele>66</ele>
        <time>2025-09-09T14:55:27.814Z</time>
      </trkpt>
      <trkpt lat="49.28961" lon="1.16586">
        <ele>66</ele>
        <time>2025-09-09T14:55:31.814Z</time>
      </trkpt>
      <trkpt lat="49.28963" lon="1.16582">
        <ele>66</ele>
        <time>2025-09-09T14:55:36.554Z</time>
      </trkpt>
      <trkpt lat="49.28967" lon="1.16578">
        <ele>66</ele>
        <time>2025-09-09T14:55:40.809Z</time>
      </trkpt>
      <trkpt lat="49.28973" lon="1.16575">
        <ele>66</ele>
        <time>2025-09-09T14:55:45.308Z</time>
      </trkpt>
      <trkpt lat="49.28977" lon="1.1657">
        <ele>66</ele>
        <time>2025-09-09T14:55:49.690Z</time>
      </trkpt>
      <trkpt lat="49.28981" lon="1.16565">
        <ele>66</ele>
        <time>2025-09-09T14:55:53.811Z</time>
      </trkpt>
      <trkpt lat="49.28986" lon="1.16561">
        <ele>66</ele>
        <time>2025-09-09T14:55:57.814Z</time>
      </trkpt>
      <trkpt lat="49.28991" lon="1.16558">
        <ele>65</ele>
        <time>2025-09-09T14:56:02.896Z</time>
      </trkpt>
      <trkpt lat="49.28995" lon="1.16556">
        <ele>65</ele>
        <time>2025-09-09T14:56:07.269Z</time>
      </trkpt>
      <trkpt lat="49.29" lon="1.16553">
        <ele>65</ele>
        <time>2025-09-09T14:56:11.273Z</time>
      </trkpt>
      <trkpt lat="49.29004" lon="1.16549">
        <ele>65</ele>
        <time>2025-09-09T14:56:15.611Z</time>
      </trkpt>
      <trkpt lat="49.29008" lon="1.16543">
        <ele>65</ele>
        <time>2025-09-09T14:56:19.814Z</time>
      </trkpt>
      <trkpt lat="49.29012" lon="1.16535">
        <ele>65</ele>
        <time>2025-09-09T14:56:24.514Z</time>
      </trkpt>
      <trkpt lat="49.29016" lon="1.16528">
        <ele>63</ele>
        <time>2025-09-09T14:56:28.773Z</time>
      </trkpt>
      <trkpt lat="49.29021" lon="1.1652">
        <ele>63</ele>
        <time>2025-09-09T14:56:33.092Z</time>
      </trkpt>
      <trkpt lat="49.29026" lon="1.16515">
        <ele>63</ele>
        <time>2025-09-09T14:56:37.343Z</time>
      </trkpt>
      <trkpt lat="49.2903" lon="1.16508">
        <ele>64</ele>
        <time>2025-09-09T14:56:41.813Z</time>
      </trkpt>
      <trkpt lat="49.29035" lon="1.16502">
        <ele>64</ele>
        <time>2025-09-09T14:56:46.772Z</time>
      </trkpt>
      <trkpt lat="49.2904" lon="1.16497">
        <ele>64</ele>
        <time>2025-09-09T14:56:51.434Z</time>
      </trkpt>
      <trkpt lat="49.29045" lon="1.1649">
        <ele>62</ele>
        <time>2025-09-09T14:56:56.790Z</time>
      </trkpt>
      <trkpt lat="49.29049" lon="1.16485">
        <ele>61</ele>
        <time>2025-09-09T14:57:00.815Z</time>
      </trkpt>
      <trkpt lat="49.29054" lon="1.1648">
        <ele>61</ele>
        <time>2025-09-09T14:57:05.456Z</time>
      </trkpt>
      <trkpt lat="49.29059" lon="1.16474">
        <ele>61</ele>
        <time>2025-09-09T14:57:10.532Z</time>
      </trkpt>
      <trkpt lat="49.29063" lon="1.16466">
        <ele>61</ele>
        <time>2025-09-09T14:57:14.814Z</time>
      </trkpt>
      <trkpt lat="49.29068" lon="1.1646">
        <ele>61</ele>
        <time>2025-09-09T14:57:19.514Z</time>
      </trkpt>
      <trkpt lat="49.29072" lon="1.16454">
        <ele>60</ele>
        <time>2025-09-09T14:57:23.811Z</time>
      </trkpt>
      <trkpt lat="49.29077" lon="1.16448">
        <ele>60</ele>
        <time>2025-09-09T14:57:28.233Z</time>
      </trkpt>
      <trkpt lat="49.29081" lon="1.16443">
        <ele>60</ele>
        <time>2025-09-09T14:57:32.315Z</time>
      </trkpt>
      <trkpt lat="49.29085" lon="1.16437">
        <ele>60</ele>
        <time>2025-09-09T14:57:36.814Z</time>
      </trkpt>
      <trkpt lat="49.29089" lon="1.16433">
        <ele>60</ele>
        <time>2025-09-09T14:57:40.812Z</time>
      </trkpt>
      <trkpt lat="49.29093" lon="1.16426">
        <ele>59</ele>
        <time>2025-09-09T14:57:45.169Z</time>
      </trkpt>
      <trkpt lat="49.29097" lon="1.1642">
        <ele>59</ele>
        <time>2025-09-09T14:57:49.472Z</time>
      </trkpt>
      <trkpt lat="49.29101" lon="1.16414">
        <ele>60</ele>
        <time>2025-09-09T14:57:53.809Z</time>
      </trkpt>
      <trkpt lat="49.29103" lon="1.16408">
        <ele>60</ele>
        <time>2025-09-09T14:57:58.130Z</time>
      </trkpt>
      <trkpt lat="49.29107" lon="1.16404">
        <ele>60</ele>
        <time>2025-09-09T14:58:02.432Z</time>
      </trkpt>
      <trkpt lat="49.29109" lon="1.16398">
        <ele>59</ele>
        <time>2025-09-09T14:58:06.811Z</time>
      </trkpt>
      <trkpt lat="49.29114" lon="1.16389">
        <ele>59</ele>
        <time>2025-09-09T14:58:11.371Z</time>
      </trkpt>
      <trkpt lat="49.29119" lon="1.16383">
        <ele>59</ele>
        <time>2025-09-09T14:58:15.655Z</time>
      </trkpt>
      <trkpt lat="49.29124" lon="1.16377">
        <ele>59</ele>
        <time>2025-09-09T14:58:19.811Z</time>
      </trkpt>
      <trkpt lat="49.29129" lon="1.16369">
        <ele>58</ele>
        <time>2025-09-09T14:58:24.813Z</time>
      </trkpt>
      <trkpt lat="49.29133" lon="1.16362">
        <ele>58</ele>
        <time>2025-09-09T14:58:29.335Z</time>
      </trkpt>
      <trkpt lat="49.29139" lon="1.16357">
        <ele>58</ele>
        <time>2025-09-09T14:58:33.810Z</time>
      </trkpt>
      <trkpt lat="49.29146" lon="1.16355">
        <ele>58</ele>
        <time>2025-09-09T14:58:38.335Z</time>
      </trkpt>
      <trkpt lat="49.29152" lon="1.16353">
        <ele>58</ele>
        <time>2025-09-09T14:58:42.812Z</time>
      </trkpt>
      <trkpt lat="49.29157" lon="1.16348">
        <ele>59</ele>
        <time>2025-09-09T14:58:47.573Z</time>
      </trkpt>
      <trkpt lat="49.29158" lon="1.16342">
        <ele>60</ele>
        <time>2025-09-09T14:58:51.808Z</time>
      </trkpt>
      <trkpt lat="49.2916" lon="1.16339">
        <ele>60</ele>
        <time>2025-09-09T14:58:55.810Z</time>
      </trkpt>
      <trkpt lat="49.29163" lon="1.16336">
        <ele>60</ele>
        <time>2025-09-09T14:59:00.408Z</time>
      </trkpt>
      <trkpt lat="49.29168" lon="1.16332">
        <ele>60</ele>
        <time>2025-09-09T14:59:04.812Z</time>
      </trkpt>
      <trkpt lat="49.29172" lon="1.16327">
        <ele>60</ele>
        <time>2025-09-09T14:59:09.768Z</time>
      </trkpt>
      <trkpt lat="49.29177" lon="1.16323">
        <ele>60</ele>
        <time>2025-09-09T14:59:14.132Z</time>
      </trkpt>
      <trkpt lat="49.29181" lon="1.16319">
        <ele>58</ele>
        <time>2025-09-09T14:59:18.548Z</time>
      </trkpt>
      <trkpt lat="49.29185" lon="1.16315">
        <ele>58</ele>
        <time>2025-09-09T14:59:22.659Z</time>
      </trkpt>
      <trkpt lat="49.2919" lon="1.1631">
        <ele>58</ele>
        <time>2025-09-09T14:59:27.818Z</time>
      </trkpt>
      <trkpt lat="49.29194" lon="1.16309">
        <ele>58</ele>
        <time>2025-09-09T14:59:32.491Z</time>
      </trkpt>
      <trkpt lat="49.29195" lon="1.16306">
        <ele>58</ele>
        <time>2025-09-09T14:59:36.593Z</time>
      </trkpt>
      <trkpt lat="49.29194" lon="1.16292">
        <ele>58</ele>
        <time>2025-09-09T14:59:58.929Z</time>
      </trkpt>
      <trkpt lat="49.29196" lon="1.16297">
        <ele>58</ele>
        <time>2025-09-09T15:00:03.170Z</time>
      </trkpt>
      <trkpt lat="49.292" lon="1.16296">
        <ele>58</ele>
        <time>2025-09-09T15:00:07.768Z</time>
      </trkpt>
      <trkpt lat="49.29204" lon="1.16294">
        <ele>58</ele>
        <time>2025-09-09T15:00:11.810Z</time>
      </trkpt>
      <trkpt lat="49.29209" lon="1.16292">
        <ele>58</ele>
        <time>2025-09-09T15:00:16.808Z</time>
      </trkpt>
      <trkpt lat="49.29213" lon="1.16292">
        <ele>58</ele>
        <time>2025-09-09T15:00:21.808Z</time>
      </trkpt>
      <trkpt lat="49.29215" lon="1.1629">
        <ele>53</ele>
        <time>2025-09-09T15:00:26.149Z</time>
      </trkpt>
      <trkpt lat="49.29221" lon="1.16286">
        <ele>53</ele>
        <time>2025-09-09T15:00:30.810Z</time>
      </trkpt>
      <trkpt lat="49.29228" lon="1.16285">
        <ele>53</ele>
        <time>2025-09-09T15:00:35.553Z</time>
      </trkpt>
      <trkpt lat="49.29233" lon="1.16286">
        <ele>53</ele>
        <time>2025-09-09T15:00:39.811Z</time>
      </trkpt>
      <trkpt lat="49.29238" lon="1.16285">
        <ele>55</ele>
        <time>2025-09-09T15:00:44.053Z</time>
      </trkpt>
      <trkpt lat="49.29243" lon="1.16285">
        <ele>55</ele>
        <time>2025-09-09T15:00:48.188Z</time>
      </trkpt>
      <trkpt lat="49.29248" lon="1.16283">
        <ele>55</ele>
        <time>2025-09-09T15:00:52.811Z</time>
      </trkpt>
      <trkpt lat="49.29254" lon="1.16282">
        <ele>55</ele>
        <time>2025-09-09T15:00:57.810Z</time>
      </trkpt>
      <trkpt lat="49.29258" lon="1.1628">
        <ele>55</ele>
        <time>2025-09-09T15:01:01.851Z</time>
      </trkpt>
      <trkpt lat="49.29264" lon="1.1628">
        <ele>55</ele>
        <time>2025-09-09T15:01:06.795Z</time>
      </trkpt>
      <trkpt lat="49.29269" lon="1.16279">
        <ele>57</ele>
        <time>2025-09-09T15:01:11.676Z</time>
      </trkpt>
      <trkpt lat="49.29274" lon="1.16279">
        <ele>57</ele>
        <time>2025-09-09T15:01:15.811Z</time>
      </trkpt>
      <trkpt lat="49.29279" lon="1.16279">
        <ele>57</ele>
        <time>2025-09-09T15:01:20.457Z</time>
      </trkpt>
      <trkpt lat="49.29284" lon="1.16278">
        <ele>57</ele>
        <time>2025-09-09T15:01:24.812Z</time>
      </trkpt>
      <trkpt lat="49.29288" lon="1.16278">
        <ele>57</ele>
        <time>2025-09-09T15:01:28.813Z</time>
      </trkpt>
      <trkpt lat="49.29293" lon="1.16278">
        <ele>60</ele>
        <time>2025-09-09T15:01:33.250Z</time>
      </trkpt>
      <trkpt lat="49.29298" lon="1.16276">
        <ele>60</ele>
        <time>2025-09-09T15:01:37.552Z</time>
      </trkpt>
      <trkpt lat="49.29302" lon="1.16275">
        <ele>60</ele>
        <time>2025-09-09T15:01:41.809Z</time>
      </trkpt>
      <trkpt lat="49.29307" lon="1.16275">
        <ele>60</ele>
        <time>2025-09-09T15:01:45.812Z</time>
      </trkpt>
      <trkpt lat="49.29312" lon="1.16274">
        <ele>60</ele>
        <time>2025-09-09T15:01:49.812Z</time>
      </trkpt>
      <trkpt lat="49.29317" lon="1.16273">
        <ele>60</ele>
        <time>2025-09-09T15:01:54.810Z</time>
      </trkpt>
      <trkpt lat="49.29322" lon="1.16271">
        <ele>61</ele>
        <time>2025-09-09T15:01:59.354Z</time>
      </trkpt>
      <trkpt lat="49.29327" lon="1.16269">
        <ele>61</ele>
        <time>2025-09-09T15:02:03.691Z</time>
      </trkpt>
      <trkpt lat="49.29332" lon="1.16269">
        <ele>61</ele>
        <time>2025-09-09T15:02:07.897Z</time>
      </trkpt>
      <trkpt lat="49.29337" lon="1.16269">
        <ele>61</ele>
        <time>2025-09-09T15:02:12.814Z</time>
      </trkpt>
      <trkpt lat="49.29343" lon="1.16267">
        <ele>61</ele>
        <time>2025-09-09T15:02:17.590Z</time>
      </trkpt>
      <trkpt lat="49.29347" lon="1.16267">
        <ele>61</ele>
        <time>2025-09-09T15:02:21.594Z</time>
      </trkpt>
      <trkpt lat="49.29352" lon="1.16267">
        <ele>61</ele>
        <time>2025-09-09T15:02:25.869Z</time>
      </trkpt>
      <trkpt lat="49.29357" lon="1.16267">
        <ele>61</ele>
        <time>2025-09-09T15:02:29.971Z</time>
      </trkpt>
      <trkpt lat="49.29362" lon="1.16266">
        <ele>61</ele>
        <time>2025-09-09T15:02:34.273Z</time>
      </trkpt>
      <trkpt lat="49.29367" lon="1.16264">
        <ele>61</ele>
        <time>2025-09-09T15:02:38.276Z</time>
      </trkpt>
      <trkpt lat="49.29371" lon="1.16264">
        <ele>59</ele>
        <time>2025-09-09T15:02:42.595Z</time>
      </trkpt>
      <trkpt lat="49.29377" lon="1.16264">
        <ele>60</ele>
        <time>2025-09-09T15:02:46.811Z</time>
      </trkpt>
      <trkpt lat="49.29383" lon="1.16263">
        <ele>60</ele>
        <time>2025-09-09T15:02:51.808Z</time>
      </trkpt>
      <trkpt lat="49.29388" lon="1.16261">
        <ele>60</ele>
        <time>2025-09-09T15:02:56.609Z</time>
      </trkpt>
      <trkpt lat="49.29394" lon="1.1626">
        <ele>60</ele>
        <time>2025-09-09T15:03:01.236Z</time>
      </trkpt>
      <trkpt lat="49.29398" lon="1.16259">
        <ele>60</ele>
        <time>2025-09-09T15:03:05.731Z</time>
      </trkpt>
      <trkpt lat="49.29404" lon="1.16257">
        <ele>61</ele>
        <time>2025-09-09T15:03:10.813Z</time>
      </trkpt>
      <trkpt lat="49.29411" lon="1.16256">
        <ele>61</ele>
        <time>2025-09-09T15:03:15.810Z</time>
      </trkpt>
      <trkpt lat="49.29418" lon="1.16256">
        <ele>61</ele>
        <time>2025-09-09T15:03:20.570Z</time>
      </trkpt>
      <trkpt lat="49.29422" lon="1.16255">
        <ele>61</ele>
        <time>2025-09-09T15:03:25.057Z</time>
      </trkpt>
      <trkpt lat="49.29427" lon="1.16253">
        <ele>61</ele>
        <time>2025-09-09T15:03:29.516Z</time>
      </trkpt>
      <trkpt lat="49.29434" lon="1.16252">
        <ele>60</ele>
        <time>2025-09-09T15:03:34.170Z</time>
      </trkpt>
      <trkpt lat="49.29441" lon="1.16254">
        <ele>60</ele>
        <time>2025-09-09T15:03:38.815Z</time>
      </trkpt>
      <trkpt lat="49.29447" lon="1.16254">
        <ele>60</ele>
        <time>2025-09-09T15:03:43.065Z</time>
      </trkpt>
      <trkpt lat="49.29452" lon="1.16253">
        <ele>60</ele>
        <time>2025-09-09T15:03:47.812Z</time>
      </trkpt>
      <trkpt lat="49.29457" lon="1.16252">
        <ele>60</ele>
        <time>2025-09-09T15:03:51.814Z</time>
      </trkpt>
      <trkpt lat="49.29462" lon="1.16252">
        <ele>59</ele>
        <time>2025-09-09T15:03:56.156Z</time>
      </trkpt>
      <trkpt lat="49.29468" lon="1.16253">
        <ele>59</ele>
        <time>2025-09-09T15:04:00.589Z</time>
      </trkpt>
      <trkpt lat="49.29472" lon="1.16252">
        <ele>59</ele>
        <time>2025-09-09T15:04:04.812Z</time>
      </trkpt>
      <trkpt lat="49.29478" lon="1.16251">
        <ele>59</ele>
        <time>2025-09-09T15:04:09.512Z</time>
      </trkpt>
      <trkpt lat="49.29482" lon="1.16249">
        <ele>59</ele>
        <time>2025-09-09T15:04:13.732Z</time>
      </trkpt>
      <trkpt lat="49.29485" lon="1.16247">
        <ele>59</ele>
        <time>2025-09-09T15:04:18.045Z</time>
      </trkpt>
      <trkpt lat="49.29491" lon="1.16246">
        <ele>58</ele>
        <time>2025-09-09T15:04:22.328Z</time>
      </trkpt>
      <trkpt lat="49.29496" lon="1.16245">
        <ele>58</ele>
        <time>2025-09-09T15:04:26.534Z</time>
      </trkpt>
      <trkpt lat="49.29501" lon="1.16244">
        <ele>58</ele>
        <time>2025-09-09T15:04:30.812Z</time>
      </trkpt>
      <trkpt lat="49.29507" lon="1.16243">
        <ele>58</ele>
        <time>2025-09-09T15:04:35.472Z</time>
      </trkpt>
      <trkpt lat="49.29512" lon="1.16243">
        <ele>58</ele>
        <time>2025-09-09T15:04:39.572Z</time>
      </trkpt>
      <trkpt lat="49.29517" lon="1.16242">
        <ele>57</ele>
        <time>2025-09-09T15:04:44.095Z</time>
      </trkpt>
      <trkpt lat="49.29521" lon="1.16242">
        <ele>57</ele>
        <time>2025-09-09T15:04:48.177Z</time>
      </trkpt>
      <trkpt lat="49.29527" lon="1.16241">
        <ele>57</ele>
        <time>2025-09-09T15:04:52.811Z</time>
      </trkpt>
      <trkpt lat="49.29533" lon="1.1624">
        <ele>57</ele>
        <time>2025-09-09T15:04:57.678Z</time>
      </trkpt>
      <trkpt lat="49.29538" lon="1.16239">
        <ele>57</ele>
        <time>2025-09-09T15:05:01.814Z</time>
      </trkpt>
      <trkpt lat="49.29543" lon="1.16238">
        <ele>57</ele>
        <time>2025-09-09T15:05:06.237Z</time>
      </trkpt>
      <trkpt lat="49.29549" lon="1.16236">
        <ele>57</ele>
        <time>2025-09-09T15:05:10.810Z</time>
      </trkpt>
      <trkpt lat="49.29555" lon="1.16236">
        <ele>57</ele>
        <time>2025-09-09T15:05:15.350Z</time>
      </trkpt>
      <trkpt lat="49.2956" lon="1.16236">
        <ele>55</ele>
        <time>2025-09-09T15:05:19.477Z</time>
      </trkpt>
      <trkpt lat="49.29566" lon="1.16235">
        <ele>55</ele>
        <time>2025-09-09T15:05:23.812Z</time>
      </trkpt>
      <trkpt lat="49.29571" lon="1.16234">
        <ele>54</ele>
        <time>2025-09-09T15:05:28.214Z</time>
      </trkpt>
      <trkpt lat="49.29576" lon="1.16233">
        <ele>54</ele>
        <time>2025-09-09T15:05:32.813Z</time>
      </trkpt>
      <trkpt lat="49.29582" lon="1.16232">
        <ele>54</ele>
        <time>2025-09-09T15:05:37.572Z</time>
      </trkpt>
      <trkpt lat="49.29587" lon="1.16231">
        <ele>54</ele>
        <time>2025-09-09T15:05:41.654Z</time>
      </trkpt>
      <trkpt lat="49.29593" lon="1.16231">
        <ele>54</ele>
        <time>2025-09-09T15:05:45.811Z</time>
      </trkpt>
      <trkpt lat="49.29599" lon="1.16232">
        <ele>53</ele>
        <time>2025-09-09T15:05:50.809Z</time>
      </trkpt>
      <trkpt lat="49.29604" lon="1.1623">
        <ele>53</ele>
        <time>2025-09-09T15:05:54.810Z</time>
      </trkpt>
      <trkpt lat="49.2961" lon="1.16229">
        <ele>53</ele>
        <time>2025-09-09T15:05:59.451Z</time>
      </trkpt>
      <trkpt lat="49.29615" lon="1.16228">
        <ele>53</ele>
        <time>2025-09-09T15:06:03.813Z</time>
      </trkpt>
      <trkpt lat="49.2962" lon="1.16228">
        <ele>53</ele>
        <time>2025-09-09T15:06:07.820Z</time>
      </trkpt>
      <trkpt lat="49.29625" lon="1.16227">
        <ele>54</ele>
        <time>2025-09-09T15:06:12.813Z</time>
      </trkpt>
      <trkpt lat="49.2963" lon="1.16226">
        <ele>54</ele>
        <time>2025-09-09T15:06:17.256Z</time>
      </trkpt>
      <trkpt lat="49.29636" lon="1.16226">
        <ele>54</ele>
        <time>2025-09-09T15:06:21.813Z</time>
      </trkpt>
      <trkpt lat="49.29641" lon="1.16226">
        <ele>54</ele>
        <time>2025-09-09T15:06:26.590Z</time>
      </trkpt>
      <trkpt lat="49.29646" lon="1.16224">
        <ele>54</ele>
        <time>2025-09-09T15:06:30.750Z</time>
      </trkpt>
      <trkpt lat="49.29654" lon="1.16222">
        <ele>56</ele>
        <time>2025-09-09T15:08:26.810Z</time>
      </trkpt>
      <trkpt lat="49.29657" lon="1.16218">
        <ele>56</ele>
        <time>2025-09-09T15:08:30.810Z</time>
      </trkpt>
      <trkpt lat="49.2966" lon="1.16214">
        <ele>56</ele>
        <time>2025-09-09T15:08:35.274Z</time>
      </trkpt>
      <trkpt lat="49.29665" lon="1.16203">
        <ele>53</ele>
        <time>2025-09-09T15:08:39.814Z</time>
      </trkpt>
      <trkpt lat="49.29668" lon="1.16198">
        <ele>53</ele>
        <time>2025-09-09T15:08:44.353Z</time>
      </trkpt>
      <trkpt lat="49.29671" lon="1.16194">
        <ele>53</ele>
        <time>2025-09-09T15:08:48.620Z</time>
      </trkpt>
      <trkpt lat="49.29675" lon="1.16188">
        <ele>53</ele>
        <time>2025-09-09T15:08:53.572Z</time>
      </trkpt>
      <trkpt lat="49.29678" lon="1.16181">
        <ele>53</ele>
        <time>2025-09-09T15:08:57.811Z</time>
      </trkpt>
      <trkpt lat="49.29681" lon="1.16175">
        <ele>53</ele>
        <time>2025-09-09T15:09:02.131Z</time>
      </trkpt>
      <trkpt lat="49.29686" lon="1.1617">
        <ele>53</ele>
        <time>2025-09-09T15:09:06.810Z</time>
      </trkpt>
      <trkpt lat="49.29691" lon="1.16167">
        <ele>53</ele>
        <time>2025-09-09T15:09:11.270Z</time>
      </trkpt>
      <trkpt lat="49.29695" lon="1.16163">
        <ele>53</ele>
        <time>2025-09-09T15:09:15.371Z</time>
      </trkpt>
      <trkpt lat="49.29697" lon="1.16156">
        <ele>53</ele>
        <time>2025-09-09T15:09:19.751Z</time>
      </trkpt>
      <trkpt lat="49.29699" lon="1.1615">
        <ele>51</ele>
        <time>2025-09-09T15:09:24.572Z</time>
      </trkpt>
      <trkpt lat="49.29703" lon="1.16146">
        <ele>51</ele>
        <time>2025-09-09T15:09:28.809Z</time>
      </trkpt>
      <trkpt lat="49.29706" lon="1.16143">
        <ele>51</ele>
        <time>2025-09-09T15:09:33.712Z</time>
      </trkpt>
      <trkpt lat="49.29709" lon="1.16141">
        <ele>52</ele>
        <time>2025-09-09T15:09:37.810Z</time>
      </trkpt>
      <trkpt lat="49.29714" lon="1.16138">
        <ele>52</ele>
        <time>2025-09-09T15:09:42.570Z</time>
      </trkpt>
      <trkpt lat="49.29718" lon="1.16136">
        <ele>52</ele>
        <time>2025-09-09T15:09:46.810Z</time>
      </trkpt>
      <trkpt lat="49.29723" lon="1.16136">
        <ele>52</ele>
        <time>2025-09-09T15:09:51.808Z</time>
      </trkpt>
      <trkpt lat="49.29728" lon="1.16131">
        <ele>52</ele>
        <time>2025-09-09T15:09:56.389Z</time>
      </trkpt>
      <trkpt lat="49.29733" lon="1.16121">
        <ele>50</ele>
        <time>2025-09-09T15:10:00.811Z</time>
      </trkpt>
      <trkpt lat="49.29735" lon="1.16111">
        <ele>50</ele>
        <time>2025-09-09T15:10:05.513Z</time>
      </trkpt>
      <trkpt lat="49.29734" lon="1.16102">
        <ele>50</ele>
        <time>2025-09-09T15:10:09.809Z</time>
      </trkpt>
      <trkpt lat="49.29732" lon="1.16094">
        <ele>46</ele>
        <time>2025-09-09T15:10:14.290Z</time>
      </trkpt>
      <trkpt lat="49.29731" lon="1.16087">
        <ele>46</ele>
        <time>2025-09-09T15:10:18.390Z</time>
      </trkpt>
      <trkpt lat="49.2973" lon="1.16079">
        <ele>46</ele>
        <time>2025-09-09T15:10:22.711Z</time>
      </trkpt>
      <trkpt lat="49.29732" lon="1.16071">
        <ele>46</ele>
        <time>2025-09-09T15:10:27.109Z</time>
      </trkpt>
      <trkpt lat="49.29735" lon="1.16065">
        <ele>44</ele>
        <time>2025-09-09T15:10:31.809Z</time>
      </trkpt>
      <trkpt lat="49.2974" lon="1.1606">
        <ele>43</ele>
        <time>2025-09-09T15:10:36.293Z</time>
      </trkpt>
      <trkpt lat="49.29745" lon="1.16057">
        <ele>43</ele>
        <time>2025-09-09T15:10:40.797Z</time>
      </trkpt>
      <trkpt lat="49.2975" lon="1.16055">
        <ele>43</ele>
        <time>2025-09-09T15:10:44.812Z</time>
      </trkpt>
      <trkpt lat="49.29756" lon="1.16053">
        <ele>43</ele>
        <time>2025-09-09T15:10:49.348Z</time>
      </trkpt>
      <trkpt lat="49.29761" lon="1.16051">
        <ele>43</ele>
        <time>2025-09-09T15:10:53.812Z</time>
      </trkpt>
      <trkpt lat="49.29767" lon="1.16048">
        <ele>42</ele>
        <time>2025-09-09T15:10:58.716Z</time>
      </trkpt>
      <trkpt lat="49.2977" lon="1.16044">
        <ele>42</ele>
        <time>2025-09-09T15:11:02.811Z</time>
      </trkpt>
      <trkpt lat="49.29772" lon="1.16036">
        <ele>38</ele>
        <time>2025-09-09T15:11:07.689Z</time>
      </trkpt>
      <trkpt lat="49.29771" lon="1.16029">
        <ele>38</ele>
        <time>2025-09-09T15:11:11.809Z</time>
      </trkpt>
      <trkpt lat="49.2977" lon="1.16023">
        <ele>38</ele>
        <time>2025-09-09T15:11:16.214Z</time>
      </trkpt>
      <trkpt lat="49.29768" lon="1.16016">
        <ele>38</ele>
        <time>2025-09-09T15:11:20.812Z</time>
      </trkpt>
      <trkpt lat="49.29767" lon="1.16008">
        <ele>35</ele>
        <time>2025-09-09T15:11:25.371Z</time>
      </trkpt>
      <trkpt lat="49.29767" lon="1.15999">
        <ele>35</ele>
        <time>2025-09-09T15:11:29.691Z</time>
      </trkpt>
      <trkpt lat="49.29767" lon="1.15993">
        <ele>35</ele>
        <time>2025-09-09T15:11:33.812Z</time>
      </trkpt>
      <trkpt lat="49.29769" lon="1.15985">
        <ele>33</ele>
        <time>2025-09-09T15:11:38.172Z</time>
      </trkpt>
      <trkpt lat="49.29775" lon="1.15982">
        <ele>33</ele>
        <time>2025-09-09T15:11:42.810Z</time>
      </trkpt>
      <trkpt lat="49.29782" lon="1.15984">
        <ele>33</ele>
        <time>2025-09-09T15:11:47.809Z</time>
      </trkpt>
      <trkpt lat="49.29787" lon="1.15985">
        <ele>33</ele>
        <time>2025-09-09T15:11:52.413Z</time>
      </trkpt>
      <trkpt lat="49.29793" lon="1.15984">
        <ele>32</ele>
        <time>2025-09-09T15:11:56.810Z</time>
      </trkpt>
      <trkpt lat="49.29798" lon="1.15984">
        <ele>32</ele>
        <time>2025-09-09T15:12:01.350Z</time>
      </trkpt>
      <trkpt lat="49.29804" lon="1.15984">
        <ele>32</ele>
        <time>2025-09-09T15:12:05.812Z</time>
      </trkpt>
      <trkpt lat="49.2981" lon="1.15984">
        <ele>32</ele>
        <time>2025-09-09T15:12:10.709Z</time>
      </trkpt>
      <trkpt lat="49.29815" lon="1.15984">
        <ele>32</ele>
        <time>2025-09-09T15:12:14.812Z</time>
      </trkpt>
      <trkpt lat="49.2982" lon="1.15985">
        <ele>30</ele>
        <time>2025-09-09T15:12:19.348Z</time>
      </trkpt>
      <trkpt lat="49.29825" lon="1.15986">
        <ele>30</ele>
        <time>2025-09-09T15:12:23.790Z</time>
      </trkpt>
      <trkpt lat="49.2983" lon="1.15986">
        <ele>30</ele>
        <time>2025-09-09T15:12:28.189Z</time>
      </trkpt>
      <trkpt lat="49.29835" lon="1.15986">
        <ele>30</ele>
        <time>2025-09-09T15:12:32.271Z</time>
      </trkpt>
      <trkpt lat="49.2984" lon="1.15985">
        <ele>30</ele>
        <time>2025-09-09T15:12:36.808Z</time>
      </trkpt>
      <trkpt lat="49.29845" lon="1.15987">
        <ele>33</ele>
        <time>2025-09-09T15:12:40.812Z</time>
      </trkpt>
      <trkpt lat="49.29851" lon="1.15991">
        <ele>30</ele>
        <time>2025-09-09T15:12:45.810Z</time>
      </trkpt>
      <trkpt lat="49.29855" lon="1.15996">
        <ele>30</ele>
        <time>2025-09-09T15:12:49.810Z</time>
      </trkpt>
      <trkpt lat="49.29858" lon="1.16002">
        <ele>30</ele>
        <time>2025-09-09T15:12:54.011Z</time>
      </trkpt>
      <trkpt lat="49.29861" lon="1.1601">
        <ele>30</ele>
        <time>2025-09-09T15:12:58.628Z</time>
      </trkpt>
      <trkpt lat="49.29865" lon="1.16017">
        <ele>33</ele>
        <time>2025-09-09T15:13:02.811Z</time>
      </trkpt>
      <trkpt lat="49.29867" lon="1.16026">
        <ele>33</ele>
        <time>2025-09-09T15:13:07.733Z</time>
      </trkpt>
      <trkpt lat="49.29869" lon="1.16033">
        <ele>33</ele>
        <time>2025-09-09T15:13:11.772Z</time>
      </trkpt>
      <trkpt lat="49.29871" lon="1.1604">
        <ele>33</ele>
        <time>2025-09-09T15:13:16.197Z</time>
      </trkpt>
      <trkpt lat="49.29874" lon="1.16048">
        <ele>35</ele>
        <time>2025-09-09T15:13:20.455Z</time>
      </trkpt>
      <trkpt lat="49.29875" lon="1.16055">
        <ele>28</ele>
        <time>2025-09-09T15:13:24.810Z</time>
      </trkpt>
      <trkpt lat="49.29877" lon="1.1606">
        <ele>28</ele>
        <time>2025-09-09T15:13:28.990Z</time>
      </trkpt>
      <trkpt lat="49.2988" lon="1.16067">
        <ele>28</ele>
        <time>2025-09-09T15:13:33.809Z</time>
      </trkpt>
      <trkpt lat="49.29884" lon="1.16072">
        <ele>29</ele>
        <time>2025-09-09T15:13:37.811Z</time>
      </trkpt>
      <trkpt lat="49.29889" lon="1.16077">
        <ele>29</ele>
        <time>2025-09-09T15:13:42.812Z</time>
      </trkpt>
      <trkpt lat="49.29894" lon="1.1608">
        <ele>29</ele>
        <time>2025-09-09T15:13:47.137Z</time>
      </trkpt>
      <trkpt lat="49.29899" lon="1.16083">
        <ele>29</ele>
        <time>2025-09-09T15:13:51.649Z</time>
      </trkpt>
      <trkpt lat="49.29903" lon="1.16087">
        <ele>23</ele>
        <time>2025-09-09T15:13:55.808Z</time>
      </trkpt>
      <trkpt lat="49.29909" lon="1.16091">
        <ele>23</ele>
        <time>2025-09-09T15:14:00.429Z</time>
      </trkpt>
      <trkpt lat="49.29913" lon="1.16095">
        <ele>23</ele>
        <time>2025-09-09T15:14:04.811Z</time>
      </trkpt>
      <trkpt lat="49.29917" lon="1.16099">
        <ele>24</ele>
        <time>2025-09-09T15:14:09.130Z</time>
      </trkpt>
      <trkpt lat="49.29922" lon="1.16102">
        <ele>24</ele>
        <time>2025-09-09T15:14:13.808Z</time>
      </trkpt>
      <trkpt lat="49.29926" lon="1.16104">
        <ele>24</ele>
        <time>2025-09-09T15:14:17.811Z</time>
      </trkpt>
      <trkpt lat="49.29931" lon="1.16108">
        <ele>22</ele>
        <time>2025-09-09T15:14:22.370Z</time>
      </trkpt>
      <trkpt lat="49.29936" lon="1.16112">
        <ele>22</ele>
        <time>2025-09-09T15:14:26.812Z</time>
      </trkpt>
      <trkpt lat="49.2994" lon="1.16117">
        <ele>22</ele>
        <time>2025-09-09T15:14:31.631Z</time>
      </trkpt>
      <trkpt lat="49.29944" lon="1.16122">
        <ele>22</ele>
        <time>2025-09-09T15:14:35.732Z</time>
      </trkpt>
      <trkpt lat="49.29949" lon="1.16126">
        <ele>23</ele>
        <time>2025-09-09T15:14:40.131Z</time>
      </trkpt>
      <trkpt lat="49.29951" lon="1.16127">
        <ele>23</ele>
        <time>2025-09-09T15:14:44.108Z</time>
      </trkpt>
      <trkpt lat="49.29953" lon="1.16127">
        <ele>23</ele>
        <time>2025-09-09T15:14:48.811Z</time>
      </trkpt>
      <trkpt lat="49.29958" lon="1.16131">
        <ele>23</ele>
        <time>2025-09-09T15:14:53.589Z</time>
      </trkpt>
      <trkpt lat="49.2996" lon="1.16137">
        <ele>21</ele>
        <time>2025-09-09T15:14:57.808Z</time>
      </trkpt>
      <trkpt lat="49.29964" lon="1.16141">
        <ele>21</ele>
        <time>2025-09-09T15:15:01.809Z</time>
      </trkpt>
      <trkpt lat="49.29969" lon="1.16147">
        <ele>21</ele>
        <time>2025-09-09T15:15:06.810Z</time>
      </trkpt>
      <trkpt lat="49.29973" lon="1.16151">
        <ele>21</ele>
        <time>2025-09-09T15:15:11.455Z</time>
      </trkpt>
      <trkpt lat="49.29976" lon="1.16155">
        <ele>22</ele>
        <time>2025-09-09T15:15:15.807Z</time>
      </trkpt>
      <trkpt lat="49.2998" lon="1.1616">
        <ele>22</ele>
        <time>2025-09-09T15:15:20.428Z</time>
      </trkpt>
      <trkpt lat="49.29984" lon="1.16164">
        <ele>22</ele>
        <time>2025-09-09T15:15:24.807Z</time>
      </trkpt>
      <trkpt lat="49.29987" lon="1.16169">
        <ele>21</ele>
        <time>2025-09-09T15:15:28.910Z</time>
      </trkpt>
      <trkpt lat="49.29991" lon="1.16172">
        <ele>21</ele>
        <time>2025-09-09T15:15:33.475Z</time>
      </trkpt>
      <trkpt lat="49.29994" lon="1.16177">
        <ele>21</ele>
        <time>2025-09-09T15:15:37.610Z</time>
      </trkpt>
      <trkpt lat="49.29999" lon="1.16181">
        <ele>22</ele>
        <time>2025-09-09T15:15:41.810Z</time>
      </trkpt>
      <trkpt lat="49.30003" lon="1.16186">
        <ele>22</ele>
        <time>2025-09-09T15:15:46.556Z</time>
      </trkpt>
      <trkpt lat="49.30007" lon="1.16191">
        <ele>22</ele>
        <time>2025-09-09T15:15:50.810Z</time>
      </trkpt>
      <trkpt lat="49.30012" lon="1.16196">
        <ele>22</ele>
        <time>2025-09-09T15:15:55.529Z</time>
      </trkpt>
      <trkpt lat="49.30017" lon="1.16199">
        <ele>20</ele>
        <time>2025-09-09T15:15:59.810Z</time>
      </trkpt>
      <trkpt lat="49.30022" lon="1.162">
        <ele>20</ele>
        <time>2025-09-09T15:16:04.283Z</time>
      </trkpt>
      <trkpt lat="49.30027" lon="1.16204">
        <ele>20</ele>
        <time>2025-09-09T15:16:08.809Z</time>
      </trkpt>
      <trkpt lat="49.30032" lon="1.16208">
        <ele>20</ele>
        <time>2025-09-09T15:16:13.370Z</time>
      </trkpt>
      <trkpt lat="49.30036" lon="1.16212">
        <ele>20</ele>
        <time>2025-09-09T15:16:17.469Z</time>
      </trkpt>
      <trkpt lat="49.3004" lon="1.16215">
        <ele>20</ele>
        <time>2025-09-09T15:16:21.810Z</time>
      </trkpt>
      <trkpt lat="49.30044" lon="1.16216">
        <ele>19</ele>
        <time>2025-09-09T15:16:26.275Z</time>
      </trkpt>
      <trkpt lat="49.30049" lon="1.16218">
        <ele>19</ele>
        <time>2025-09-09T15:16:30.809Z</time>
      </trkpt>
      <trkpt lat="49.30054" lon="1.16221">
        <ele>19</ele>
        <time>2025-09-09T15:16:35.037Z</time>
      </trkpt>
      <trkpt lat="49.30058" lon="1.16226">
        <ele>19</ele>
        <time>2025-09-09T15:16:39.366Z</time>
      </trkpt>
      <trkpt lat="49.30063" lon="1.1623">
        <ele>19</ele>
        <time>2025-09-09T15:16:43.810Z</time>
      </trkpt>
      <trkpt lat="49.30067" lon="1.16233">
        <ele>19</ele>
        <time>2025-09-09T15:16:48.495Z</time>
      </trkpt>
      <trkpt lat="49.30072" lon="1.16237">
        <ele>20</ele>
        <time>2025-09-09T15:16:52.807Z</time>
      </trkpt>
      <trkpt lat="49.30076" lon="1.1624">
        <ele>20</ele>
        <time>2025-09-09T15:16:56.809Z</time>
      </trkpt>
      <trkpt lat="49.30081" lon="1.16244">
        <ele>20</ele>
        <time>2025-09-09T15:17:01.808Z</time>
      </trkpt>
      <trkpt lat="49.30085" lon="1.16248">
        <ele>20</ele>
        <time>2025-09-09T15:17:05.810Z</time>
      </trkpt>
      <trkpt lat="49.3009" lon="1.16252">
        <ele>20</ele>
        <time>2025-09-09T15:17:09.997Z</time>
      </trkpt>
      <trkpt lat="49.30094" lon="1.16255">
        <ele>20</ele>
        <time>2025-09-09T15:17:14.211Z</time>
      </trkpt>
      <trkpt lat="49.30099" lon="1.16259">
        <ele>21</ele>
        <time>2025-09-09T15:17:18.733Z</time>
      </trkpt>
      <trkpt lat="49.30103" lon="1.16263">
        <ele>21</ele>
        <time>2025-09-09T15:17:23.272Z</time>
      </trkpt>
      <trkpt lat="49.30107" lon="1.16268">
        <ele>21</ele>
        <time>2025-09-09T15:17:27.696Z</time>
      </trkpt>
      <trkpt lat="49.30112" lon="1.16273">
        <ele>21</ele>
        <time>2025-09-09T15:17:32.156Z</time>
      </trkpt>
      <trkpt lat="49.30117" lon="1.16277">
        <ele>21</ele>
        <time>2025-09-09T15:17:36.651Z</time>
      </trkpt>
      <trkpt lat="49.30121" lon="1.16279">
        <ele>21</ele>
        <time>2025-09-09T15:17:40.808Z</time>
      </trkpt>
      <trkpt lat="49.30126" lon="1.16283">
        <ele>21</ele>
        <time>2025-09-09T15:17:45.555Z</time>
      </trkpt>
      <trkpt lat="49.30131" lon="1.16288">
        <ele>21</ele>
        <time>2025-09-09T15:17:50.330Z</time>
      </trkpt>
      <trkpt lat="49.30136" lon="1.16292">
        <ele>20</ele>
        <time>2025-09-09T15:17:54.553Z</time>
      </trkpt>
      <trkpt lat="49.30141" lon="1.16296">
        <ele>20</ele>
        <time>2025-09-09T15:17:58.952Z</time>
      </trkpt>
      <trkpt lat="49.30146" lon="1.16301">
        <ele>20</ele>
        <time>2025-09-09T15:18:03.455Z</time>
      </trkpt>
      <trkpt lat="49.3015" lon="1.16305">
        <ele>20</ele>
        <time>2025-09-09T15:18:07.805Z</time>
      </trkpt>
      <trkpt lat="49.30154" lon="1.1631">
        <ele>20</ele>
        <time>2025-09-09T15:18:11.810Z</time>
      </trkpt>
      <trkpt lat="49.30159" lon="1.16314">
        <ele>20</ele>
        <time>2025-09-09T15:18:16.291Z</time>
      </trkpt>
      <trkpt lat="49.30163" lon="1.16317">
        <ele>20</ele>
        <time>2025-09-09T15:18:20.532Z</time>
      </trkpt>
      <trkpt lat="49.30167" lon="1.16321">
        <ele>20</ele>
        <time>2025-09-09T15:18:24.510Z</time>
      </trkpt>
      <trkpt lat="49.30173" lon="1.16325">
        <ele>20</ele>
        <time>2025-09-09T15:18:28.591Z</time>
      </trkpt>
      <trkpt lat="49.30177" lon="1.16326">
        <ele>20</ele>
        <time>2025-09-09T15:18:32.811Z</time>
      </trkpt>
      <trkpt lat="49.30182" lon="1.16324">
        <ele>20</ele>
        <time>2025-09-09T15:18:37.814Z</time>
      </trkpt>
      <trkpt lat="49.30183" lon="1.16321">
        <ele>20</ele>
        <time>2025-09-09T15:18:42.411Z</time>
      </trkpt>
      <trkpt lat="49.30183" lon="1.16313">
        <ele>20</ele>
        <time>2025-09-09T15:18:46.813Z</time>
      </trkpt>
      <trkpt lat="49.30183" lon="1.16305">
        <ele>20</ele>
        <time>2025-09-09T15:18:51.810Z</time>
      </trkpt>
      <trkpt lat="49.30185" lon="1.16296">
        <ele>20</ele>
        <time>2025-09-09T15:18:56.353Z</time>
      </trkpt>
      <trkpt lat="49.30188" lon="1.16289">
        <ele>20</ele>
        <time>2025-09-09T15:19:00.811Z</time>
      </trkpt>
      <trkpt lat="49.30192" lon="1.16281">
        <ele>20</ele>
        <time>2025-09-09T15:19:05.809Z</time>
      </trkpt>
      <trkpt lat="49.30194" lon="1.16275">
        <ele>20</ele>
        <time>2025-09-09T15:19:09.934Z</time>
      </trkpt>
      <trkpt lat="49.30196" lon="1.16268">
        <ele>20</ele>
        <time>2025-09-09T15:19:14.394Z</time>
      </trkpt>
      <trkpt lat="49.30198" lon="1.1626">
        <ele>21</ele>
        <time>2025-09-09T15:19:18.810Z</time>
      </trkpt>
      <trkpt lat="49.30202" lon="1.16254">
        <ele>21</ele>
        <time>2025-09-09T15:19:23.807Z</time>
      </trkpt>
      <trkpt lat="49.30205" lon="1.16248">
        <ele>21</ele>
        <time>2025-09-09T15:19:27.807Z</time>
      </trkpt>
      <trkpt lat="49.30207" lon="1.16242">
        <ele>21</ele>
        <time>2025-09-09T15:19:32.550Z</time>
      </trkpt>
      <trkpt lat="49.30211" lon="1.16238">
        <ele>20</ele>
        <time>2025-09-09T15:19:36.817Z</time>
      </trkpt>
      <trkpt lat="49.30216" lon="1.16233">
        <ele>21</ele>
        <time>2025-09-09T15:19:41.436Z</time>
      </trkpt>
      <trkpt lat="49.30219" lon="1.16227">
        <ele>21</ele>
        <time>2025-09-09T15:19:45.755Z</time>
      </trkpt>
      <trkpt lat="49.30223" lon="1.16223">
        <ele>21</ele>
        <time>2025-09-09T15:19:50.414Z</time>
      </trkpt>
      <trkpt lat="49.30225" lon="1.16218">
        <ele>21</ele>
        <time>2025-09-09T15:19:54.453Z</time>
      </trkpt>
      <trkpt lat="49.30228" lon="1.16211">
        <ele>21</ele>
        <time>2025-09-09T15:19:58.809Z</time>
      </trkpt>
      <trkpt lat="49.3023" lon="1.16203">
        <ele>21</ele>
        <time>2025-09-09T15:20:03.689Z</time>
      </trkpt>
      <trkpt lat="49.30233" lon="1.16197">
        <ele>21</ele>
        <time>2025-09-09T15:20:07.807Z</time>
      </trkpt>
      <trkpt lat="49.30235" lon="1.16191">
        <ele>21</ele>
        <time>2025-09-09T15:20:11.968Z</time>
      </trkpt>
      <trkpt lat="49.30238" lon="1.16185">
        <ele>21</ele>
        <time>2025-09-09T15:20:16.209Z</time>
      </trkpt>
      <trkpt lat="49.30241" lon="1.16179">
        <ele>21</ele>
        <time>2025-09-09T15:20:20.336Z</time>
      </trkpt>
      <trkpt lat="49.30244" lon="1.16173">
        <ele>21</ele>
        <time>2025-09-09T15:20:24.471Z</time>
      </trkpt>
      <trkpt lat="49.30246" lon="1.16166">
        <ele>21</ele>
        <time>2025-09-09T15:20:28.676Z</time>
      </trkpt>
      <trkpt lat="49.3025" lon="1.16158">
        <ele>21</ele>
        <time>2025-09-09T15:20:33.716Z</time>
      </trkpt>
      <trkpt lat="49.30253" lon="1.16153">
        <ele>22</ele>
        <time>2025-09-09T15:20:37.809Z</time>
      </trkpt>
      <trkpt lat="49.30256" lon="1.16145">
        <ele>22</ele>
        <time>2025-09-09T15:20:42.809Z</time>
      </trkpt>
      <trkpt lat="49.30258" lon="1.16138">
        <ele>22</ele>
        <time>2025-09-09T15:20:46.811Z</time>
      </trkpt>
      <trkpt lat="49.30261" lon="1.16131">
        <ele>22</ele>
        <time>2025-09-09T15:20:51.450Z</time>
      </trkpt>
      <trkpt lat="49.30264" lon="1.16124">
        <ele>24</ele>
        <time>2025-09-09T15:20:55.809Z</time>
      </trkpt>
      <trkpt lat="49.30268" lon="1.16117">
        <ele>24</ele>
        <time>2025-09-09T15:21:00.354Z</time>
      </trkpt>
      <trkpt lat="49.30271" lon="1.16111">
        <ele>24</ele>
        <time>2025-09-09T15:21:04.690Z</time>
      </trkpt>
      <trkpt lat="49.30274" lon="1.16103">
        <ele>24</ele>
        <time>2025-09-09T15:21:09.791Z</time>
      </trkpt>
      <trkpt lat="49.30276" lon="1.16097">
        <ele>24</ele>
        <time>2025-09-09T15:21:13.808Z</time>
      </trkpt>
      <trkpt lat="49.30279" lon="1.1609">
        <ele>24</ele>
        <time>2025-09-09T15:21:18.353Z</time>
      </trkpt>
      <trkpt lat="49.30282" lon="1.16084">
        <ele>24</ele>
        <time>2025-09-09T15:21:22.409Z</time>
      </trkpt>
      <trkpt lat="49.30285" lon="1.16077">
        <ele>24</ele>
        <time>2025-09-09T15:21:26.811Z</time>
      </trkpt>
      <trkpt lat="49.30289" lon="1.1607">
        <ele>24</ele>
        <time>2025-09-09T15:21:31.805Z</time>
      </trkpt>
      <trkpt lat="49.30292" lon="1.16064">
        <ele>24</ele>
        <time>2025-09-09T15:21:35.809Z</time>
      </trkpt>
      <trkpt lat="49.30296" lon="1.16058">
        <ele>24</ele>
        <time>2025-09-09T15:21:40.811Z</time>
      </trkpt>
      <trkpt lat="49.303" lon="1.16051">
        <ele>24</ele>
        <time>2025-09-09T15:21:45.289Z</time>
      </trkpt>
      <trkpt lat="49.30302" lon="1.16044">
        <ele>24</ele>
        <time>2025-09-09T15:21:49.748Z</time>
      </trkpt>
      <trkpt lat="49.30305" lon="1.16037">
        <ele>24</ele>
        <time>2025-09-09T15:21:54.158Z</time>
      </trkpt>
      <trkpt lat="49.30308" lon="1.16031">
        <ele>24</ele>
        <time>2025-09-09T15:21:58.572Z</time>
      </trkpt>
      <trkpt lat="49.30313" lon="1.16026">
        <ele>24</ele>
        <time>2025-09-09T15:22:02.805Z</time>
      </trkpt>
      <trkpt lat="49.30318" lon="1.1602">
        <ele>24</ele>
        <time>2025-09-09T15:22:07.513Z</time>
      </trkpt>
      <trkpt lat="49.30322" lon="1.16016">
        <ele>24</ele>
        <time>2025-09-09T15:22:11.807Z</time>
      </trkpt>
      <trkpt lat="49.30327" lon="1.16012">
        <ele>24</ele>
        <time>2025-09-09T15:22:16.807Z</time>
      </trkpt>
      <trkpt lat="49.30331" lon="1.16007">
        <ele>24</ele>
        <time>2025-09-09T15:22:21.390Z</time>
      </trkpt>
      <trkpt lat="49.30336" lon="1.16002">
        <ele>24</ele>
        <time>2025-09-09T15:22:25.570Z</time>
      </trkpt>
      <trkpt lat="49.3034" lon="1.15999">
        <ele>24</ele>
        <time>2025-09-09T15:22:29.808Z</time>
      </trkpt>
      <trkpt lat="49.30345" lon="1.15993">
        <ele>24</ele>
        <time>2025-09-09T15:22:34.630Z</time>
      </trkpt>
      <trkpt lat="49.3035" lon="1.15989">
        <ele>24</ele>
        <time>2025-09-09T15:22:38.810Z</time>
      </trkpt>
      <trkpt lat="49.30352" lon="1.15982">
        <ele>23</ele>
        <time>2025-09-09T15:22:43.808Z</time>
      </trkpt>
      <trkpt lat="49.30354" lon="1.15978">
        <ele>23</ele>
        <time>2025-09-09T15:22:47.808Z</time>
      </trkpt>
      <trkpt lat="49.3036" lon="1.15972">
        <ele>23</ele>
        <time>2025-09-09T15:22:52.550Z</time>
      </trkpt>
      <trkpt lat="49.30366" lon="1.1597">
        <ele>23</ele>
        <time>2025-09-09T15:22:56.812Z</time>
      </trkpt>
      <trkpt lat="49.30372" lon="1.15968">
        <ele>23</ele>
        <time>2025-09-09T15:23:00.810Z</time>
      </trkpt>
      <trkpt lat="49.30377" lon="1.15965">
        <ele>22</ele>
        <time>2025-09-09T15:23:05.808Z</time>
      </trkpt>
      <trkpt lat="49.30382" lon="1.15965">
        <ele>22</ele>
        <time>2025-09-09T15:23:10.315Z</time>
      </trkpt>
      <trkpt lat="49.30387" lon="1.15962">
        <ele>22</ele>
        <time>2025-09-09T15:23:14.807Z</time>
      </trkpt>
      <trkpt lat="49.30391" lon="1.15957">
        <ele>20</ele>
        <time>2025-09-09T15:23:18.806Z</time>
      </trkpt>
      <trkpt lat="49.30394" lon="1.15953">
        <ele>20</ele>
        <time>2025-09-09T15:23:22.807Z</time>
      </trkpt>
      <trkpt lat="49.30399" lon="1.15949">
        <ele>20</ele>
        <time>2025-09-09T15:23:27.453Z</time>
      </trkpt>
      <trkpt lat="49.30403" lon="1.15945">
        <ele>20</ele>
        <time>2025-09-09T15:23:31.809Z</time>
      </trkpt>
      <trkpt lat="49.30408" lon="1.15942">
        <ele>20</ele>
        <time>2025-09-09T15:23:36.168Z</time>
      </trkpt>
      <trkpt lat="49.30412" lon="1.15938">
        <ele>20</ele>
        <time>2025-09-09T15:23:40.716Z</time>
      </trkpt>
      <trkpt lat="49.30418" lon="1.15934">
        <ele>20</ele>
        <time>2025-09-09T15:23:45.229Z</time>
      </trkpt>
      <trkpt lat="49.30423" lon="1.15932">
        <ele>20</ele>
        <time>2025-09-09T15:23:49.654Z</time>
      </trkpt>
      <trkpt lat="49.30426" lon="1.15928">
        <ele>20</ele>
        <time>2025-09-09T15:23:53.806Z</time>
      </trkpt>
      <trkpt lat="49.30432" lon="1.15926">
        <ele>19</ele>
        <time>2025-09-09T15:23:58.806Z</time>
      </trkpt>
      <trkpt lat="49.30437" lon="1.15928">
        <ele>19</ele>
        <time>2025-09-09T15:24:03.272Z</time>
      </trkpt>
      <trkpt lat="49.30443" lon="1.15925">
        <ele>19</ele>
        <time>2025-09-09T15:24:07.693Z</time>
      </trkpt>
      <trkpt lat="49.30446" lon="1.15918">
        <ele>19</ele>
        <time>2025-09-09T15:24:11.808Z</time>
      </trkpt>
      <trkpt lat="49.30447" lon="1.15909">
        <ele>19</ele>
        <time>2025-09-09T15:24:15.817Z</time>
      </trkpt>
      <trkpt lat="49.30442" lon="1.15903">
        <ele>19</ele>
        <time>2025-09-09T15:24:20.811Z</time>
      </trkpt>
      <trkpt lat="49.30445" lon="1.15896">
        <ele>19</ele>
        <time>2025-09-09T15:24:24.972Z</time>
      </trkpt>
      <trkpt lat="49.30448" lon="1.15887">
        <ele>19</ele>
        <time>2025-09-09T15:24:29.810Z</time>
      </trkpt>
      <trkpt lat="49.30451" lon="1.1588">
        <ele>19</ele>
        <time>2025-09-09T15:24:34.394Z</time>
      </trkpt>
      <trkpt lat="49.30457" lon="1.15884">
        <ele>19</ele>
        <time>2025-09-09T15:24:39.476Z</time>
      </trkpt>
      <trkpt lat="49.30462" lon="1.15889">
        <ele>17</ele>
        <time>2025-09-09T15:24:43.550Z</time>
      </trkpt>
      <trkpt lat="49.30467" lon="1.15893">
        <ele>17</ele>
        <time>2025-09-09T15:24:47.816Z</time>
      </trkpt>
      <trkpt lat="49.30472" lon="1.15892">
        <ele>17</ele>
        <time>2025-09-09T15:24:52.330Z</time>
      </trkpt>
      <trkpt lat="49.30477" lon="1.15886">
        <ele>17</ele>
        <time>2025-09-09T15:24:56.712Z</time>
      </trkpt>
      <trkpt lat="49.30481" lon="1.1588">
        <ele>17</ele>
        <time>2025-09-09T15:25:00.807Z</time>
      </trkpt>
      <trkpt lat="49.30481" lon="1.15871">
        <ele>17</ele>
        <time>2025-09-09T15:25:05.361Z</time>
      </trkpt>
      <trkpt lat="49.30484" lon="1.15865">
        <ele>17</ele>
        <time>2025-09-09T15:25:09.809Z</time>
      </trkpt>
      <trkpt lat="49.3049" lon="1.15863">
        <ele>15</ele>
        <time>2025-09-09T15:25:14.675Z</time>
      </trkpt>
      <trkpt lat="49.30494" lon="1.15861">
        <ele>15</ele>
        <time>2025-09-09T15:25:19.091Z</time>
      </trkpt>
      <trkpt lat="49.30498" lon="1.15864">
        <ele>15</ele>
        <time>2025-09-09T15:25:23.806Z</time>
      </trkpt>
      <trkpt lat="49.305" lon="1.15867">
        <ele>15</ele>
        <time>2025-09-09T15:25:28.810Z</time>
      </trkpt>
      <trkpt lat="49.30503" lon="1.15871">
        <ele>15</ele>
        <time>2025-09-09T15:25:33.429Z</time>
      </trkpt>
      <trkpt lat="49.30507" lon="1.15873">
        <ele>15</ele>
        <time>2025-09-09T15:25:37.807Z</time>
      </trkpt>
      <trkpt lat="49.3051" lon="1.15875">
        <ele>16</ele>
        <time>2025-09-09T15:25:41.809Z</time>
      </trkpt>
      <trkpt lat="49.30512" lon="1.15876">
        <ele>16</ele>
        <time>2025-09-09T15:25:45.914Z</time>
      </trkpt>
      <trkpt lat="49.30514" lon="1.15876">
        <ele>12</ele>
        <time>2025-09-09T15:25:50.076Z</time>
      </trkpt>
      <trkpt lat="49.30518" lon="1.15879">
        <ele>12</ele>
        <time>2025-09-09T15:25:54.790Z</time>
      </trkpt>
      <trkpt lat="49.30522" lon="1.1588">
        <ele>12</ele>
        <time>2025-09-09T15:25:58.809Z</time>
      </trkpt>
      <trkpt lat="49.30525" lon="1.15877">
        <ele>12</ele>
        <time>2025-09-09T15:26:03.808Z</time>
      </trkpt>
      <trkpt lat="49.30526" lon="1.1587">
        <ele>13</ele>
        <time>2025-09-09T15:26:08.808Z</time>
      </trkpt>
      <trkpt lat="49.30527" lon="1.15864">
        <ele>13</ele>
        <time>2025-09-09T15:26:12.816Z</time>
      </trkpt>
      <trkpt lat="49.30528" lon="1.15857">
        <ele>13</ele>
        <time>2025-09-09T15:26:17.329Z</time>
      </trkpt>
      <trkpt lat="49.30531" lon="1.1585">
        <ele>13</ele>
        <time>2025-09-09T15:26:21.810Z</time>
      </trkpt>
      <trkpt lat="49.30534" lon="1.15843">
        <ele>12</ele>
        <time>2025-09-09T15:26:26.275Z</time>
      </trkpt>
      <trkpt lat="49.30536" lon="1.15837">
        <ele>12</ele>
        <time>2025-09-09T15:26:30.596Z</time>
      </trkpt>
      <trkpt lat="49.30538" lon="1.15828">
        <ele>12</ele>
        <time>2025-09-09T15:26:34.814Z</time>
      </trkpt>
      <trkpt lat="49.30538" lon="1.1582">
        <ele>12</ele>
        <time>2025-09-09T15:26:39.809Z</time>
      </trkpt>
      <trkpt lat="49.30539" lon="1.15812">
        <ele>12</ele>
        <time>2025-09-09T15:26:44.494Z</time>
      </trkpt>
      <trkpt lat="49.3054" lon="1.15804">
        <ele>12</ele>
        <time>2025-09-09T15:26:48.690Z</time>
      </trkpt>
      <trkpt lat="49.30541" lon="1.15797">
        <ele>12</ele>
        <time>2025-09-09T15:26:52.811Z</time>
      </trkpt>
      <trkpt lat="49.30542" lon="1.15787">
        <ele>9</ele>
        <time>2025-09-09T15:26:57.810Z</time>
      </trkpt>
      <trkpt lat="49.30544" lon="1.15778">
        <ele>9</ele>
        <time>2025-09-09T15:27:02.589Z</time>
      </trkpt>
      <trkpt lat="49.30545" lon="1.15771">
        <ele>9</ele>
        <time>2025-09-09T15:27:06.808Z</time>
      </trkpt>
      <trkpt lat="49.30554" lon="1.15773">
        <ele>9</ele>
        <time>2025-09-09T15:28:39.806Z</time>
      </trkpt>
      <trkpt lat="49.30555" lon="1.15768">
        <ele>9</ele>
        <time>2025-09-09T15:28:43.806Z</time>
      </trkpt>
      <trkpt lat="49.30555" lon="1.15762">
        <ele>11</ele>
        <time>2025-09-09T15:28:48.806Z</time>
      </trkpt>
      <trkpt lat="49.30555" lon="1.15757">
        <ele>11</ele>
        <time>2025-09-09T15:28:53.805Z</time>
      </trkpt>
      <trkpt lat="49.30556" lon="1.15753">
        <ele>11</ele>
        <time>2025-09-09T15:28:57.804Z</time>
      </trkpt>
      <trkpt lat="49.30556" lon="1.15749">
        <ele>11</ele>
        <time>2025-09-09T15:29:01.806Z</time>
      </trkpt>
      <trkpt lat="49.30557" lon="1.15743">
        <ele>11</ele>
        <time>2025-09-09T15:29:05.809Z</time>
      </trkpt>
      <trkpt lat="49.30558" lon="1.15736">
        <ele>12</ele>
        <time>2025-09-09T15:29:10.574Z</time>
      </trkpt>
      <trkpt lat="49.30557" lon="1.15728">
        <ele>12</ele>
        <time>2025-09-09T15:29:14.809Z</time>
      </trkpt>
    </trkseg>
  </trk>
</gpx>